Wetterdaten: Mittwoch, 08.02.2017
Datum Zeit Temp. A. Feuchte A. Luftdruck Regen Wind Richtung Richtung Sonnenschein ET UV Solar Taupunkt Windchill Windben Empfang
08.02.2017 00:00 -0,5 C 97 % 1018,8 hPa 0,0 l/m 8,5 km/h (2 Bft) O-NO 61 0 min 0,000 mm 0,0 UV-I 0 W/m -0,9 C -2,7 C 12,9 km/h (3 Bft) 97,56 %
08.02.2017 00:02 -0,6 C 97 % 1018,8 hPa 0,0 l/m 11,0 km/h (2 Bft) NO 43 0 min 0,000 mm 0,0 UV-I 0 W/m -1,0 C -4,9 C 14,5 km/h (3 Bft) 95,35 %
08.02.2017 00:04 -0,5 C 97 % 1018,8 hPa 0,0 l/m 13,3 km/h (3 Bft) NO 52 0 min 0,000 mm 0,0 UV-I 0 W/m -0,9 C -6,5 C 17,7 km/h (3 Bft) 95,12 %
08.02.2017 00:06 -0,5 C 97 % 1018,7 hPa 0,0 l/m 12,7 km/h (3 Bft) NO 55 0 min 0,000 mm 0,0 UV-I 0 W/m -0,9 C -6,1 C 16,1 km/h (3 Bft) 94,00 %
08.02.2017 00:08 -0,5 C 97 % 1018,8 hPa 0,0 l/m 12,0 km/h (2 Bft) O 84 0 min 0,000 mm 0,0 UV-I 0 W/m -0,9 C -5,6 C 17,7 km/h (3 Bft) 94,34 %
08.02.2017 00:10 -0,5 C 97 % 1018,9 hPa 0,0 l/m 12,9 km/h (3 Bft) O-NO 57 0 min 0,000 mm 0,0 UV-I 0 W/m -0,9 C -6,2 C 17,7 km/h (3 Bft) 100,00 %
08.02.2017 00:12 -0,5 C 97 % 1018,9 hPa 0,0 l/m 12,7 km/h (3 Bft) NO 46 0 min 0,000 mm 0,0 UV-I 0 W/m -0,9 C -6,1 C 17,7 km/h (3 Bft) 97,14 %
08.02.2017 00:14 -0,4 C 97 % 1018,9 hPa 0,0 l/m 13,9 km/h (3 Bft) O-NO 59 0 min 0,000 mm 0,0 UV-I 0 W/m -0,8 C -6,8 C 17,7 km/h (3 Bft) 100,00 %
08.02.2017 00:16 -0,4 C 96 % 1018,9 hPa 0,0 l/m 10,7 km/h (2 Bft) O-NO 71 0 min 0,000 mm 0,0 UV-I 0 W/m -1,0 C -4,5 C 14,5 km/h (3 Bft) 98,00 %
08.02.2017 00:18 -0,4 C 96 % 1018,9 hPa 0,0 l/m 10,8 km/h (2 Bft) NO 54 0 min 0,000 mm 0,0 UV-I 0 W/m -1,0 C -4,5 C 16,1 km/h (3 Bft) 98,00 %
08.02.2017 00:20 -0,4 C 96 % 1019,0 hPa 0,0 l/m 10,4 km/h (2 Bft) O-NO 63 0 min 0,000 mm 0,0 UV-I 0 W/m -1,0 C -4,2 C 16,1 km/h (3 Bft) 100,00 %
08.02.2017 00:22 -0,5 C 96 % 1018,9 hPa 0,0 l/m 11,6 km/h (2 Bft) O-NO 69 0 min 0,000 mm 0,0 UV-I 0 W/m -1,1 C -5,3 C 16,1 km/h (3 Bft) 97,44 %
08.02.2017 00:24 -0,5 C 96 % 1018,9 hPa 0,0 l/m 10,0 km/h (2 Bft) N-NO 32 0 min 0,000 mm 0,0 UV-I 0 W/m -1,1 C -4,0 C 16,1 km/h (3 Bft) 100,00 %
08.02.2017 00:26 -0,5 C 96 % 1018,9 hPa 0,0 l/m 11,1 km/h (2 Bft) NO 51 0 min 0,000 mm 0,0 UV-I 0 W/m -1,1 C -4,9 C 17,7 km/h (3 Bft) 97,87 %
08.02.2017 00:28 -0,6 C 96 % 1018,9 hPa 0,0 l/m 7,7 km/h (2 Bft) O-NO 63 0 min 0,000 mm 0,0 UV-I 0 W/m -1,2 C -2,0 C 14,5 km/h (3 Bft) 100,00 %
08.02.2017 00:30 -0,6 C 96 % 1018,9 hPa 0,0 l/m 10,1 km/h (2 Bft) NO 51 0 min 0,000 mm 0,0 UV-I 0 W/m -1,2 C -4,2 C 16,1 km/h (3 Bft) 98,11 %
08.02.2017 00:32 -0,5 C 96 % 1018,9 hPa 0,0 l/m 11,9 km/h (2 Bft) O-NO 61 0 min 0,000 mm 0,0 UV-I 0 W/m -1,1 C -5,5 C 16,1 km/h (3 Bft) 100,00 %
08.02.2017 00:34 -0,6 C 96 % 1018,9 hPa 0,0 l/m 10,0 km/h (2 Bft) O-NO 59 0 min 0,000 mm 0,0 UV-I 0 W/m -1,2 C -4,1 C 14,5 km/h (3 Bft) 98,00 %
08.02.2017 00:36 -0,6 C 95 % 1018,9 hPa 0,0 l/m 8,1 km/h (2 Bft) O 83 0 min 0,000 mm 0,0 UV-I 0 W/m -1,3 C -2,4 C 14,5 km/h (3 Bft) 100,00 %
08.02.2017 00:38 -0,6 C 95 % 1018,9 hPa 0,0 l/m 10,8 km/h (2 Bft) O-NO 59 0 min 0,000 mm 0,0 UV-I 0 W/m -1,3 C -4,8 C 16,1 km/h (3 Bft) 100,00 %
08.02.2017 00:40 -0,6 C 95 % 1019,0 hPa 0,0 l/m 8,1 km/h (2 Bft) O-NO 66 0 min 0,000 mm 0,0 UV-I 0 W/m -1,3 C -2,4 C 12,9 km/h (3 Bft) 100,00 %
08.02.2017 00:42 -0,6 C 95 % 1019,0 hPa 0,0 l/m 8,4 km/h (2 Bft) O-NO 63 0 min 0,000 mm 0,0 UV-I 0 W/m -1,3 C -2,7 C 14,5 km/h (3 Bft) 95,74 %
08.02.2017 00:44 -0,6 C 95 % 1019,0 hPa 0,0 l/m 8,7 km/h (2 Bft) NO 46 0 min 0,000 mm 0,0 UV-I 0 W/m -1,3 C -3,0 C 12,9 km/h (3 Bft) 97,14 %
08.02.2017 00:46 -0,6 C 95 % 1019,0 hPa 0,0 l/m 8,4 km/h (2 Bft) NO 38 0 min 0,000 mm 0,0 UV-I 0 W/m -1,3 C -2,7 C 14,5 km/h (3 Bft) 100,00 %
08.02.2017 00:48 -0,6 C 95 % 1019,0 hPa 0,0 l/m 8,0 km/h (2 Bft) NO 48 0 min 0,000 mm 0,0 UV-I 0 W/m -1,3 C -2,3 C 14,5 km/h (3 Bft) 97,37 %
08.02.2017 00:50 -0,7 C 94 % 1019,0 hPa 0,0 l/m 7,6 km/h (2 Bft) NO 48 0 min 0,000 mm 0,0 UV-I 0 W/m -1,5 C -2,0 C 11,3 km/h (2 Bft) 98,21 %
08.02.2017 00:52 -0,7 C 94 % 1019,0 hPa 0,0 l/m 8,3 km/h (2 Bft) O-NO 58 0 min 0,000 mm 0,0 UV-I 0 W/m -1,5 C -2,7 C 16,1 km/h (3 Bft) 98,00 %
08.02.2017 00:54 -0,7 C 94 % 1019,0 hPa 0,0 l/m 8,3 km/h (2 Bft) O-NO 61 0 min 0,000 mm 0,0 UV-I 0 W/m -1,5 C -2,7 C 14,5 km/h (3 Bft) 97,37 %
08.02.2017 00:56 -0,7 C 94 % 1019,1 hPa 0,0 l/m 7,2 km/h (2 Bft) NO 45 0 min 0,000 mm 0,0 UV-I 0 W/m -1,5 C -1,6 C 12,9 km/h (3 Bft) 100,00 %
08.02.2017 00:58 -0,7 C 94 % 1019,0 hPa 0,0 l/m 8,4 km/h (2 Bft) O-NO 69 0 min 0,000 mm 0,0 UV-I 0 W/m -1,5 C -2,8 C 12,9 km/h (3 Bft) 100,00 %
08.02.2017 01:00 -0,7 C 94 % 1019,1 hPa 0,0 l/m 9,3 km/h (2 Bft) O-NO 61 0 min 0,000 mm 0,0 UV-I 0 W/m -1,5 C -3,6 C 16,1 km/h (3 Bft) 100,00 %
08.02.2017 01:02 -0,7 C 94 % 1019,0 hPa 0,0 l/m 7,0 km/h (2 Bft) O-NO 72 0 min 0,000 mm 0,0 UV-I 0 W/m -1,5 C -1,3 C 9,7 km/h (2 Bft) 100,00 %
08.02.2017 01:04 -0,7 C 94 % 1019,1 hPa 0,0 l/m 8,7 km/h (2 Bft) O-NO 59 0 min 0,000 mm 0,0 UV-I 0 W/m -1,5 C -3,1 C 11,3 km/h (2 Bft) 97,44 %
08.02.2017 01:06 -0,7 C 94 % 1019,0 hPa 0,0 l/m 8,2 km/h (2 Bft) O-NO 70 0 min 0,000 mm 0,0 UV-I 0 W/m -1,5 C -2,6 C 12,9 km/h (3 Bft) 98,21 %
08.02.2017 01:08 -0,7 C 94 % 1019,1 hPa 0,0 l/m 8,7 km/h (2 Bft) O-NO 58 0 min 0,000 mm 0,0 UV-I 0 W/m -1,5 C -3,1 C 14,5 km/h (3 Bft) 100,00 %
08.02.2017 01:10 -0,7 C 94 % 1019,1 hPa 0,0 l/m 10,6 km/h (2 Bft) O-NO 63 0 min 0,000 mm 0,0 UV-I 0 W/m -1,5 C -4,7 C 17,7 km/h (3 Bft) 97,87 %
08.02.2017 01:12 -0,7 C 94 % 1019,1 hPa 0,0 l/m 9,8 km/h (2 Bft) O-NO 57 0 min 0,000 mm 0,0 UV-I 0 W/m -1,5 C -4,1 C 14,5 km/h (3 Bft) 100,00 %
08.02.2017 01:14 -0,7 C 93 % 1019,1 hPa 0,0 l/m 9,0 km/h (2 Bft) NO 51 0 min 0,000 mm 0,0 UV-I 0 W/m -1,7 C -3,3 C 14,5 km/h (3 Bft) 97,37 %
08.02.2017 01:16 -0,8 C 93 % 1019,1 hPa 0,0 l/m 10,4 km/h (2 Bft) NO 54 0 min 0,000 mm 0,0 UV-I 0 W/m -1,8 C -4,7 C 14,5 km/h (3 Bft) 98,21 %
08.02.2017 01:18 -0,8 C 93 % 1019,1 hPa 0,0 l/m 9,4 km/h (2 Bft) NO 51 0 min 0,000 mm 0,0 UV-I 0 W/m -1,8 C -3,8 C 14,5 km/h (3 Bft) 95,12 %
08.02.2017 01:20 -0,8 C 93 % 1019,2 hPa 0,0 l/m 10,8 km/h (2 Bft) O-NO 57 0 min 0,000 mm 0,0 UV-I 0 W/m -1,8 C -5,0 C 16,1 km/h (3 Bft) 98,11 %
08.02.2017 01:22 -0,8 C 93 % 1019,2 hPa 0,0 l/m 11,1 km/h (2 Bft) NO 53 0 min 0,000 mm 0,0 UV-I 0 W/m -1,8 C -5,2 C 16,1 km/h (3 Bft) 97,87 %
08.02.2017 01:24 -0,8 C 93 % 1019,2 hPa 0,0 l/m 9,0 km/h (2 Bft) O-NO 57 0 min 0,000 mm 0,0 UV-I 0 W/m -1,8 C -3,4 C 12,9 km/h (3 Bft) 93,62 %
08.02.2017 01:26 -0,8 C 93 % 1019,2 hPa 0,0 l/m 9,7 km/h (2 Bft) O-NO 65 0 min 0,000 mm 0,0 UV-I 0 W/m -1,8 C -4,1 C 16,1 km/h (3 Bft) 100,00 %
08.02.2017 01:28 -0,8 C 93 % 1019,3 hPa 0,0 l/m 9,7 km/h (2 Bft) O-NO 59 0 min 0,000 mm 0,0 UV-I 0 W/m -1,8 C -4,1 C 14,5 km/h (3 Bft) 94,34 %
08.02.2017 01:30 -0,8 C 93 % 1019,3 hPa 0,0 l/m 10,0 km/h (2 Bft) NO 55 0 min 0,000 mm 0,0 UV-I 0 W/m -1,8 C -4,3 C 14,5 km/h (3 Bft) 95,12 %
08.02.2017 01:32 -0,8 C 93 % 1019,3 hPa 0,0 l/m 9,2 km/h (2 Bft) NO 55 0 min 0,000 mm 0,0 UV-I 0 W/m -1,8 C -3,6 C 14,5 km/h (3 Bft) 96,00 %
08.02.2017 01:34 -0,8 C 93 % 1019,3 hPa 0,0 l/m 10,0 km/h (2 Bft) NO 45 0 min 0,000 mm 0,0 UV-I 0 W/m -1,8 C -4,3 C 14,5 km/h (3 Bft) 94,00 %
08.02.2017 01:36 -0,9 C 93 % 1019,3 hPa 0,0 l/m 8,9 km/h (2 Bft) O-NO 66 0 min 0,000 mm 0,0 UV-I 0 W/m -1,9 C -3,5 C 14,5 km/h (3 Bft) 96,30 %
08.02.2017 01:38 -0,9 C 93 % 1019,4 hPa 0,0 l/m 9,4 km/h (2 Bft) O-NO 57 0 min 0,000 mm 0,0 UV-I 0 W/m -1,9 C -3,9 C 14,5 km/h (3 Bft) 96,88 %
08.02.2017 01:41 -0,9 C 93 % 1019,3 hPa 0,0 l/m 9,5 km/h (2 Bft) NO 46 0 min 0,000 mm 0,0 UV-I 0 W/m -1,9 C -4,0 C 14,5 km/h (3 Bft) 96,10 %
08.02.2017 01:42 -0,9 C 93 % 1019,3 hPa 0,0 l/m 9,2 km/h (2 Bft) O-NO 59 0 min 0,000 mm 0,0 UV-I 0 W/m -1,9 C -3,7 C 11,3 km/h (2 Bft) 100,00 %
08.02.2017 01:44 -0,9 C 92 % 1019,3 hPa 0,0 l/m 9,5 km/h (2 Bft) NO 55 0 min 0,000 mm 0,0 UV-I 0 W/m -2,0 C -4,0 C 12,9 km/h (3 Bft) 94,00 %
08.02.2017 01:46 -0,9 C 92 % 1019,3 hPa 0,0 l/m 9,8 km/h (2 Bft) NO 55 0 min 0,000 mm 0,0 UV-I 0 W/m -2,0 C -4,3 C 14,5 km/h (3 Bft) 97,56 %
08.02.2017 01:48 -0,9 C 92 % 1019,3 hPa 0,0 l/m 10,5 km/h (2 Bft) NO 40 0 min 0,000 mm 0,0 UV-I 0 W/m -2,0 C -4,9 C 14,5 km/h (3 Bft) 93,22 %
08.02.2017 01:50 -0,9 C 92 % 1019,3 hPa 0,0 l/m 8,9 km/h (2 Bft) NO 52 0 min 0,000 mm 0,0 UV-I 0 W/m -2,0 C -3,5 C 14,5 km/h (3 Bft) 97,56 %
08.02.2017 01:52 -0,9 C 92 % 1019,4 hPa 0,0 l/m 9,7 km/h (2 Bft) O-NO 65 0 min 0,000 mm 0,0 UV-I 0 W/m -2,0 C -4,2 C 14,5 km/h (3 Bft) 98,00 %
08.02.2017 01:54 -0,9 C 92 % 1019,4 hPa 0,0 l/m 10,6 km/h (2 Bft) O-NO 72 0 min 0,000 mm 0,0 UV-I 0 W/m -2,0 C -4,9 C 14,5 km/h (3 Bft) 97,37 %
08.02.2017 01:56 -0,9 C 92 % 1019,3 hPa 0,0 l/m 12,0 km/h (2 Bft) NO 38 0 min 0,000 mm 0,0 UV-I 0 W/m -2,0 C -6,0 C 16,1 km/h (3 Bft) 98,11 %
08.02.2017 01:58 -0,9 C 92 % 1019,3 hPa 0,0 l/m 11,3 km/h (2 Bft) O-NO 64 0 min 0,000 mm 0,0 UV-I 0 W/m -2,0 C -5,5 C 16,1 km/h (3 Bft) 98,11 %
08.02.2017 02:00 -0,9 C 92 % 1019,3 hPa 0,0 l/m 11,4 km/h (2 Bft) O-NO 61 0 min 0,000 mm 0,0 UV-I 0 W/m -2,0 C -5,6 C 16,1 km/h (3 Bft) 95,45 %
08.02.2017 02:02 -0,9 C 92 % 1019,3 hPa 0,0 l/m 11,3 km/h (2 Bft) NO 55 0 min 0,000 mm 0,0 UV-I 0 W/m -2,0 C -5,5 C 14,5 km/h (3 Bft) 100,00 %
08.02.2017 02:04 -0,9 C 92 % 1019,3 hPa 0,0 l/m 12,0 km/h (2 Bft) O-NO 57 0 min 0,000 mm 0,0 UV-I 0 W/m -2,0 C -6,0 C 16,1 km/h (3 Bft) 98,11 %
08.02.2017 02:06 -0,9 C 92 % 1019,3 hPa 0,0 l/m 12,5 km/h (3 Bft) O-NO 60 0 min 0,000 mm 0,0 UV-I 0 W/m -2,0 C -6,4 C 19,3 km/h (3 Bft) 100,00 %
08.02.2017 02:08 -0,9 C 92 % 1019,3 hPa 0,0 l/m 12,4 km/h (3 Bft) NO 46 0 min 0,000 mm 0,0 UV-I 0 W/m -2,0 C -6,3 C 17,7 km/h (3 Bft) 93,62 %
08.02.2017 02:10 -0,9 C 92 % 1019,3 hPa 0,0 l/m 9,8 km/h (2 Bft) O-NO 62 0 min 0,000 mm 0,0 UV-I 0 W/m -2,0 C -4,3 C 14,5 km/h (3 Bft) 94,00 %
08.02.2017 02:12 -0,9 C 92 % 1019,3 hPa 0,0 l/m 10,2 km/h (2 Bft) NO 50 0 min 0,000 mm 0,0 UV-I 0 W/m -2,0 C -4,6 C 14,5 km/h (3 Bft) 100,00 %
08.02.2017 02:14 -0,9 C 92 % 1019,3 hPa 0,0 l/m 9,8 km/h (2 Bft) O-NO 61 0 min 0,000 mm 0,0 UV-I 0 W/m -2,0 C -4,3 C 14,5 km/h (3 Bft) 97,73 %
08.02.2017 02:16 -0,9 C 92 % 1019,4 hPa 0,0 l/m 11,7 km/h (2 Bft) NO 44 0 min 0,000 mm 0,0 UV-I 0 W/m -2,0 C -5,8 C 16,1 km/h (3 Bft) 96,43 %
08.02.2017 02:18 -1,0 C 92 % 1019,3 hPa 0,0 l/m 9,8 km/h (2 Bft) NO 53 0 min 0,000 mm 0,0 UV-I 0 W/m -2,1 C -4,4 C 14,5 km/h (3 Bft) 96,30 %
08.02.2017 02:20 -0,9 C 92 % 1019,4 hPa 0,0 l/m 11,3 km/h (2 Bft) O 80 0 min 0,000 mm 0,0 UV-I 0 W/m -2,0 C -5,5 C 16,1 km/h (3 Bft) 98,51 %
08.02.2017 02:22 -1,0 C 92 % 1019,3 hPa 0,0 l/m 10,7 km/h (2 Bft) O 84 0 min 0,000 mm 0,0 UV-I 0 W/m -2,1 C -5,1 C 16,1 km/h (3 Bft) 100,00 %
08.02.2017 02:24 -1,0 C 92 % 1019,3 hPa 0,0 l/m 10,3 km/h (2 Bft) O-NO 71 0 min 0,000 mm 0,0 UV-I 0 W/m -2,1 C -4,8 C 14,5 km/h (3 Bft) 97,62 %
08.02.2017 02:26 -1,0 C 92 % 1019,3 hPa 0,0 l/m 9,3 km/h (2 Bft) O-NO 69 0 min 0,000 mm 0,0 UV-I 0 W/m -2,1 C -3,9 C 14,5 km/h (3 Bft) 98,08 %
08.02.2017 02:28 -1,1 C 92 % 1019,3 hPa 0,0 l/m 9,5 km/h (2 Bft) NO 55 0 min 0,000 mm 0,0 UV-I 0 W/m -2,2 C -4,2 C 14,5 km/h (3 Bft) 97,78 %
08.02.2017 02:30 -1,1 C 92 % 1019,3 hPa 0,0 l/m 8,6 km/h (2 Bft) NO 46 0 min 0,000 mm 0,0 UV-I 0 W/m -2,2 C -3,4 C 11,3 km/h (2 Bft) 100,00 %
08.02.2017 02:32 -1,1 C 92 % 1019,4 hPa 0,0 l/m 8,8 km/h (2 Bft) O 90 0 min 0,000 mm 0,0 UV-I 0 W/m -2,2 C -3,6 C 14,5 km/h (3 Bft) 98,04 %
08.02.2017 02:34 -1,1 C 92 % 1019,4 hPa 0,0 l/m 7,2 km/h (2 Bft) NO 52 0 min 0,000 mm 0,0 UV-I 0 W/m -2,2 C -2,0 C 11,3 km/h (2 Bft) 98,00 %
08.02.2017 02:36 -1,1 C 92 % 1019,3 hPa 0,0 l/m 7,5 km/h (2 Bft) O-NO 67 0 min 0,000 mm 0,0 UV-I 0 W/m -2,2 C -2,3 C 11,3 km/h (2 Bft) 100,00 %
08.02.2017 02:38 -1,1 C 92 % 1019,3 hPa 0,0 l/m 9,7 km/h (2 Bft) O-NO 65 0 min 0,000 mm 0,0 UV-I 0 W/m -2,2 C -4,4 C 14,5 km/h (3 Bft) 97,14 %
08.02.2017 02:40 -1,1 C 92 % 1019,3 hPa 0,0 l/m 7,3 km/h (2 Bft) NO 56 0 min 0,000 mm 0,0 UV-I 0 W/m -2,2 C -2,1 C 9,7 km/h (2 Bft) 96,23 %
08.02.2017 02:42 -1,1 C 92 % 1019,4 hPa 0,0 l/m 8,4 km/h (2 Bft) O-NO 65 0 min 0,000 mm 0,0 UV-I 0 W/m -2,2 C -3,2 C 14,5 km/h (3 Bft) 94,34 %
08.02.2017 02:44 -1,1 C 92 % 1019,4 hPa 0,0 l/m 7,5 km/h (2 Bft) O-NO 73 0 min 0,000 mm 0,0 UV-I 0 W/m -2,2 C -2,3 C 11,3 km/h (2 Bft) 94,29 %
08.02.2017 02:46 -1,1 C 92 % 1019,4 hPa 0,0 l/m 9,1 km/h (2 Bft) O-NO 59 0 min 0,000 mm 0,0 UV-I 0 W/m -2,2 C -3,9 C 16,1 km/h (3 Bft) 100,00 %
08.02.2017 02:48 -1,0 C 92 % 1019,5 hPa 0,0 l/m 7,2 km/h (2 Bft) NO 49 0 min 0,000 mm 0,0 UV-I 0 W/m -2,1 C -1,9 C 11,3 km/h (2 Bft) 95,45 %
08.02.2017 02:50 -1,0 C 92 % 1019,5 hPa 0,0 l/m 6,4 km/h (2 Bft) NO 56 0 min 0,000 mm 0,0 UV-I 0 W/m -2,1 C -1,0 C 9,7 km/h (2 Bft) 100,00 %
08.02.2017 02:52 -1,0 C 92 % 1019,4 hPa 0,0 l/m 6,2 km/h (2 Bft) O-NO 60 0 min 0,000 mm 0,0 UV-I 0 W/m -2,1 C -1,0 C 9,7 km/h (2 Bft) 100,00 %
08.02.2017 02:54 -1,0 C 92 % 1019,4 hPa 0,0 l/m 7,2 km/h (2 Bft) NO 54 0 min 0,000 mm 0,0 UV-I 0 W/m -2,1 C -1,9 C 12,9 km/h (3 Bft) 100,00 %
08.02.2017 02:56 -1,0 C 92 % 1019,3 hPa 0,0 l/m 9,3 km/h (2 Bft) O-NO 78 0 min 0,000 mm 0,0 UV-I 0 W/m -2,1 C -3,9 C 12,9 km/h (3 Bft) 100,00 %
08.02.2017 02:58 -1,0 C 92 % 1019,1 hPa 0,0 l/m 11,5 km/h (2 Bft) O-NO 66 0 min 0,000 mm 0,0 UV-I 0 W/m -2,1 C -5,8 C 14,5 km/h (3 Bft) 100,00 %
08.02.2017 03:00 -1,1 C 92 % 1019,1 hPa 0,0 l/m 12,0 km/h (2 Bft) O 82 0 min 0,000 mm 0,0 UV-I 0 W/m -2,2 C -6,3 C 16,1 km/h (3 Bft) 98,11 %
08.02.2017 03:02 -1,0 C 92 % 1019,0 hPa 0,0 l/m 14,4 km/h (3 Bft) O-NO 60 0 min 0,000 mm 0,0 UV-I 0 W/m -2,1 C -7,8 C 19,3 km/h (3 Bft) 100,00 %
08.02.2017 03:04 -1,1 C 92 % 1019,0 hPa 0,0 l/m 10,3 km/h (2 Bft) O-NO 69 0 min 0,000 mm 0,0 UV-I 0 W/m -2,2 C -4,9 C 14,5 km/h (3 Bft) 97,78 %
08.02.2017 03:06 -1,1 C 92 % 1019,0 hPa 0,0 l/m 10,5 km/h (2 Bft) O 80 0 min 0,000 mm 0,0 UV-I 0 W/m -2,2 C -5,1 C 16,1 km/h (3 Bft) 98,11 %
08.02.2017 03:08 -1,1 C 92 % 1019,1 hPa 0,0 l/m 10,6 km/h (2 Bft) O-NO 71 0 min 0,000 mm 0,0 UV-I 0 W/m -2,2 C -5,2 C 17,7 km/h (3 Bft) 97,96 %
08.02.2017 03:10 -1,1 C 91 % 1019,1 hPa 0,0 l/m 10,3 km/h (2 Bft) O-NO 63 0 min 0,000 mm 0,0 UV-I 0 W/m -2,4 C -4,9 C 16,1 km/h (3 Bft) 97,44 %
08.02.2017 03:12 -1,1 C 91 % 1019,1 hPa 0,0 l/m 12,7 km/h (3 Bft) O-NO 75 0 min 0,000 mm 0,0 UV-I 0 W/m -2,4 C -6,8 C 17,7 km/h (3 Bft) 100,00 %
08.02.2017 03:14 -1,1 C 92 % 1019,2 hPa 0,0 l/m 8,6 km/h (2 Bft) O-NO 69 0 min 0,000 mm 0,0 UV-I 0 W/m -2,2 C -3,4 C 12,9 km/h (3 Bft) 97,37 %
08.02.2017 03:16 -1,1 C 92 % 1019,1 hPa 0,0 l/m 12,2 km/h (2 Bft) O 89 0 min 0,000 mm 0,0 UV-I 0 W/m -2,2 C -6,4 C 17,7 km/h (3 Bft) 100,00 %
08.02.2017 03:18 -1,1 C 91 % 1019,2 hPa 0,0 l/m 10,5 km/h (2 Bft) O 81 0 min 0,000 mm 0,0 UV-I 0 W/m -2,4 C -5,1 C 17,7 km/h (3 Bft) 97,87 %
08.02.2017 03:20 -1,1 C 91 % 1019,2 hPa 0,0 l/m 11,4 km/h (2 Bft) O-NO 70 0 min 0,000 mm 0,0 UV-I 0 W/m -2,4 C -5,8 C 16,1 km/h (3 Bft) 98,11 %
08.02.2017 03:22 -1,1 C 91 % 1019,3 hPa 0,0 l/m 8,2 km/h (2 Bft) O-NO 72 0 min 0,000 mm 0,0 UV-I 0 W/m -2,4 C -3,0 C 12,9 km/h (3 Bft) 100,00 %
08.02.2017 03:24 -1,0 C 91 % 1019,3 hPa 0,0 l/m 11,0 km/h (2 Bft) O 94 0 min 0,000 mm 0,0 UV-I 0 W/m -2,3 C -5,4 C 17,7 km/h (3 Bft) 97,73 %
08.02.2017 03:26 -1,0 C 91 % 1019,4 hPa 0,0 l/m 9,2 km/h (2 Bft) O-NO 75 0 min 0,000 mm 0,0 UV-I 0 W/m -2,3 C -3,8 C 14,5 km/h (3 Bft) 100,00 %
08.02.2017 03:28 -1,0 C 91 % 1019,4 hPa 0,0 l/m 8,4 km/h (2 Bft) O-NO 78 0 min 0,000 mm 0,0 UV-I 0 W/m -2,3 C -3,1 C 14,5 km/h (3 Bft) 98,11 %
08.02.2017 03:30 -1,0 C 91 % 1019,4 hPa 0,0 l/m 7,5 km/h (2 Bft) O 83 0 min 0,000 mm 0,0 UV-I 0 W/m -2,3 C -2,2 C 14,5 km/h (3 Bft) 95,45 %
08.02.2017 03:32 -1,0 C 91 % 1019,3 hPa 0,0 l/m 8,1 km/h (2 Bft) O 84 0 min 0,000 mm 0,0 UV-I 0 W/m -2,3 C -2,8 C 11,3 km/h (2 Bft) 97,56 %
08.02.2017 03:34 -1,0 C 91 % 1019,3 hPa 0,0 l/m 7,4 km/h (2 Bft) O-NO 62 0 min 0,000 mm 0,0 UV-I 0 W/m -2,3 C -2,1 C 11,3 km/h (2 Bft) 96,23 %
08.02.2017 03:36 -1,0 C 91 % 1019,3 hPa 0,0 l/m 6,5 km/h (2 Bft) O 93 0 min 0,000 mm 0,0 UV-I 0 W/m -2,3 C -1,1 C 12,9 km/h (3 Bft) 96,00 %
08.02.2017 03:38 -1,0 C 91 % 1019,3 hPa 0,0 l/m 7,0 km/h (2 Bft) O-NO 69 0 min 0,000 mm 0,0 UV-I 0 W/m -2,3 C -1,6 C 9,7 km/h (2 Bft) 95,45 %
08.02.2017 03:40 -1,0 C 91 % 1019,3 hPa 0,0 l/m 8,3 km/h (2 Bft) O 84 0 min 0,000 mm 0,0 UV-I 0 W/m -2,3 C -3,0 C 11,3 km/h (2 Bft) 97,44 %
08.02.2017 03:42 -1,0 C 90 % 1019,3 hPa 0,0 l/m 7,5 km/h (2 Bft) O 83 0 min 0,000 mm 0,0 UV-I 0 W/m -2,4 C -2,2 C 12,9 km/h (3 Bft) 92,68 %
08.02.2017 03:44 -1,0 C 90 % 1019,3 hPa 0,0 l/m 6,9 km/h (2 Bft) O-NO 73 0 min 0,000 mm 0,0 UV-I 0 W/m -2,4 C -1,5 C 12,9 km/h (3 Bft) 95,08 %
08.02.2017 03:46 -1,0 C 90 % 1019,3 hPa 0,0 l/m 7,0 km/h (2 Bft) O 80 0 min 0,000 mm 0,0 UV-I 0 W/m -2,4 C -1,6 C 11,3 km/h (2 Bft) 100,00 %
08.02.2017 03:48 -1,0 C 90 % 1019,3 hPa 0,0 l/m 9,1 km/h (2 Bft) O 87 0 min 0,000 mm 0,0 UV-I 0 W/m -2,4 C -3,8 C 14,5 km/h (3 Bft) 96,23 %
08.02.2017 03:50 -1,0 C 90 % 1019,3 hPa 0,0 l/m 6,9 km/h (2 Bft) O-NO 74 0 min 0,000 mm 0,0 UV-I 0 W/m -2,4 C -1,5 C 12,9 km/h (3 Bft) 97,37 %
08.02.2017 03:52 -1,0 C 90 % 1019,3 hPa 0,0 l/m 7,7 km/h (2 Bft) O-NO 67 0 min 0,000 mm 0,0 UV-I 0 W/m -2,4 C -2,4 C 11,3 km/h (2 Bft) 98,21 %
08.02.2017 03:54 -1,1 C 90 % 1019,3 hPa 0,0 l/m 7,6 km/h (2 Bft) O-NO 67 0 min 0,000 mm 0,0 UV-I 0 W/m -2,5 C -2,4 C 12,9 km/h (3 Bft) 97,87 %
08.02.2017 03:56 -1,1 C 90 % 1019,3 hPa 0,0 l/m 7,0 km/h (2 Bft) O-NO 68 0 min 0,000 mm 0,0 UV-I 0 W/m -2,5 C -1,7 C 12,9 km/h (3 Bft) 97,56 %
08.02.2017 03:58 -1,1 C 90 % 1019,3 hPa 0,0 l/m 8,5 km/h (2 Bft) O 97 0 min 0,000 mm 0,0 UV-I 0 W/m -2,5 C -3,3 C 14,5 km/h (3 Bft) 98,00 %
08.02.2017 04:00 -1,1 C 90 % 1019,3 hPa 0,0 l/m 9,1 km/h (2 Bft) O-NO 74 0 min 0,000 mm 0,0 UV-I 0 W/m -2,5 C -3,9 C 14,5 km/h (3 Bft) 95,45 %
08.02.2017 04:02 -1,1 C 90 % 1019,3 hPa 0,0 l/m 9,9 km/h (2 Bft) O-NO 69 0 min 0,000 mm 0,0 UV-I 0 W/m -2,5 C -4,6 C 16,1 km/h (3 Bft) 100,00 %
08.02.2017 04:04 -1,1 C 90 % 1019,3 hPa 0,0 l/m 10,2 km/h (2 Bft) O-NO 70 0 min 0,000 mm 0,0 UV-I 0 W/m -2,5 C -4,8 C 16,1 km/h (3 Bft) 92,45 %
08.02.2017 04:06 -1,1 C 90 % 1019,3 hPa 0,0 l/m 11,2 km/h (2 Bft) O 86 0 min 0,000 mm 0,0 UV-I 0 W/m -2,5 C -5,7 C 16,1 km/h (3 Bft) 95,12 %
08.02.2017 04:08 -1,1 C 90 % 1019,3 hPa 0,0 l/m 8,9 km/h (2 Bft) O-NO 66 0 min 0,000 mm 0,0 UV-I 0 W/m -2,5 C -3,7 C 14,5 km/h (3 Bft) 100,00 %
08.02.2017 04:10 -1,1 C 90 % 1019,3 hPa 0,0 l/m 9,4 km/h (2 Bft) O 86 0 min 0,000 mm 0,0 UV-I 0 W/m -2,5 C -4,1 C 14,5 km/h (3 Bft) 97,37 %
08.02.2017 04:12 -1,1 C 90 % 1019,3 hPa 0,0 l/m 11,9 km/h (2 Bft) O 88 0 min 0,000 mm 0,0 UV-I 0 W/m -2,5 C -6,2 C 16,1 km/h (3 Bft) 100,00 %
08.02.2017 04:14 -1,1 C 90 % 1019,3 hPa 0,0 l/m 12,4 km/h (3 Bft) O-NO 63 0 min 0,000 mm 0,0 UV-I 0 W/m -2,5 C -6,6 C 19,3 km/h (3 Bft) 98,11 %
08.02.2017 04:16 -1,1 C 90 % 1019,3 hPa 0,0 l/m 11,9 km/h (2 Bft) O 92 0 min 0,000 mm 0,0 UV-I 0 W/m -2,5 C -6,2 C 14,5 km/h (3 Bft) 97,56 %
08.02.2017 04:18 -1,1 C 90 % 1019,3 hPa 0,0 l/m 8,9 km/h (2 Bft) O 89 0 min 0,000 mm 0,0 UV-I 0 W/m -2,5 C -3,7 C 14,5 km/h (3 Bft) 96,23 %
08.02.2017 04:20 -1,1 C 90 % 1019,3 hPa 0,0 l/m 8,6 km/h (2 Bft) O-NO 66 0 min 0,000 mm 0,0 UV-I 0 W/m -2,5 C -3,4 C 12,9 km/h (3 Bft) 97,87 %
08.02.2017 04:22 -1,1 C 90 % 1019,3 hPa 0,0 l/m 9,2 km/h (2 Bft) O 88 0 min 0,000 mm 0,0 UV-I 0 W/m -2,5 C -4,0 C 16,1 km/h (3 Bft) 100,00 %
08.02.2017 04:24 -1,1 C 90 % 1019,3 hPa 0,0 l/m 9,5 km/h (2 Bft) O-NO 78 0 min 0,000 mm 0,0 UV-I 0 W/m -2,5 C -4,2 C 14,5 km/h (3 Bft) 95,74 %
08.02.2017 04:26 -1,1 C 90 % 1019,3 hPa 0,0 l/m 11,1 km/h (2 Bft) O-NO 71 0 min 0,000 mm 0,0 UV-I 0 W/m -2,5 C -5,6 C 16,1 km/h (3 Bft) 100,00 %
08.02.2017 04:28 -1,1 C 89 % 1019,4 hPa 0,0 l/m 10,1 km/h (2 Bft) O-NO 58 0 min 0,000 mm 0,0 UV-I 0 W/m -2,7 C -4,8 C 16,1 km/h (3 Bft) 98,11 %
08.02.2017 04:30 -1,1 C 89 % 1019,4 hPa 0,0 l/m 8,0 km/h (2 Bft) NO 55 0 min 0,000 mm 0,0 UV-I 0 W/m -2,7 C -2,8 C 12,9 km/h (3 Bft) 100,00 %
08.02.2017 04:32 -1,1 C 89 % 1019,4 hPa 0,0 l/m 12,2 km/h (2 Bft) NO 46 0 min 0,000 mm 0,0 UV-I 0 W/m -2,7 C -6,4 C 16,1 km/h (3 Bft) 98,21 %
08.02.2017 04:34 -1,1 C 89 % 1019,4 hPa 0,0 l/m 9,2 km/h (2 Bft) NO 55 0 min 0,000 mm 0,0 UV-I 0 W/m -2,7 C -4,0 C 16,1 km/h (3 Bft) 97,14 %
08.02.2017 04:36 -1,1 C 89 % 1019,4 hPa 0,0 l/m 6,2 km/h (2 Bft) NO 55 0 min 0,000 mm 0,0 UV-I 0 W/m -2,7 C -1,1 C 8,0 km/h (2 Bft) 98,00 %
08.02.2017 04:38 -1,1 C 89 % 1019,4 hPa 0,0 l/m 6,4 km/h (2 Bft) O-NO 61 0 min 0,000 mm 0,0 UV-I 0 W/m -2,7 C -1,1 C 12,9 km/h (3 Bft) 98,00 %
08.02.2017 04:40 -1,1 C 89 % 1019,4 hPa 0,0 l/m 9,4 km/h (2 Bft) NO 47 0 min 0,000 mm 0,0 UV-I 0 W/m -2,7 C -4,1 C 14,5 km/h (3 Bft) 100,00 %
08.02.2017 04:42 -1,1 C 89 % 1019,4 hPa 0,0 l/m 8,3 km/h (2 Bft) NO 55 0 min 0,000 mm 0,0 UV-I 0 W/m -2,7 C -3,1 C 12,9 km/h (3 Bft) 98,00 %
08.02.2017 04:44 -1,1 C 89 % 1019,4 hPa 0,0 l/m 9,0 km/h (2 Bft) O-NO 74 0 min 0,000 mm 0,0 UV-I 0 W/m -2,7 C -3,8 C 14,5 km/h (3 Bft) 97,56 %
08.02.2017 04:46 -1,1 C 88 % 1019,4 hPa 0,0 l/m 7,5 km/h (2 Bft) NO 44 0 min 0,000 mm 0,0 UV-I 0 W/m -2,8 C -2,3 C 9,7 km/h (2 Bft) 100,00 %
08.02.2017 04:48 -1,1 C 88 % 1019,4 hPa 0,0 l/m 9,7 km/h (2 Bft) NO 40 0 min 0,000 mm 0,0 UV-I 0 W/m -2,8 C -4,4 C 16,1 km/h (3 Bft) 98,11 %
08.02.2017 04:50 -1,1 C 89 % 1019,3 hPa 0,0 l/m 12,0 km/h (2 Bft) NO 40 0 min 0,000 mm 0,0 UV-I 0 W/m -2,7 C -6,3 C 17,7 km/h (3 Bft) 100,00 %
08.02.2017 04:52 -1,1 C 89 % 1019,3 hPa 0,0 l/m 11,2 km/h (2 Bft) NO 53 0 min 0,000 mm 0,0 UV-I 0 W/m -2,7 C -5,7 C 17,7 km/h (3 Bft) 100,00 %
08.02.2017 04:54 -1,1 C 89 % 1019,3 hPa 0,0 l/m 9,9 km/h (2 Bft) N-NO 33 0 min 0,000 mm 0,0 UV-I 0 W/m -2,7 C -4,6 C 14,5 km/h (3 Bft) 100,00 %
08.02.2017 04:56 -1,1 C 89 % 1019,4 hPa 0,0 l/m 10,8 km/h (2 Bft) NO 55 0 min 0,000 mm 0,0 UV-I 0 W/m -2,7 C -5,3 C 17,7 km/h (3 Bft) 100,00 %
08.02.2017 04:58 -1,2 C 89 % 1019,4 hPa 0,0 l/m 10,8 km/h (2 Bft) O-NO 69 0 min 0,000 mm 0,0 UV-I 0 W/m -2,8 C -5,4 C 14,5 km/h (3 Bft) 100,00 %
08.02.2017 05:00 -1,2 C 89 % 1019,4 hPa 0,0 l/m 11,2 km/h (2 Bft) NO 44 0 min 0,000 mm 0,0 UV-I 0 W/m -2,8 C -5,8 C 17,7 km/h (3 Bft) 97,56 %
08.02.2017 05:02 -1,2 C 89 % 1019,4 hPa 0,0 l/m 12,3 km/h (3 Bft) NO 36 0 min 0,000 mm 0,0 UV-I 0 W/m -2,8 C -6,6 C 17,7 km/h (3 Bft) 100,00 %
08.02.2017 05:04 -1,2 C 89 % 1019,4 hPa 0,0 l/m 11,6 km/h (2 Bft) N-NO 26 0 min 0,000 mm 0,0 UV-I 0 W/m -2,8 C -6,1 C 19,3 km/h (3 Bft) 96,00 %
08.02.2017 05:06 -1,2 C 88 % 1019,4 hPa 0,0 l/m 11,7 km/h (2 Bft) NO 39 0 min 0,000 mm 0,0 UV-I 0 W/m -2,9 C -6,2 C 16,1 km/h (3 Bft) 98,08 %
08.02.2017 05:08 -1,2 C 89 % 1019,5 hPa 0,0 l/m 10,4 km/h (2 Bft) NO 38 0 min 0,000 mm 0,0 UV-I 0 W/m -2,8 C -5,1 C 19,3 km/h (3 Bft) 100,00 %
08.02.2017 05:10 -1,2 C 89 % 1019,5 hPa 0,0 l/m 11,6 km/h (2 Bft) NO 44 0 min 0,000 mm 0,0 UV-I 0 W/m -2,8 C -6,1 C 17,7 km/h (3 Bft) 97,56 %
08.02.2017 05:12 -1,2 C 89 % 1019,4 hPa 0,0 l/m 11,1 km/h (2 Bft) NO 53 0 min 0,000 mm 0,0 UV-I 0 W/m -2,8 C -5,7 C 17,7 km/h (3 Bft) 100,00 %
08.02.2017 05:14 -1,2 C 88 % 1019,4 hPa 0,0 l/m 13,0 km/h (3 Bft) O-NO 76 0 min 0,000 mm 0,0 UV-I 0 W/m -2,9 C -7,1 C 17,7 km/h (3 Bft) 96,23 %
08.02.2017 05:16 -1,2 C 88 % 1019,4 hPa 0,0 l/m 11,9 km/h (2 Bft) NO 42 0 min 0,000 mm 0,0 UV-I 0 W/m -2,9 C -6,3 C 17,7 km/h (3 Bft) 100,00 %
08.02.2017 05:18 -1,2 C 88 % 1019,4 hPa 0,0 l/m 13,7 km/h (3 Bft) O-NO 73 0 min 0,000 mm 0,0 UV-I 0 W/m -2,9 C -7,6 C 19,3 km/h (3 Bft) 98,11 %
08.02.2017 05:20 -1,2 C 88 % 1019,5 hPa 0,0 l/m 13,5 km/h (3 Bft) O-NO 61 0 min 0,000 mm 0,0 UV-I 0 W/m -2,9 C -7,5 C 20,9 km/h (4 Bft) 98,11 %
08.02.2017 05:22 -1,2 C 88 % 1019,4 hPa 0,0 l/m 14,8 km/h (3 Bft) O-NO 64 0 min 0,000 mm 0,0 UV-I 0 W/m -2,9 C -8,3 C 20,9 km/h (4 Bft) 100,00 %
08.02.2017 05:24 -1,2 C 88 % 1019,3 hPa 0,0 l/m 15,3 km/h (3 Bft) O-NO 72 0 min 0,000 mm 0,0 UV-I 0 W/m -2,9 C -8,6 C 22,5 km/h (4 Bft) 98,11 %
08.02.2017 05:26 -1,2 C 89 % 1019,3 hPa 0,0 l/m 15,1 km/h (3 Bft) O 80 0 min 0,000 mm 0,0 UV-I 0 W/m -2,8 C -8,5 C 19,3 km/h (3 Bft) 100,00 %
08.02.2017 05:28 -1,2 C 89 % 1019,4 hPa 0,0 l/m 14,9 km/h (3 Bft) O-NO 69 0 min 0,000 mm 0,0 UV-I 0 W/m -2,8 C -8,4 C 19,3 km/h (3 Bft) 98,11 %
08.02.2017 05:30 -1,2 C 88 % 1019,4 hPa 0,0 l/m 16,3 km/h (3 Bft) O-NO 65 0 min 0,000 mm 0,0 UV-I 0 W/m -2,9 C -9,2 C 20,9 km/h (4 Bft) 97,73 %
08.02.2017 05:32 -1,2 C 88 % 1019,4 hPa 0,0 l/m 16,4 km/h (3 Bft) O 80 0 min 0,000 mm 0,0 UV-I 0 W/m -2,9 C -9,3 C 22,5 km/h (4 Bft) 100,00 %
08.02.2017 05:34 -1,2 C 88 % 1019,5 hPa 0,0 l/m 12,8 km/h (3 Bft) O 82 0 min 0,000 mm 0,0 UV-I 0 W/m -2,9 C -7,0 C 20,9 km/h (4 Bft) 98,00 %
08.02.2017 05:36 -1,2 C 88 % 1019,4 hPa 0,0 l/m 15,0 km/h (3 Bft) O-NO 69 0 min 0,000 mm 0,0 UV-I 0 W/m -2,9 C -8,4 C 22,5 km/h (4 Bft) 100,00 %
08.02.2017 05:38 -1,2 C 88 % 1019,5 hPa 0,0 l/m 16,1 km/h (3 Bft) O-NO 67 0 min 0,000 mm 0,0 UV-I 0 W/m -2,9 C -9,1 C 24,1 km/h (4 Bft) 96,23 %
08.02.2017 05:40 -1,2 C 88 % 1019,5 hPa 0,0 l/m 14,1 km/h (3 Bft) NO 50 0 min 0,000 mm 0,0 UV-I 0 W/m -2,9 C -7,9 C 19,3 km/h (3 Bft) 94,87 %
08.02.2017 05:42 -1,2 C 88 % 1019,6 hPa 0,0 l/m 13,4 km/h (3 Bft) NO 53 0 min 0,000 mm 0,0 UV-I 0 W/m -2,9 C -7,4 C 20,9 km/h (4 Bft) 95,92 %
08.02.2017 05:44 -1,2 C 88 % 1019,6 hPa 0,0 l/m 10,4 km/h (2 Bft) NO 54 0 min 0,000 mm 0,0 UV-I 0 W/m -2,9 C -5,1 C 16,1 km/h (3 Bft) 96,23 %
08.02.2017 05:46 -1,2 C 88 % 1019,6 hPa 0,0 l/m 10,8 km/h (2 Bft) NO 56 0 min 0,000 mm 0,0 UV-I 0 W/m -2,9 C -5,4 C 16,1 km/h (3 Bft) 97,44 %
08.02.2017 05:48 -1,3 C 88 % 1019,7 hPa 0,0 l/m 11,7 km/h (2 Bft) N-NO 29 0 min 0,000 mm 0,0 UV-I 0 W/m -3,0 C -6,3 C 16,1 km/h (3 Bft) 95,74 %
08.02.2017 05:50 -1,3 C 88 % 1019,8 hPa 0,0 l/m 11,8 km/h (2 Bft) NO 40 0 min 0,000 mm 0,0 UV-I 0 W/m -3,0 C -6,3 C 16,1 km/h (3 Bft) 95,74 %
08.02.2017 05:52 -1,3 C 88 % 1019,8 hPa 0,0 l/m 8,4 km/h (2 Bft) NO 42 0 min 0,000 mm 0,0 UV-I 0 W/m -3,0 C -3,4 C 11,3 km/h (2 Bft) 98,11 %
08.02.2017 05:54 -1,3 C 88 % 1019,8 hPa 0,0 l/m 9,0 km/h (2 Bft) NO 43 0 min 0,000 mm 0,0 UV-I 0 W/m -3,0 C -4,0 C 16,1 km/h (3 Bft) 97,37 %
08.02.2017 05:56 -1,4 C 89 % 1019,8 hPa 0,0 l/m 9,3 km/h (2 Bft) NO 51 0 min 0,000 mm 0,0 UV-I 0 W/m -3,0 C -4,4 C 17,7 km/h (3 Bft) 96,43 %
08.02.2017 05:58 -1,4 C 89 % 1019,9 hPa 0,0 l/m 11,9 km/h (2 Bft) NO 51 0 min 0,000 mm 0,0 UV-I 0 W/m -3,0 C -6,5 C 19,3 km/h (3 Bft) 97,56 %
08.02.2017 06:00 -1,4 C 89 % 1019,9 hPa 0,0 l/m 12,4 km/h (3 Bft) O-NO 60 0 min 0,000 mm 0,0 UV-I 0 W/m -3,0 C -6,9 C 19,3 km/h (3 Bft) 95,45 %
08.02.2017 06:02 -1,4 C 89 % 1019,9 hPa 0,0 l/m 10,7 km/h (2 Bft) NO 35 0 min 0,000 mm 0,0 UV-I 0 W/m -3,0 C -5,6 C 16,1 km/h (3 Bft) 97,87 %
08.02.2017 06:04 -1,4 C 89 % 1020,0 hPa 0,0 l/m 11,5 km/h (2 Bft) NO 52 0 min 0,000 mm 0,0 UV-I 0 W/m -3,0 C -6,2 C 16,1 km/h (3 Bft) 94,00 %
08.02.2017 06:06 -1,4 C 90 % 1019,9 hPa 0,0 l/m 9,5 km/h (2 Bft) NO 56 0 min 0,000 mm 0,0 UV-I 0 W/m -2,8 C -4,6 C 16,1 km/h (3 Bft) 94,34 %
08.02.2017 06:08 -1,4 C 90 % 1020,0 hPa 0,0 l/m 9,5 km/h (2 Bft) O-NO 63 0 min 0,000 mm 0,0 UV-I 0 W/m -2,8 C -4,6 C 16,1 km/h (3 Bft) 97,37 %
08.02.2017 06:10 -1,4 C 90 % 1020,0 hPa 0,0 l/m 9,6 km/h (2 Bft) NO 55 0 min 0,000 mm 0,0 UV-I 0 W/m -2,8 C -4,6 C 17,7 km/h (3 Bft) 98,00 %
08.02.2017 06:12 -1,4 C 89 % 1020,0 hPa 0,0 l/m 11,3 km/h (2 Bft) O-NO 74 0 min 0,000 mm 0,0 UV-I 0 W/m -3,0 C -6,1 C 19,3 km/h (3 Bft) 95,12 %
08.02.2017 06:14 -1,4 C 90 % 1020,1 hPa 0,0 l/m 9,1 km/h (2 Bft) O-NO 66 0 min 0,000 mm 0,0 UV-I 0 W/m -2,8 C -4,2 C 14,5 km/h (3 Bft) 98,11 %
08.02.2017 06:16 -1,4 C 90 % 1020,1 hPa 0,0 l/m 8,4 km/h (2 Bft) NO 43 0 min 0,000 mm 0,0 UV-I 0 W/m -2,8 C -3,5 C 14,5 km/h (3 Bft) 100,00 %
08.02.2017 06:18 -1,4 C 90 % 1020,1 hPa 0,0 l/m 7,4 km/h (2 Bft) N 5 0 min 0,000 mm 0,0 UV-I 0 W/m -2,8 C -2,5 C 9,7 km/h (2 Bft) 97,37 %
08.02.2017 06:20 -1,4 C 90 % 1020,1 hPa 0,0 l/m 8,3 km/h (2 Bft) O-NO 64 0 min 0,000 mm 0,0 UV-I 0 W/m -2,8 C -3,4 C 12,9 km/h (3 Bft) 89,36 %
08.02.2017 06:22 -1,4 C 90 % 1020,2 hPa 0,0 l/m 8,6 km/h (2 Bft) O-NO 61 0 min 0,000 mm 0,0 UV-I 0 W/m -2,8 C -3,7 C 14,5 km/h (3 Bft) 94,34 %
08.02.2017 06:24 -1,4 C 90 % 1020,3 hPa 0,0 l/m 9,3 km/h (2 Bft) NO 53 0 min 0,000 mm 0,0 UV-I 0 W/m -2,8 C -4,4 C 14,5 km/h (3 Bft) 94,87 %
08.02.2017 06:26 -1,4 C 90 % 1020,3 hPa 0,0 l/m 8,2 km/h (2 Bft) O-NO 74 0 min 0,000 mm 0,0 UV-I 0 W/m -2,8 C -3,3 C 12,9 km/h (3 Bft) 96,43 %
08.02.2017 06:28 -1,4 C 90 % 1020,3 hPa 0,0 l/m 7,9 km/h (2 Bft) O-NO 63 0 min 0,000 mm 0,0 UV-I 0 W/m -2,8 C -3,0 C 12,9 km/h (3 Bft) 95,56 %
08.02.2017 06:30 -1,4 C 90 % 1020,3 hPa 0,0 l/m 8,7 km/h (2 Bft) O-NO 70 0 min 0,000 mm 0,0 UV-I 0 W/m -2,8 C -3,8 C 16,1 km/h (3 Bft) 95,12 %
08.02.2017 06:32 -1,4 C 90 % 1020,3 hPa 0,0 l/m 10,6 km/h (2 Bft) NO 54 0 min 0,000 mm 0,0 UV-I 0 W/m -2,8 C -5,5 C 14,5 km/h (3 Bft) 98,00 %
08.02.2017 06:34 -1,4 C 90 % 1020,4 hPa 0,0 l/m 9,4 km/h (2 Bft) NO 55 0 min 0,000 mm 0,0 UV-I 0 W/m -2,8 C -4,5 C 14,5 km/h (3 Bft) 97,87 %
08.02.2017 06:36 -1,4 C 90 % 1020,4 hPa 0,0 l/m 8,0 km/h (2 Bft) O-NO 71 0 min 0,000 mm 0,0 UV-I 0 W/m -2,8 C -3,1 C 12,9 km/h (3 Bft) 96,23 %
08.02.2017 06:38 -1,4 C 90 % 1020,5 hPa 0,0 l/m 7,7 km/h (2 Bft) O-NO 59 0 min 0,000 mm 0,0 UV-I 0 W/m -2,8 C -2,8 C 9,7 km/h (2 Bft) 100,00 %
08.02.2017 06:40 -1,4 C 90 % 1020,5 hPa 0,0 l/m 9,0 km/h (2 Bft) NO 52 0 min 0,000 mm 0,0 UV-I 0 W/m -2,8 C -4,1 C 12,9 km/h (3 Bft) 94,34 %
08.02.2017 06:42 -1,4 C 90 % 1020,5 hPa 0,0 l/m 7,5 km/h (2 Bft) O-NO 73 0 min 0,000 mm 0,0 UV-I 0 W/m -2,8 C -2,6 C 14,5 km/h (3 Bft) 95,74 %
08.02.2017 06:44 -1,4 C 90 % 1020,5 hPa 0,0 l/m 7,9 km/h (2 Bft) O-NO 67 0 min 0,000 mm 0,0 UV-I 0 W/m -2,8 C -3,0 C 9,7 km/h (2 Bft) 92,68 %
08.02.2017 06:46 -1,4 C 90 % 1020,6 hPa 0,0 l/m 6,4 km/h (2 Bft) O-NO 61 0 min 0,000 mm 0,0 UV-I 0 W/m -2,8 C -1,4 C 9,7 km/h (2 Bft) 97,73 %
08.02.2017 06:48 -1,4 C 90 % 1020,6 hPa 0,0 l/m 8,7 km/h (2 Bft) NO 49 0 min 0,000 mm 0,0 UV-I 0 W/m -2,8 C -3,8 C 14,5 km/h (3 Bft) 97,87 %
08.02.2017 06:50 -1,4 C 90 % 1020,6 hPa 0,0 l/m 7,7 km/h (2 Bft) O-NO 67 0 min 0,000 mm 0,0 UV-I 0 W/m -2,8 C -2,8 C 12,9 km/h (3 Bft) 98,00 %
08.02.2017 06:52 -1,4 C 90 % 1020,7 hPa 0,0 l/m 8,8 km/h (2 Bft) NO 47 0 min 0,000 mm 0,0 UV-I 0 W/m -2,8 C -3,9 C 14,5 km/h (3 Bft) 95,12 %
08.02.2017 06:54 -1,4 C 90 % 1020,7 hPa 0,0 l/m 6,8 km/h (2 Bft) O-NO 66 0 min 0,000 mm 0,0 UV-I 0 W/m -2,8 C -1,8 C 9,7 km/h (2 Bft) 92,86 %
08.02.2017 06:56 -1,4 C 90 % 1020,7 hPa 0,0 l/m 8,6 km/h (2 Bft) O-NO 63 0 min 0,000 mm 0,0 UV-I 0 W/m -2,8 C -3,7 C 12,9 km/h (3 Bft) 92,11 %
08.02.2017 06:58 -1,4 C 90 % 1020,7 hPa 0,0 l/m 6,4 km/h (2 Bft) O-NO 58 0 min 0,000 mm 0,0 UV-I 0 W/m -2,8 C -1,4 C 12,9 km/h (3 Bft) 98,21 %
08.02.2017 07:00 -1,4 C 90 % 1020,8 hPa 0,0 l/m 7,2 km/h (2 Bft) NO 54 0 min 0,000 mm 0,0 UV-I 0 W/m -2,8 C -2,3 C 12,9 km/h (3 Bft) 96,00 %
08.02.2017 07:02 -1,4 C 90 % 1020,8 hPa 0,0 l/m 7,2 km/h (2 Bft) NO 51 0 min 0,000 mm 0,0 UV-I 0 W/m -2,8 C -2,3 C 9,7 km/h (2 Bft) 97,87 %
08.02.2017 07:04 -1,4 C 90 % 1020,8 hPa 0,0 l/m 9,0 km/h (2 Bft) NO 49 0 min 0,000 mm 0,0 UV-I 0 W/m -2,8 C -4,1 C 14,5 km/h (3 Bft) 92,86 %
08.02.2017 07:06 -1,4 C 90 % 1020,8 hPa 0,0 l/m 9,0 km/h (2 Bft) O-NO 59 0 min 0,000 mm 0,0 UV-I 0 W/m -2,8 C -4,1 C 14,5 km/h (3 Bft) 92,68 %
08.02.2017 07:08 -1,4 C 90 % 1020,8 hPa 0,0 l/m 7,2 km/h (2 Bft) O-NO 59 0 min 0,000 mm 0,0 UV-I 0 W/m -2,8 C -2,3 C 9,7 km/h (2 Bft) 94,00 %
08.02.2017 07:10 -1,3 C 90 % 1020,8 hPa 0,0 l/m 7,8 km/h (2 Bft) N-NO 15 0 min 0,000 mm 0,0 UV-I 0 W/m -2,7 C -2,8 C 12,9 km/h (3 Bft) 96,23 %
08.02.2017 07:13 -1,3 C 90 % 1020,8 hPa 0,0 l/m 8,3 km/h (2 Bft) O-NO 68 0 min 0,000 mm 0,0 UV-I 0 W/m -2,7 C -3,3 C 14,5 km/h (3 Bft) 86,57 %
08.02.2017 07:14 -1,3 C 90 % 1020,8 hPa 0,0 l/m 7,8 km/h (2 Bft) NO 55 0 min 0,000 mm 0,0 UV-I 5 W/m -2,7 C -2,8 C 11,3 km/h (2 Bft) 96,30 %
08.02.2017 07:16 -1,3 C 90 % 1020,8 hPa 0,0 l/m 7,4 km/h (2 Bft) NO 44 0 min 0,000 mm 0,0 UV-I 5 W/m -2,7 C -2,4 C 12,9 km/h (3 Bft) 80,85 %
08.02.2017 07:18 -1,3 C 90 % 1020,9 hPa 0,0 l/m 8,1 km/h (2 Bft) O-NO 59 0 min 0,000 mm 0,0 UV-I 5 W/m -2,7 C -3,1 C 14,5 km/h (3 Bft) 78,95 %
08.02.2017 07:20 -1,3 C 90 % 1020,9 hPa 0,0 l/m 9,3 km/h (2 Bft) O-NO 69 0 min 0,000 mm 0,0 UV-I 5 W/m -2,7 C -4,3 C 14,5 km/h (3 Bft) 86,79 %
08.02.2017 07:22 -1,3 C 90 % 1020,9 hPa 0,0 l/m 9,5 km/h (2 Bft) NO 44 0 min 0,000 mm 0,0 UV-I 5 W/m -2,7 C -4,4 C 14,5 km/h (3 Bft) 96,00 %
08.02.2017 07:24 -1,3 C 90 % 1020,9 hPa 0,0 l/m 9,7 km/h (2 Bft) O-NO 68 0 min 0,000 mm 0,0 UV-I 5 W/m -2,7 C -4,6 C 14,5 km/h (3 Bft) 96,15 %
08.02.2017 07:26 -1,3 C 90 % 1020,9 hPa 0,0 l/m 11,3 km/h (2 Bft) NO 50 0 min 0,000 mm 0,0 UV-I 6 W/m -2,7 C -6,0 C 16,1 km/h (3 Bft) 98,53 %
08.02.2017 07:28 -1,3 C 89 % 1021,0 hPa 0,0 l/m 10,4 km/h (2 Bft) NO 34 0 min 0,000 mm 0,0 UV-I 7 W/m -2,9 C -5,2 C 16,1 km/h (3 Bft) 93,18 %
08.02.2017 07:30 -1,3 C 89 % 1021,0 hPa 0,0 l/m 9,6 km/h (2 Bft) O-NO 57 0 min 0,000 mm 0,0 UV-I 7 W/m -2,9 C -4,5 C 16,1 km/h (3 Bft) 98,00 %
08.02.2017 07:32 -1,3 C 89 % 1021,0 hPa 0,0 l/m 10,9 km/h (2 Bft) O-NO 57 0 min 0,000 mm 0,0 UV-I 7 W/m -2,9 C -5,6 C 16,1 km/h (3 Bft) 80,00 %
08.02.2017 07:34 -1,3 C 89 % 1021,0 hPa 0,0 l/m 10,8 km/h (2 Bft) O-NO 57 0 min 0,000 mm 0,0 UV-I 9 W/m -2,9 C -5,6 C 14,5 km/h (3 Bft) 94,00 %
08.02.2017 07:36 -1,3 C 89 % 1021,0 hPa 0,0 l/m 7,9 km/h (2 Bft) O-NO 59 0 min 0,000 mm 0,0 UV-I 9 W/m -2,9 C -2,9 C 14,5 km/h (3 Bft) 98,00 %
08.02.2017 07:38 -1,3 C 89 % 1021,0 hPa 0,0 l/m 9,3 km/h (2 Bft) NO 49 0 min 0,000 mm 0,0 UV-I 9 W/m -2,9 C -4,3 C 16,1 km/h (3 Bft) 95,12 %
08.02.2017 07:40 -1,3 C 89 % 1021,0 hPa 0,0 l/m 9,1 km/h (2 Bft) O-NO 58 0 min 0,000 mm 0,0 UV-I 11 W/m -2,9 C -4,1 C 14,5 km/h (3 Bft) 96,23 %
08.02.2017 07:42 -1,2 C 89 % 1021,1 hPa 0,0 l/m 10,0 km/h (2 Bft) O-NO 66 0 min 0,000 mm 0,0 UV-I 11 W/m -2,8 C -4,8 C 19,3 km/h (3 Bft) 93,33 %
08.02.2017 07:44 -1,3 C 89 % 1021,1 hPa 0,0 l/m 13,2 km/h (3 Bft) O-NO 57 0 min 0,000 mm 0,0 UV-I 12 W/m -2,9 C -7,4 C 17,7 km/h (3 Bft) 94,37 %
08.02.2017 07:46 -1,3 C 89 % 1021,0 hPa 0,0 l/m 12,7 km/h (3 Bft) O-NO 72 0 min 0,000 mm 0,0 UV-I 12 W/m -2,9 C -7,0 C 19,3 km/h (3 Bft) 94,34 %
08.02.2017 07:48 -1,2 C 89 % 1021,1 hPa 0,0 l/m 12,6 km/h (3 Bft) NO 53 0 min 0,000 mm 0,0 UV-I 12 W/m -2,8 C -6,8 C 17,7 km/h (3 Bft) 89,47 %
08.02.2017 07:50 -1,2 C 89 % 1021,2 hPa 0,0 l/m 9,1 km/h (2 Bft) NO 53 0 min 0,000 mm 0,0 UV-I 12 W/m -2,8 C -4,0 C 14,5 km/h (3 Bft) 94,64 %
08.02.2017 07:52 -1,2 C 89 % 1021,2 hPa 0,0 l/m 11,0 km/h (2 Bft) O-NO 61 0 min 0,000 mm 0,0 UV-I 12 W/m -2,8 C -5,6 C 17,7 km/h (3 Bft) 92,68 %
08.02.2017 07:54 -1,2 C 89 % 1021,2 hPa 0,0 l/m 8,8 km/h (2 Bft) NO 50 0 min 0,000 mm 0,0 UV-I 12 W/m -2,8 C -3,7 C 14,5 km/h (3 Bft) 96,43 %
08.02.2017 07:56 -1,2 C 89 % 1021,2 hPa 0,0 l/m 10,6 km/h (2 Bft) NO 51 0 min 0,000 mm 0,0 UV-I 13 W/m -2,8 C -5,3 C 16,1 km/h (3 Bft) 94,74 %
08.02.2017 07:58 -1,2 C 89 % 1021,3 hPa 0,0 l/m 10,1 km/h (2 Bft) O-NO 57 0 min 0,000 mm 0,0 UV-I 14 W/m -2,8 C -4,9 C 16,1 km/h (3 Bft) 94,92 %
08.02.2017 08:00 -1,2 C 89 % 1021,3 hPa 0,0 l/m 11,8 km/h (2 Bft) O-NO 66 0 min 0,000 mm 0,0 UV-I 15 W/m -2,8 C -6,2 C 16,1 km/h (3 Bft) 94,74 %
08.02.2017 08:02 -1,2 C 89 % 1021,3 hPa 0,0 l/m 9,9 km/h (2 Bft) O-NO 57 0 min 0,000 mm 0,0 UV-I 16 W/m -2,8 C -4,7 C 16,1 km/h (3 Bft) 94,34 %
08.02.2017 08:04 -1,2 C 89 % 1021,3 hPa 0,0 l/m 10,7 km/h (2 Bft) O-NO 69 0 min 0,000 mm 0,0 UV-I 18 W/m -2,8 C -5,4 C 16,1 km/h (3 Bft) 95,45 %
08.02.2017 08:06 -1,2 C 89 % 1021,3 hPa 0,0 l/m 10,6 km/h (2 Bft) NO 50 0 min 0,000 mm 0,0 UV-I 18 W/m -2,8 C -5,3 C 16,1 km/h (3 Bft) 95,12 %
08.02.2017 08:08 -1,2 C 89 % 1021,3 hPa 0,0 l/m 10,0 km/h (2 Bft) NO 55 0 min 0,000 mm 0,0 UV-I 20 W/m -2,8 C -4,8 C 16,1 km/h (3 Bft) 85,71 %
08.02.2017 08:10 -1,2 C 89 % 1021,3 hPa 0,0 l/m 8,9 km/h (2 Bft) NO 51 0 min 0,000 mm 0,0 UV-I 22 W/m -2,8 C -3,8 C 14,5 km/h (3 Bft) 89,47 %
08.02.2017 08:12 -1,2 C 89 % 1021,4 hPa 0,0 l/m 11,5 km/h (2 Bft) O-NO 69 0 min 0,000 mm 0,0 UV-I 23 W/m -2,8 C -6,0 C 16,1 km/h (3 Bft) 94,34 %
08.02.2017 08:14 -1,2 C 89 % 1021,4 hPa 0,0 l/m 9,4 km/h (2 Bft) NO 53 0 min 0,000 mm 0,0 UV-I 25 W/m -2,8 C -4,2 C 14,5 km/h (3 Bft) 95,12 %
08.02.2017 08:16 -1,2 C 89 % 1021,4 hPa 0,0 l/m 9,0 km/h (2 Bft) NO 46 0 min 0,000 mm 0,0 UV-I 26 W/m -2,8 C -3,9 C 14,5 km/h (3 Bft) 94,00 %
08.02.2017 08:18 -1,1 C 89 % 1021,4 hPa 0,0 l/m 9,9 km/h (2 Bft) NO 46 0 min 0,000 mm 0,0 UV-I 30 W/m -2,7 C -4,6 C 14,5 km/h (3 Bft) 94,34 %
08.02.2017 08:20 -1,1 C 89 % 1021,4 hPa 0,0 l/m 10,1 km/h (2 Bft) NO 53 0 min 0,000 mm 0,0 UV-I 34 W/m -2,7 C -4,8 C 16,1 km/h (3 Bft) 95,12 %
08.02.2017 08:22 -1,1 C 89 % 1021,4 hPa 0,0 l/m 10,0 km/h (2 Bft) O 82 0 min 0,000 mm 0,0 UV-I 42 W/m -2,7 C -4,7 C 12,9 km/h (3 Bft) 97,78 %
08.02.2017 08:24 -1,1 C 89 % 1021,5 hPa 0,0 l/m 10,3 km/h (2 Bft) NO 47 0 min 0,000 mm 0,0 UV-I 48 W/m -2,7 C -4,9 C 16,1 km/h (3 Bft) 96,15 %
08.02.2017 08:26 -1,1 C 88 % 1021,5 hPa 0,0 l/m 9,9 km/h (2 Bft) NO 55 0 min 0,000 mm 0,0 UV-I 56 W/m -2,8 C -4,6 C 17,7 km/h (3 Bft) 95,83 %
08.02.2017 08:28 -1,1 C 88 % 1021,5 hPa 0,0 l/m 10,8 km/h (2 Bft) NO 46 0 min 0,000 mm 0,0 UV-I 60 W/m -2,8 C -5,3 C 14,5 km/h (3 Bft) 97,37 %
08.02.2017 08:30 -1,1 C 88 % 1021,4 hPa 0,0 l/m 8,9 km/h (2 Bft) O-NO 64 0 min 0,000 mm 0,0 UV-I 59 W/m -2,8 C -3,7 C 14,5 km/h (3 Bft) 98,00 %
08.02.2017 08:32 -1,1 C 88 % 1021,5 hPa 0,0 l/m 8,2 km/h (2 Bft) O-NO 68 0 min 0,000 mm 0,0 UV-I 56 W/m -2,8 C -3,0 C 12,9 km/h (3 Bft) 83,02 %
08.02.2017 08:34 -1,0 C 88 % 1021,5 hPa 0,0 l/m 8,5 km/h (2 Bft) NO 49 0 min 0,000 mm 0,0 UV-I 56 W/m -2,7 C -3,2 C 14,5 km/h (3 Bft) 97,73 %
08.02.2017 08:36 -1,0 C 88 % 1021,5 hPa 0,0 l/m 8,0 km/h (2 Bft) O-NO 57 0 min 0,000 mm 0,0 UV-I 57 W/m -2,7 C -2,7 C 14,5 km/h (3 Bft) 94,00 %
08.02.2017 08:38 -1,0 C 88 % 1021,6 hPa 0,0 l/m 7,4 km/h (2 Bft) N-NO 30 0 min 0,000 mm 0,0 UV-I 61 W/m -2,7 C -2,1 C 12,9 km/h (3 Bft) 95,12 %
08.02.2017 08:40 -1,0 C 88 % 1021,6 hPa 0,0 l/m 9,2 km/h (2 Bft) N-NO 17 0 min 0,000 mm 0,0 UV-I 64 W/m -2,7 C -3,8 C 16,1 km/h (3 Bft) 92,45 %
08.02.2017 08:42 -0,9 C 88 % 1021,6 hPa 0,0 l/m 8,4 km/h (2 Bft) O-NO 58 0 min 0,000 mm 0,0 UV-I 67 W/m -2,6 C -3,0 C 11,3 km/h (2 Bft) 97,56 %
08.02.2017 08:44 -0,9 C 88 % 1021,6 hPa 0,0 l/m 9,1 km/h (2 Bft) NO 41 0 min 0,000 mm 0,0 UV-I 70 W/m -2,6 C -3,6 C 14,5 km/h (3 Bft) 90,00 %
08.02.2017 08:46 -0,9 C 87 % 1021,6 hPa 0,0 l/m 11,9 km/h (2 Bft) NO 49 0 min 0,000 mm 0,0 UV-I 71 W/m -2,8 C -6,0 C 17,7 km/h (3 Bft) 85,37 %
08.02.2017 08:48 -0,9 C 87 % 1021,6 hPa 0,0 l/m 7,8 km/h (2 Bft) NO 49 0 min 0,000 mm 0,0 UV-I 73 W/m -2,8 C -2,4 C 12,9 km/h (3 Bft) 95,74 %
08.02.2017 08:50 -0,9 C 87 % 1021,7 hPa 0,0 l/m 10,7 km/h (2 Bft) O-NO 59 0 min 0,000 mm 0,0 UV-I 74 W/m -2,8 C -5,0 C 16,1 km/h (3 Bft) 94,64 %
08.02.2017 08:52 -0,9 C 87 % 1021,8 hPa 0,0 l/m 12,6 km/h (3 Bft) NO 49 0 min 0,000 mm 0,0 UV-I 76 W/m -2,8 C -6,5 C 17,7 km/h (3 Bft) 86,84 %
08.02.2017 08:54 -0,9 C 87 % 1021,7 hPa 0,0 l/m 9,9 km/h (2 Bft) O-NO 60 0 min 0,000 mm 0,0 UV-I 77 W/m -2,8 C -4,4 C 14,5 km/h (3 Bft) 85,37 %
08.02.2017 08:56 -0,9 C 87 % 1021,8 hPa 0,0 l/m 11,0 km/h (2 Bft) O-NO 73 0 min 0,000 mm 0,0 UV-I 77 W/m -2,8 C -5,3 C 16,1 km/h (3 Bft) 98,21 %
08.02.2017 08:58 -0,8 C 87 % 1021,8 hPa 0,0 l/m 11,4 km/h (2 Bft) O-NO 62 0 min 0,000 mm 0,0 UV-I 78 W/m -2,7 C -5,5 C 17,7 km/h (3 Bft) 96,00 %
08.02.2017 09:00 -0,8 C 87 % 1021,8 hPa 0,0 l/m 9,7 km/h (2 Bft) NO 50 0 min 0,025 mm 0,0 UV-I 79 W/m -2,7 C -4,1 C 14,5 km/h (3 Bft) 97,73 %
08.02.2017 09:02 -0,8 C 87 % 1021,9 hPa 0,0 l/m 8,9 km/h (2 Bft) O-NO 61 0 min 0,000 mm 0,0 UV-I 81 W/m -2,7 C -3,4 C 14,5 km/h (3 Bft) 95,74 %
08.02.2017 09:04 -0,8 C 87 % 1021,9 hPa 0,0 l/m 10,1 km/h (2 Bft) NO 52 0 min 0,000 mm 0,0 UV-I 83 W/m -2,7 C -4,4 C 14,5 km/h (3 Bft) 95,24 %
08.02.2017 09:06 -0,8 C 87 % 1021,9 hPa 0,0 l/m 9,6 km/h (2 Bft) O-NO 57 0 min 0,000 mm 0,0 UV-I 86 W/m -2,7 C -4,0 C 14,5 km/h (3 Bft) 90,57 %
08.02.2017 09:08 -0,8 C 87 % 1021,8 hPa 0,0 l/m 11,1 km/h (2 Bft) O-NO 57 0 min 0,000 mm 0,0 UV-I 89 W/m -2,7 C -5,2 C 17,7 km/h (3 Bft) 70,73 %
08.02.2017 09:10 -0,8 C 87 % 1021,9 hPa 0,0 l/m 11,3 km/h (2 Bft) O-NO 61 0 min 0,000 mm 0,0 UV-I 90 W/m -2,7 C -5,4 C 16,1 km/h (3 Bft) 90,57 %
08.02.2017 09:12 -0,8 C 87 % 1021,9 hPa 0,0 l/m 9,8 km/h (2 Bft) O-NO 71 0 min 0,000 mm 0,0 UV-I 90 W/m -2,7 C -4,2 C 14,5 km/h (3 Bft) 98,00 %
08.02.2017 09:14 -0,8 C 87 % 1021,9 hPa 0,0 l/m 15,2 km/h (3 Bft) NO 42 0 min 0,000 mm 0,0 UV-I 87 W/m -2,7 C -8,1 C 19,3 km/h (3 Bft) 93,62 %
08.02.2017 09:16 -0,8 C 87 % 1021,9 hPa 0,0 l/m 13,9 km/h (3 Bft) NO 41 0 min 0,000 mm 0,0 UV-I 85 W/m -2,7 C -7,2 C 19,3 km/h (3 Bft) 97,87 %
08.02.2017 09:18 -0,7 C 87 % 1021,9 hPa 0,0 l/m 13,3 km/h (3 Bft) O-NO 61 0 min 0,000 mm 0,0 UV-I 84 W/m -2,6 C -6,7 C 19,3 km/h (3 Bft) 93,62 %
08.02.2017 09:20 -0,7 C 87 % 1021,9 hPa 0,0 l/m 11,9 km/h (2 Bft) N-NO 29 0 min 0,000 mm 0,0 UV-I 83 W/m -2,6 C -5,7 C 17,7 km/h (3 Bft) 100,00 %
08.02.2017 09:22 -0,7 C 87 % 1021,9 hPa 0,0 l/m 13,2 km/h (3 Bft) NO 36 0 min 0,000 mm 0,0 UV-I 82 W/m -2,6 C -6,7 C 19,3 km/h (3 Bft) 100,00 %
08.02.2017 09:24 -0,7 C 87 % 1021,9 hPa 0,0 l/m 14,0 km/h (3 Bft) N-NO 26 0 min 0,000 mm 0,0 UV-I 81 W/m -2,6 C -7,2 C 19,3 km/h (3 Bft) 92,00 %
08.02.2017 09:26 -0,7 C 87 % 1021,9 hPa 0,0 l/m 10,2 km/h (2 Bft) NO 41 0 min 0,000 mm 0,0 UV-I 79 W/m -2,6 C -4,4 C 17,7 km/h (3 Bft) 92,45 %
08.02.2017 09:28 -0,7 C 87 % 1022,0 hPa 0,0 l/m 8,4 km/h (2 Bft) O-NO 65 0 min 0,000 mm 0,0 UV-I 81 W/m -2,6 C -2,8 C 14,5 km/h (3 Bft) 91,49 %
08.02.2017 09:30 -0,7 C 87 % 1022,0 hPa 0,0 l/m 10,7 km/h (2 Bft) NO 53 0 min 0,000 mm 0,0 UV-I 81 W/m -2,6 C -4,8 C 16,1 km/h (3 Bft) 92,00 %
08.02.2017 09:32 -0,7 C 86 % 1022,0 hPa 0,0 l/m 9,2 km/h (2 Bft) NO 50 0 min 0,000 mm 0,0 UV-I 84 W/m -2,7 C -3,5 C 14,5 km/h (3 Bft) 98,00 %
08.02.2017 09:34 -0,6 C 87 % 1022,0 hPa 0,0 l/m 12,5 km/h (3 Bft) NO 52 0 min 0,000 mm 0,0 UV-I 89 W/m -2,5 C -6,1 C 16,1 km/h (3 Bft) 97,37 %
08.02.2017 09:35 -0,6 C 87 % 1022,0 hPa 0,0 l/m 9,7 km/h (2 Bft) NO 45 0 min 0,000 mm 0,0 UV-I 88 W/m -2,5 C -3,9 C 16,1 km/h (3 Bft) 94,74 %
08.02.2017 09:40 -0,6 C 86 % 1022,0 hPa 0,0 l/m 9,7 km/h (2 Bft) NO 45 0 min 0,000 mm 0,0 UV-I 94 W/m -2,6 C -3,9 C 16,1 km/h (3 Bft) 92,98 %
08.02.2017 09:44 -0,5 C 86 % 1022,1 hPa 0,0 l/m 7,6 km/h (2 Bft) NO 36 0 min 0,000 mm 0,0 UV-I 100 W/m -2,5 C -1,8 C 8,0 km/h (2 Bft) 100,00 %
08.02.2017 09:46 -0,5 C 86 % 1022,1 hPa 0,0 l/m 11,2 km/h (2 Bft) NO 45 0 min 0,000 mm 0,0 UV-I 102 W/m -2,5 C -5,0 C 16,1 km/h (3 Bft) 82,54 %
08.02.2017 09:47 -0,5 C 86 % 1022,1 hPa 0,0 l/m 7,7 km/h (2 Bft) NO 34 0 min 0,000 mm 0,0 UV-I 107 W/m -2,5 C -1,9 C 14,5 km/h (3 Bft) 93,75 %
08.02.2017 09:50 -0,5 C 85 % 1022,1 hPa 0,0 l/m 9,9 km/h (2 Bft) O-NO 67 0 min 0,000 mm 0,0 UV-I 113 W/m -2,7 C -3,9 C 16,1 km/h (3 Bft) 92,31 %
08.02.2017 09:52 -0,5 C 85 % 1022,1 hPa 0,0 l/m 8,4 km/h (2 Bft) O-NO 57 0 min 0,000 mm 0,0 UV-I 117 W/m -2,7 C -2,6 C 14,5 km/h (3 Bft) 87,18 %
08.02.2017 09:54 -0,4 C 85 % 1022,1 hPa 0,0 l/m 11,6 km/h (2 Bft) NO 44 0 min 0,000 mm 0,0 UV-I 120 W/m -2,6 C -5,2 C 17,7 km/h (3 Bft) 89,66 %
08.02.2017 09:56 -0,4 C 85 % 1022,1 hPa 0,0 l/m 8,8 km/h (2 Bft) O-NO 57 0 min 0,000 mm 0,0 UV-I 123 W/m -2,6 C -2,8 C 12,9 km/h (3 Bft) 92,86 %
08.02.2017 09:58 -0,4 C 85 % 1022,2 hPa 0,0 l/m 10,3 km/h (2 Bft) O-NO 61 0 min 0,000 mm 0,0 UV-I 129 W/m -2,6 C -4,1 C 14,5 km/h (3 Bft) 90,91 %
08.02.2017 10:00 -0,4 C 85 % 1022,2 hPa 0,0 l/m 8,7 km/h (2 Bft) NO 52 0 min 0,051 mm 0,0 UV-I 137 W/m -2,6 C -2,7 C 14,5 km/h (3 Bft) 86,00 %
08.02.2017 10:02 -0,4 C 84 % 1022,2 hPa 0,0 l/m 8,6 km/h (2 Bft) NO 38 0 min 0,000 mm 0,0 UV-I 141 W/m -2,8 C -2,6 C 14,5 km/h (3 Bft) 89,36 %
08.02.2017 10:04 -0,4 C 84 % 1022,2 hPa 0,0 l/m 10,4 km/h (2 Bft) NO 40 0 min 0,000 mm 0,0 UV-I 144 W/m -2,8 C -4,2 C 16,1 km/h (3 Bft) 86,36 %
08.02.2017 10:06 -0,4 C 85 % 1022,2 hPa 0,0 l/m 9,3 km/h (2 Bft) NO 40 0 min 0,000 mm 0,0 UV-I 144 W/m -2,6 C -3,3 C 12,9 km/h (3 Bft) 94,34 %
08.02.2017 10:08 -0,4 C 85 % 1022,2 hPa 0,0 l/m 12,7 km/h (3 Bft) NO 47 0 min 0,000 mm 0,2 UV-I 144 W/m -2,6 C -6,0 C 17,7 km/h (3 Bft) 94,74 %
08.02.2017 10:10 -0,4 C 85 % 1022,2 hPa 0,0 l/m 9,5 km/h (2 Bft) NO 44 0 min 0,000 mm 0,5 UV-I 147 W/m -2,6 C -3,5 C 14,5 km/h (3 Bft) 96,00 %
08.02.2017 10:12 -0,4 C 85 % 1022,3 hPa 0,0 l/m 7,3 km/h (2 Bft) O-NO 61 0 min 0,000 mm 0,5 UV-I 151 W/m -2,6 C -1,3 C 9,7 km/h (2 Bft) 92,00 %
08.02.2017 10:14 -0,4 C 85 % 1022,2 hPa 0,0 l/m 6,7 km/h (2 Bft) NO 53 0 min 0,000 mm 0,5 UV-I 156 W/m -2,6 C -0,7 C 9,7 km/h (2 Bft) 94,00 %
08.02.2017 10:16 -0,4 C 85 % 1022,2 hPa 0,0 l/m 7,7 km/h (2 Bft) O-NO 60 0 min 0,000 mm 0,5 UV-I 161 W/m -2,6 C -1,8 C 12,9 km/h (3 Bft) 97,87 %
08.02.2017 10:18 -0,3 C 85 % 1022,2 hPa 0,0 l/m 11,4 km/h (2 Bft) NO 51 0 min 0,000 mm 0,5 UV-I 164 W/m -2,5 C -4,9 C 17,7 km/h (3 Bft) 97,37 %
08.02.2017 10:20 -0,3 C 85 % 1022,2 hPa 0,0 l/m 9,3 km/h (2 Bft) NO 40 0 min 0,000 mm 0,5 UV-I 165 W/m -2,5 C -3,2 C 17,7 km/h (3 Bft) 79,25 %
08.02.2017 10:22 -0,3 C 85 % 1022,3 hPa 0,0 l/m 13,4 km/h (3 Bft) NO 39 0 min 0,000 mm 0,5 UV-I 164 W/m -2,5 C -6,3 C 19,3 km/h (3 Bft) 94,74 %
08.02.2017 10:24 -0,3 C 86 % 1022,3 hPa 0,0 l/m 10,4 km/h (2 Bft) NO 44 0 min 0,000 mm 0,5 UV-I 162 W/m -2,3 C -4,1 C 14,5 km/h (3 Bft) 91,53 %
08.02.2017 10:26 -0,3 C 85 % 1022,3 hPa 0,0 l/m 13,3 km/h (3 Bft) NO 56 0 min 0,000 mm 0,5 UV-I 157 W/m -2,5 C -6,3 C 17,7 km/h (3 Bft) 91,49 %
08.02.2017 10:28 -0,3 C 85 % 1022,4 hPa 0,0 l/m 9,5 km/h (2 Bft) NO 45 0 min 0,000 mm 0,5 UV-I 155 W/m -2,5 C -3,4 C 14,5 km/h (3 Bft) 88,89 %
08.02.2017 10:30 -0,3 C 85 % 1022,4 hPa 0,0 l/m 9,3 km/h (2 Bft) O-NO 63 0 min 0,000 mm 0,5 UV-I 151 W/m -2,5 C -3,2 C 19,3 km/h (3 Bft) 84,00 %
08.02.2017 10:32 -0,3 C 85 % 1022,4 hPa 0,0 l/m 14,2 km/h (3 Bft) O-NO 61 0 min 0,000 mm 0,5 UV-I 148 W/m -2,5 C -6,8 C 17,7 km/h (3 Bft) 96,15 %
08.02.2017 10:34 -0,3 C 84 % 1022,5 hPa 0,0 l/m 13,5 km/h (3 Bft) O-NO 78 0 min 0,000 mm 0,5 UV-I 146 W/m -2,7 C -6,4 C 20,9 km/h (4 Bft) 86,76 %
08.02.2017 10:36 -0,3 C 85 % 1022,4 hPa 0,0 l/m 9,0 km/h (2 Bft) O-NO 59 0 min 0,000 mm 0,5 UV-I 144 W/m -2,5 C -2,9 C 16,1 km/h (3 Bft) 92,00 %
08.02.2017 10:38 -0,3 C 85 % 1022,4 hPa 0,0 l/m 10,1 km/h (2 Bft) O-NO 61 0 min 0,000 mm 0,5 UV-I 142 W/m -2,5 C -3,9 C 14,5 km/h (3 Bft) 97,56 %
08.02.2017 10:40 -0,3 C 85 % 1022,5 hPa 0,0 l/m 10,7 km/h (2 Bft) O-NO 61 0 min 0,000 mm 0,5 UV-I 142 W/m -2,5 C -4,4 C 16,1 km/h (3 Bft) 96,00 %
08.02.2017 10:42 -0,3 C 85 % 1022,5 hPa 0,0 l/m 9,0 km/h (2 Bft) O-NO 61 0 min 0,000 mm 0,6 UV-I 142 W/m -2,5 C -2,9 C 14,5 km/h (3 Bft) 95,12 %
08.02.2017 10:44 -0,3 C 85 % 1022,6 hPa 0,0 l/m 9,1 km/h (2 Bft) O-NO 57 0 min 0,000 mm 0,6 UV-I 144 W/m -2,5 C -3,0 C 14,5 km/h (3 Bft) 88,89 %
08.02.2017 10:46 -0,3 C 85 % 1022,6 hPa 0,0 l/m 9,7 km/h (2 Bft) O-NO 69 0 min 0,000 mm 0,6 UV-I 144 W/m -2,5 C -3,5 C 14,5 km/h (3 Bft) 95,56 %
08.02.2017 10:48 -0,3 C 85 % 1022,6 hPa 0,0 l/m 9,9 km/h (2 Bft) O-NO 78 0 min 0,000 mm 0,6 UV-I 144 W/m -2,5 C -3,7 C 16,1 km/h (3 Bft) 85,37 %
08.02.2017 10:50 -0,3 C 84 % 1022,6 hPa 0,0 l/m 10,7 km/h (2 Bft) O-NO 67 0 min 0,000 mm 0,6 UV-I 144 W/m -2,7 C -4,4 C 14,5 km/h (3 Bft) 92,00 %
08.02.2017 10:52 -0,3 C 84 % 1022,7 hPa 0,0 l/m 12,1 km/h (2 Bft) O-NO 65 0 min 0,000 mm 0,6 UV-I 145 W/m -2,7 C -5,4 C 17,7 km/h (3 Bft) 87,50 %
08.02.2017 10:54 -0,3 C 84 % 1022,6 hPa 0,0 l/m 12,1 km/h (2 Bft) O-NO 60 0 min 0,000 mm 0,6 UV-I 147 W/m -2,7 C -5,4 C 17,7 km/h (3 Bft) 90,24 %
08.02.2017 10:56 -0,3 C 84 % 1022,6 hPa 0,0 l/m 8,7 km/h (2 Bft) O-NO 58 0 min 0,000 mm 0,6 UV-I 152 W/m -2,7 C -2,6 C 14,5 km/h (3 Bft) 96,00 %
08.02.2017 10:58 -0,3 C 84 % 1022,6 hPa 0,0 l/m 11,1 km/h (2 Bft) O-NO 60 0 min 0,000 mm 0,6 UV-I 158 W/m -2,7 C -4,7 C 17,7 km/h (3 Bft) 100,00 %
08.02.2017 11:00 -0,3 C 84 % 1022,6 hPa 0,0 l/m 11,4 km/h (2 Bft) O-NO 58 0 min 0,051 mm 0,6 UV-I 162 W/m -2,7 C -4,9 C 17,7 km/h (3 Bft) 96,00 %
08.02.2017 11:02 -0,3 C 84 % 1022,6 hPa 0,0 l/m 11,1 km/h (2 Bft) O-NO 62 0 min 0,000 mm 0,6 UV-I 163 W/m -2,7 C -4,7 C 19,3 km/h (3 Bft) 97,87 %
08.02.2017 11:04 -0,2 C 84 % 1022,7 hPa 0,0 l/m 13,0 km/h (3 Bft) NO 53 0 min 0,000 mm 0,7 UV-I 165 W/m -2,6 C -5,9 C 17,7 km/h (3 Bft) 98,11 %
08.02.2017 11:06 -0,3 C 84 % 1022,6 hPa 0,0 l/m 11,8 km/h (2 Bft) NO 52 0 min 0,000 mm 0,7 UV-I 168 W/m -2,7 C -5,2 C 19,3 km/h (3 Bft) 97,56 %
08.02.2017 11:08 -0,2 C 84 % 1022,7 hPa 0,0 l/m 11,9 km/h (2 Bft) NO 53 0 min 0,000 mm 0,7 UV-I 173 W/m -2,6 C -5,2 C 17,7 km/h (3 Bft) 80,00 %
08.02.2017 11:10 -0,2 C 84 % 1022,6 hPa 0,0 l/m 10,5 km/h (2 Bft) NO 54 0 min 0,000 mm 0,7 UV-I 184 W/m -2,6 C -4,1 C 17,7 km/h (3 Bft) 89,74 %
08.02.2017 11:12 -0,2 C 84 % 1022,7 hPa 0,0 l/m 13,3 km/h (3 Bft) NO 51 0 min 0,000 mm 0,7 UV-I 188 W/m -2,6 C -6,1 C 17,7 km/h (3 Bft) 89,36 %
08.02.2017 11:14 -0,2 C 84 % 1022,6 hPa 0,0 l/m 12,5 km/h (3 Bft) NO 42 0 min 0,000 mm 0,8 UV-I 190 W/m -2,6 C -5,6 C 19,3 km/h (3 Bft) 96,23 %
08.02.2017 11:16 -0,2 C 83 % 1022,6 hPa 0,0 l/m 13,7 km/h (3 Bft) NO 54 0 min 0,000 mm 0,8 UV-I 194 W/m -2,7 C -6,4 C 19,3 km/h (3 Bft) 97,37 %
08.02.2017 11:18 -0,2 C 83 % 1022,6 hPa 0,0 l/m 15,9 km/h (3 Bft) NO 52 0 min 0,000 mm 0,8 UV-I 200 W/m -2,7 C -7,8 C 19,3 km/h (3 Bft) 93,22 %
08.02.2017 11:20 -0,1 C 83 % 1022,6 hPa 0,0 l/m 13,9 km/h (3 Bft) NO 51 0 min 0,000 mm 0,8 UV-I 207 W/m -2,6 C -6,4 C 17,7 km/h (3 Bft) 90,91 %
08.02.2017 11:22 -0,1 C 83 % 1022,6 hPa 0,0 l/m 13,5 km/h (3 Bft) NO 50 0 min 0,000 mm 0,8 UV-I 217 W/m -2,6 C -6,2 C 19,3 km/h (3 Bft) 92,11 %
08.02.2017 11:24 -0,1 C 83 % 1022,7 hPa 0,0 l/m 15,7 km/h (3 Bft) O-NO 57 0 min 0,000 mm 0,8 UV-I 220 W/m -2,6 C -7,5 C 22,5 km/h (4 Bft) 96,43 %
08.02.2017 11:26 -0,1 C 83 % 1022,7 hPa 0,0 l/m 12,5 km/h (3 Bft) O-NO 63 0 min 0,000 mm 0,8 UV-I 218 W/m -2,6 C -5,5 C 17,7 km/h (3 Bft) 88,00 %
08.02.2017 11:28 0,0 C 83 % 1022,7 hPa 0,0 l/m 12,4 km/h (3 Bft) O-NO 76 0 min 0,000 mm 0,8 UV-I 220 W/m -2,5 C -5,3 C 17,7 km/h (3 Bft) 87,23 %
08.02.2017 11:30 0,0 C 83 % 1022,7 hPa 0,0 l/m 12,7 km/h (3 Bft) O-NO 63 0 min 0,000 mm 0,8 UV-I 223 W/m -2,5 C -5,5 C 16,1 km/h (3 Bft) 78,05 %
08.02.2017 11:32 0,0 C 83 % 1022,7 hPa 0,0 l/m 14,4 km/h (3 Bft) O-NO 65 0 min 0,000 mm 0,8 UV-I 222 W/m -2,5 C -6,6 C 19,3 km/h (3 Bft) 92,45 %
08.02.2017 11:34 0,0 C 83 % 1022,7 hPa 0,0 l/m 11,1 km/h (2 Bft) NO 53 0 min 0,000 mm 0,8 UV-I 220 W/m -2,5 C -4,3 C 17,7 km/h (3 Bft) 92,68 %
08.02.2017 11:36 0,0 C 83 % 1022,7 hPa 0,0 l/m 10,8 km/h (2 Bft) NO 40 0 min 0,000 mm 0,8 UV-I 220 W/m -2,5 C -4,1 C 16,1 km/h (3 Bft) 95,12 %
08.02.2017 11:38 0,1 C 84 % 1022,7 hPa 0,0 l/m 10,5 km/h (2 Bft) O-NO 59 0 min 0,000 mm 0,8 UV-I 221 W/m -2,3 C -3,7 C 17,7 km/h (3 Bft) 98,11 %
08.02.2017 11:40 0,1 C 84 % 1022,7 hPa 0,0 l/m 11,4 km/h (2 Bft) O-NO 72 0 min 0,000 mm 0,9 UV-I 227 W/m -2,3 C -4,4 C 17,7 km/h (3 Bft) 100,00 %
08.02.2017 11:42 0,1 C 83 % 1022,7 hPa 0,0 l/m 13,0 km/h (3 Bft) NO 53 0 min 0,000 mm 0,9 UV-I 234 W/m -2,4 C -5,6 C 17,7 km/h (3 Bft) 100,00 %
08.02.2017 11:45 0,1 C 83 % 1022,6 hPa 0,0 l/m 12,9 km/h (3 Bft) O-NO 67 0 min 0,000 mm 0,9 UV-I 237 W/m -2,4 C -5,5 C 19,3 km/h (3 Bft) 100,00 %
08.02.2017 11:48 0,1 C 83 % 1022,6 hPa 0,0 l/m 14,5 km/h (3 Bft) O 85 0 min 0,000 mm 0,9 UV-I 239 W/m -2,4 C -6,6 C 17,7 km/h (3 Bft) 100,00 %
08.02.2017 11:50 0,1 C 82 % 1022,6 hPa 0,0 l/m 14,3 km/h (3 Bft) NO 44 0 min 0,000 mm 0,9 UV-I 238 W/m -2,6 C -6,4 C 19,3 km/h (3 Bft) 92,00 %
08.02.2017 11:52 0,2 C 82 % 1022,6 hPa 0,0 l/m 9,4 km/h (2 Bft) NO 47 0 min 0,000 mm 0,9 UV-I 241 W/m -2,5 C -2,7 C 14,5 km/h (3 Bft) 97,56 %
08.02.2017 11:54 0,2 C 82 % 1022,6 hPa 0,0 l/m 11,2 km/h (2 Bft) NO 38 0 min 0,000 mm 0,9 UV-I 247 W/m -2,5 C -4,2 C 17,7 km/h (3 Bft) 96,43 %
08.02.2017 11:56 0,2 C 83 % 1022,6 hPa 0,0 l/m 13,8 km/h (3 Bft) O-NO 69 0 min 0,000 mm 0,9 UV-I 251 W/m -2,3 C -6,0 C 19,3 km/h (3 Bft) 97,37 %
08.02.2017 11:58 0,3 C 82 % 1022,6 hPa 0,0 l/m 14,6 km/h (3 Bft) O-NO 57 2 min 0,000 mm 0,9 UV-I 255 W/m -2,4 C -6,4 C 20,9 km/h (4 Bft) 96,61 %
08.02.2017 12:00 0,2 C 81 % 1022,6 hPa 0,0 l/m 14,6 km/h (3 Bft) NO 56 2 min 0,076 mm 0,9 UV-I 270 W/m -2,7 C -6,5 C 19,3 km/h (3 Bft) 97,73 %
08.02.2017 12:02 0,3 C 82 % 1022,5 hPa 0,0 l/m 11,0 km/h (2 Bft) NO 49 2 min 0,000 mm 1,0 UV-I 296 W/m -2,4 C -3,9 C 14,5 km/h (3 Bft) 97,87 %
08.02.2017 12:04 0,3 C 82 % 1022,5 hPa 0,0 l/m 10,4 km/h (2 Bft) O-NO 75 2 min 0,000 mm 1,0 UV-I 306 W/m -2,4 C -3,4 C 17,7 km/h (3 Bft) 97,56 %
08.02.2017 12:06 0,3 C 81 % 1022,5 hPa 0,0 l/m 11,7 km/h (2 Bft) NO 52 2 min 0,000 mm 1,0 UV-I 295 W/m -2,6 C -4,4 C 17,7 km/h (3 Bft) 96,43 %
08.02.2017 12:08 0,3 C 81 % 1022,5 hPa 0,0 l/m 9,5 km/h (2 Bft) NO 42 2 min 0,000 mm 1,0 UV-I 286 W/m -2,6 C -2,7 C 14,5 km/h (3 Bft) 95,12 %
08.02.2017 12:10 0,4 C 82 % 1022,5 hPa 0,0 l/m 10,9 km/h (2 Bft) NO 44 2 min 0,000 mm 1,0 UV-I 286 W/m -2,3 C -3,7 C 16,1 km/h (3 Bft) 98,00 %
08.02.2017 12:12 0,6 C 82 % 1022,5 hPa 0,0 l/m 9,4 km/h (2 Bft) NO 48 2 min 0,000 mm 1,0 UV-I 286 W/m -2,1 C -2,3 C 14,5 km/h (3 Bft) 97,56 %
08.02.2017 12:14 0,6 C 80 % 1022,5 hPa 0,0 l/m 10,3 km/h (2 Bft) O-NO 75 2 min 0,000 mm 1,0 UV-I 279 W/m -2,4 C -3,0 C 16,1 km/h (3 Bft) 95,74 %
08.02.2017 12:16 0,6 C 80 % 1022,5 hPa 0,0 l/m 11,2 km/h (2 Bft) NO 42 2 min 0,000 mm 1,0 UV-I 281 W/m -2,4 C -3,7 C 16,1 km/h (3 Bft) 98,11 %
08.02.2017 12:18 0,5 C 80 % 1022,6 hPa 0,0 l/m 12,5 km/h (3 Bft) NO 49 2 min 0,000 mm 1,0 UV-I 264 W/m -2,5 C -4,8 C 16,1 km/h (3 Bft) 100,00 %
08.02.2017 12:20 0,5 C 79 % 1022,6 hPa 0,0 l/m 14,6 km/h (3 Bft) NO 46 2 min 0,000 mm 0,9 UV-I 256 W/m -2,7 C -6,1 C 20,9 km/h (4 Bft) 97,56 %
08.02.2017 12:22 0,4 C 79 % 1022,6 hPa 0,0 l/m 15,4 km/h (3 Bft) NO 55 2 min 0,000 mm 0,9 UV-I 257 W/m -2,8 C -6,7 C 19,3 km/h (3 Bft) 97,62 %
08.02.2017 12:24 0,4 C 79 % 1022,6 hPa 0,0 l/m 17,3 km/h (3 Bft) O-NO 68 2 min 0,000 mm 0,9 UV-I 255 W/m -2,8 C -7,8 C 20,9 km/h (4 Bft) 96,88 %
08.02.2017 12:26 0,4 C 79 % 1022,5 hPa 0,0 l/m 15,0 km/h (3 Bft) NO 41 2 min 0,000 mm 0,9 UV-I 260 W/m -2,8 C -6,5 C 22,5 km/h (4 Bft) 100,00 %
08.02.2017 12:28 0,4 C 79 % 1022,6 hPa 0,0 l/m 16,0 km/h (3 Bft) O-NO 72 2 min 0,000 mm 0,9 UV-I 262 W/m -2,8 C -7,1 C 22,5 km/h (4 Bft) 100,00 %
08.02.2017 12:30 0,4 C 79 % 1022,6 hPa 0,0 l/m 17,6 km/h (3 Bft) NO 44 2 min 0,000 mm 1,0 UV-I 268 W/m -2,8 C -7,9 C 22,5 km/h (4 Bft) 97,62 %
08.02.2017 12:32 0,4 C 79 % 1022,5 hPa 0,0 l/m 13,9 km/h (3 Bft) O-NO 57 2 min 0,000 mm 1,0 UV-I 284 W/m -2,8 C -5,8 C 20,9 km/h (4 Bft) 100,00 %
08.02.2017 12:34 0,4 C 79 % 1022,5 hPa 0,0 l/m 11,9 km/h (2 Bft) O-NO 57 2 min 0,000 mm 1,0 UV-I 283 W/m -2,8 C -4,5 C 16,1 km/h (3 Bft) 100,00 %
08.02.2017 12:36 0,5 C 79 % 1022,6 hPa 0,0 l/m 14,0 km/h (3 Bft) O-NO 70 2 min 0,000 mm 1,0 UV-I 285 W/m -2,7 C -5,8 C 20,9 km/h (4 Bft) 100,00 %
08.02.2017 12:38 0,5 C 79 % 1022,5 hPa 0,0 l/m 14,2 km/h (3 Bft) NO 56 2 min 0,000 mm 1,0 UV-I 299 W/m -2,7 C -5,9 C 17,7 km/h (3 Bft) 100,00 %
08.02.2017 12:40 0,6 C 79 % 1022,5 hPa 0,0 l/m 12,9 km/h (3 Bft) O-NO 66 2 min 0,000 mm 1,0 UV-I 302 W/m -2,6 C -4,9 C 17,7 km/h (3 Bft) 100,00 %
08.02.2017 12:42 0,6 C 79 % 1022,5 hPa 0,0 l/m 15,3 km/h (3 Bft) NO 52 2 min 0,000 mm 1,0 UV-I 326 W/m -2,6 C -6,4 C 20,9 km/h (4 Bft) 100,00 %
08.02.2017 12:44 0,6 C 78 % 1022,5 hPa 0,0 l/m 13,5 km/h (3 Bft) NO 40 2 min 0,000 mm 1,0 UV-I 366 W/m -2,8 C -5,3 C 17,7 km/h (3 Bft) 100,00 %
08.02.2017 12:46 0,6 C 78 % 1022,5 hPa 0,0 l/m 13,5 km/h (3 Bft) NO 44 2 min 0,000 mm 1,0 UV-I 370 W/m -2,8 C -5,3 C 20,9 km/h (4 Bft) 100,00 %
08.02.2017 12:48 0,7 C 78 % 1022,6 hPa 0,0 l/m 10,7 km/h (2 Bft) O-NO 58 2 min 0,000 mm 1,0 UV-I 376 W/m -2,7 C -3,2 C 16,1 km/h (3 Bft) 97,87 %
08.02.2017 12:50 0,8 C 78 % 1022,6 hPa 0,0 l/m 12,1 km/h (2 Bft) O-NO 74 2 min 0,000 mm 1,1 UV-I 391 W/m -2,6 C -4,2 C 17,7 km/h (3 Bft) 100,00 %
08.02.2017 12:52 0,8 C 78 % 1022,6 hPa 0,0 l/m 13,0 km/h (3 Bft) O-NO 63 2 min 0,000 mm 1,1 UV-I 383 W/m -2,6 C -4,8 C 17,7 km/h (3 Bft) 100,00 %
08.02.2017 12:54 0,8 C 77 % 1022,6 hPa 0,0 l/m 15,2 km/h (3 Bft) NO 55 2 min 0,000 mm 1,0 UV-I 367 W/m -2,8 C -6,1 C 20,9 km/h (4 Bft) 97,56 %
08.02.2017 12:56 0,8 C 77 % 1022,6 hPa 0,0 l/m 14,5 km/h (3 Bft) NO 40 2 min 0,000 mm 1,1 UV-I 400 W/m -2,8 C -5,7 C 19,3 km/h (3 Bft) 98,21 %
08.02.2017 12:58 0,8 C 77 % 1022,5 hPa 0,0 l/m 13,6 km/h (3 Bft) NO 36 2 min 0,000 mm 1,1 UV-I 429 W/m -2,8 C -5,2 C 19,3 km/h (3 Bft) 100,00 %
08.02.2017 13:00 0,9 C 78 % 1022,5 hPa 0,0 l/m 12,9 km/h (3 Bft) NO 36 2 min 0,127 mm 1,1 UV-I 410 W/m -2,5 C -4,6 C 19,3 km/h (3 Bft) 100,00 %
08.02.2017 13:02 0,9 C 77 % 1022,5 hPa 0,0 l/m 11,9 km/h (2 Bft) NO 50 2 min 0,000 mm 1,1 UV-I 404 W/m -2,7 C -3,9 C 17,7 km/h (3 Bft) 100,00 %
08.02.2017 13:04 0,9 C 77 % 1022,5 hPa 0,0 l/m 13,4 km/h (3 Bft) NO 38 2 min 0,000 mm 1,0 UV-I 400 W/m -2,7 C -4,9 C 19,3 km/h (3 Bft) 98,00 %
08.02.2017 13:06 0,9 C 77 % 1022,5 hPa 0,0 l/m 14,1 km/h (3 Bft) NO 45 2 min 0,000 mm 1,0 UV-I 411 W/m -2,7 C -5,3 C 19,3 km/h (3 Bft) 96,00 %
08.02.2017 13:08 0,9 C 77 % 1022,5 hPa 0,0 l/m 11,7 km/h (2 Bft) O-NO 66 2 min 0,000 mm 1,0 UV-I 400 W/m -2,7 C -3,8 C 17,7 km/h (3 Bft) 100,00 %
08.02.2017 13:10 0,9 C 77 % 1022,5 hPa 0,0 l/m 14,2 km/h (3 Bft) NO 36 2 min 0,000 mm 1,0 UV-I 387 W/m -2,7 C -5,4 C 19,3 km/h (3 Bft) 100,00 %
08.02.2017 13:12 0,9 C 76 % 1022,6 hPa 0,0 l/m 15,0 km/h (3 Bft) O-NO 59 2 min 0,000 mm 1,0 UV-I 375 W/m -2,8 C -5,9 C 19,3 km/h (3 Bft) 100,00 %
08.02.2017 13:14 0,9 C 75 % 1022,5 hPa 0,0 l/m 14,1 km/h (3 Bft) NO 55 2 min 0,000 mm 1,0 UV-I 368 W/m -3,0 C -5,3 C 19,3 km/h (3 Bft) 98,00 %
08.02.2017 13:16 0,9 C 75 % 1022,5 hPa 0,0 l/m 15,0 km/h (3 Bft) O-NO 73 2 min 0,000 mm 1,0 UV-I 350 W/m -3,0 C -5,9 C 22,5 km/h (4 Bft) 100,00 %
08.02.2017 13:18 1,0 C 75 % 1022,5 hPa 0,0 l/m 11,5 km/h (2 Bft) NO 42 2 min 0,000 mm 1,0 UV-I 358 W/m -2,9 C -3,5 C 16,1 km/h (3 Bft) 100,00 %
08.02.2017 13:20 1,1 C 76 % 1022,5 hPa 0,0 l/m 10,9 km/h (2 Bft) NO 34 2 min 0,000 mm 1,0 UV-I 358 W/m -2,6 C -2,9 C 17,7 km/h (3 Bft) 100,00 %
08.02.2017 13:23 1,1 C 76 % 1022,6 hPa 0,0 l/m 12,4 km/h (3 Bft) O-NO 74 3 min 0,000 mm 0,9 UV-I 350 W/m -2,6 C -4,0 C 17,7 km/h (3 Bft) 100,00 %
08.02.2017 13:24 1,1 C 76 % 1022,5 hPa 0,0 l/m 13,3 km/h (3 Bft) O-NO 66 1 min 0,000 mm 0,9 UV-I 354 W/m -2,6 C -4,6 C 17,7 km/h (3 Bft) 100,00 %
08.02.2017 13:26 1,1 C 77 % 1022,6 hPa 0,0 l/m 12,2 km/h (2 Bft) NO 52 2 min 0,000 mm 0,9 UV-I 355 W/m -2,5 C -3,9 C 17,7 km/h (3 Bft) 100,00 %
08.02.2017 13:28 1,2 C 77 % 1022,5 hPa 0,0 l/m 12,0 km/h (2 Bft) NO 45 2 min 0,000 mm 0,9 UV-I 350 W/m -2,4 C -3,6 C 17,7 km/h (3 Bft) 100,00 %
08.02.2017 13:30 1,2 C 76 % 1022,5 hPa 0,0 l/m 15,5 km/h (3 Bft) NO 48 2 min 0,000 mm 0,9 UV-I 348 W/m -2,5 C -5,8 C 19,3 km/h (3 Bft) 100,00 %
08.02.2017 13:32 1,2 C 74 % 1022,5 hPa 0,0 l/m 14,8 km/h (3 Bft) NO 51 2 min 0,000 mm 0,9 UV-I 336 W/m -2,9 C -5,4 C 19,3 km/h (3 Bft) 100,00 %
08.02.2017 13:34 1,1 C 75 % 1022,5 hPa 0,0 l/m 12,8 km/h (3 Bft) O-NO 61 2 min 0,000 mm 0,9 UV-I 320 W/m -2,8 C -4,3 C 16,1 km/h (3 Bft) 98,00 %
08.02.2017 13:36 1,1 C 76 % 1022,5 hPa 0,0 l/m 12,7 km/h (3 Bft) NO 51 2 min 0,000 mm 0,9 UV-I 323 W/m -2,6 C -4,2 C 19,3 km/h (3 Bft) 96,00 %
08.02.2017 13:38 1,1 C 76 % 1022,5 hPa 0,0 l/m 13,9 km/h (3 Bft) O-NO 58 2 min 0,000 mm 0,9 UV-I 326 W/m -2,6 C -5,0 C 19,3 km/h (3 Bft) 97,37 %
08.02.2017 13:40 1,1 C 76 % 1022,5 hPa 0,0 l/m 14,0 km/h (3 Bft) O-NO 63 2 min 0,000 mm 0,9 UV-I 338 W/m -2,6 C -5,0 C 17,7 km/h (3 Bft) 98,11 %
08.02.2017 13:42 1,1 C 76 % 1022,6 hPa 0,0 l/m 11,7 km/h (2 Bft) O-NO 68 2 min 0,000 mm 0,9 UV-I 340 W/m -2,6 C -3,5 C 17,7 km/h (3 Bft) 97,56 %
08.02.2017 13:44 1,2 C 78 % 1022,6 hPa 0,0 l/m 11,1 km/h (2 Bft) NO 50 2 min 0,000 mm 0,8 UV-I 327 W/m -2,2 C -3,0 C 17,7 km/h (3 Bft) 98,00 %
08.02.2017 13:46 1,3 C 77 % 1022,6 hPa 0,0 l/m 13,9 km/h (3 Bft) N-NO 30 2 min 0,000 mm 0,8 UV-I 321 W/m -2,3 C -4,7 C 20,9 km/h (4 Bft) 96,00 %
08.02.2017 13:48 1,3 C 76 % 1022,6 hPa 0,0 l/m 14,1 km/h (3 Bft) O-NO 57 2 min 0,000 mm 0,8 UV-I 309 W/m -2,5 C -4,9 C 20,9 km/h (4 Bft) 98,00 %
08.02.2017 13:50 1,3 C 75 % 1022,6 hPa 0,0 l/m 15,1 km/h (3 Bft) NO 45 2 min 0,000 mm 0,8 UV-I 303 W/m -2,6 C -5,5 C 20,9 km/h (4 Bft) 97,44 %
08.02.2017 13:52 1,3 C 74 % 1022,6 hPa 0,0 l/m 13,6 km/h (3 Bft) NO 35 2 min 0,000 mm 0,8 UV-I 294 W/m -2,8 C -4,6 C 20,9 km/h (4 Bft) 96,00 %
08.02.2017 13:54 1,3 C 75 % 1022,6 hPa 0,0 l/m 14,8 km/h (3 Bft) NO 40 2 min 0,000 mm 0,8 UV-I 286 W/m -2,6 C -5,3 C 20,9 km/h (4 Bft) 97,56 %
08.02.2017 13:56 1,2 C 75 % 1022,6 hPa 0,0 l/m 11,6 km/h (2 Bft) NO 53 2 min 0,000 mm 0,8 UV-I 282 W/m -2,7 C -3,3 C 17,7 km/h (3 Bft) 98,31 %
08.02.2017 13:58 1,2 C 76 % 1022,6 hPa 0,0 l/m 13,0 km/h (3 Bft) O-NO 71 2 min 0,000 mm 0,8 UV-I 285 W/m -2,5 C -4,3 C 17,7 km/h (3 Bft) 96,15 %
08.02.2017 14:00 1,3 C 76 % 1022,6 hPa 0,0 l/m 7,6 km/h (2 Bft) NO 48 2 min 0,153 mm 0,8 UV-I 295 W/m -2,5 C 0,1 C 14,5 km/h (3 Bft) 98,46 %
08.02.2017 14:02 1,3 C 76 % 1022,5 hPa 0,0 l/m 9,4 km/h (2 Bft) NO 46 2 min 0,000 mm 0,8 UV-I 294 W/m -2,5 C -1,5 C 14,5 km/h (3 Bft) 97,87 %
08.02.2017 14:04 1,4 C 75 % 1022,5 hPa 0,0 l/m 10,8 km/h (2 Bft) O-NO 62 2 min 0,000 mm 0,7 UV-I 295 W/m -2,5 C -2,5 C 14,5 km/h (3 Bft) 92,31 %
08.02.2017 14:06 1,3 C 74 % 1022,5 hPa 0,0 l/m 13,3 km/h (3 Bft) O-NO 61 2 min 0,000 mm 0,7 UV-I 296 W/m -2,8 C -4,4 C 17,7 km/h (3 Bft) 100,00 %
08.02.2017 14:08 1,3 C 75 % 1022,5 hPa 0,0 l/m 11,3 km/h (2 Bft) NO 52 2 min 0,000 mm 0,7 UV-I 300 W/m -2,6 C -3,0 C 16,1 km/h (3 Bft) 96,23 %
08.02.2017 14:10 1,3 C 75 % 1022,5 hPa 0,0 l/m 8,4 km/h (2 Bft) O-NO 69 2 min 0,000 mm 0,7 UV-I 295 W/m -2,6 C -0,7 C 11,3 km/h (2 Bft) 100,00 %
08.02.2017 14:12 1,3 C 77 % 1022,5 hPa 0,0 l/m 10,0 km/h (2 Bft) O-NO 67 2 min 0,000 mm 0,7 UV-I 280 W/m -2,3 C -2,0 C 17,7 km/h (3 Bft) 100,00 %
08.02.2017 14:14 1,4 C 77 % 1022,5 hPa 0,0 l/m 10,3 km/h (2 Bft) O-NO 63 2 min 0,000 mm 0,7 UV-I 275 W/m -2,2 C -2,1 C 16,1 km/h (3 Bft) 100,00 %
08.02.2017 14:16 1,4 C 77 % 1022,6 hPa 0,0 l/m 9,1 km/h (2 Bft) NO 37 2 min 0,000 mm 0,7 UV-I 271 W/m -2,2 C -1,2 C 14,5 km/h (3 Bft) 97,87 %
08.02.2017 14:18 1,4 C 76 % 1022,6 hPa 0,0 l/m 10,0 km/h (2 Bft) N-NO 32 2 min 0,000 mm 0,7 UV-I 272 W/m -2,4 C -1,9 C 16,1 km/h (3 Bft) 98,11 %
08.02.2017 14:20 1,4 C 76 % 1022,6 hPa 0,0 l/m 10,1 km/h (2 Bft) O-NO 66 2 min 0,000 mm 0,6 UV-I 263 W/m -2,4 C -2,0 C 17,7 km/h (3 Bft) 100,00 %
08.02.2017 14:22 1,4 C 75 % 1022,6 hPa 0,0 l/m 9,9 km/h (2 Bft) NO 48 2 min 0,000 mm 0,6 UV-I 254 W/m -2,5 C -1,8 C 14,5 km/h (3 Bft) 100,00 %
08.02.2017 14:24 1,3 C 76 % 1022,6 hPa 0,0 l/m 11,3 km/h (2 Bft) NO 44 2 min 0,000 mm 0,6 UV-I 249 W/m -2,5 C -3,0 C 17,7 km/h (3 Bft) 100,00 %
08.02.2017 14:26 1,3 C 76 % 1022,7 hPa 0,0 l/m 10,4 km/h (2 Bft) O-NO 68 2 min 0,000 mm 0,6 UV-I 243 W/m -2,5 C -2,3 C 17,7 km/h (3 Bft) 100,00 %
08.02.2017 14:28 1,3 C 76 % 1022,7 hPa 0,0 l/m 11,3 km/h (2 Bft) O-NO 61 2 min 0,000 mm 0,6 UV-I 237 W/m -2,5 C -3,0 C 17,7 km/h (3 Bft) 100,00 %
08.02.2017 14:30 1,3 C 76 % 1022,7 hPa 0,0 l/m 11,5 km/h (2 Bft) O-NO 58 2 min 0,000 mm 0,6 UV-I 231 W/m -2,5 C -3,2 C 16,1 km/h (3 Bft) 100,00 %
08.02.2017 14:32 1,3 C 76 % 1022,7 hPa 0,0 l/m 12,4 km/h (3 Bft) NO 46 2 min 0,000 mm 0,6 UV-I 221 W/m -2,5 C -3,8 C 16,1 km/h (3 Bft) 100,00 %
08.02.2017 14:34 1,3 C 76 % 1022,7 hPa 0,0 l/m 11,2 km/h (2 Bft) NO 52 2 min 0,000 mm 0,5 UV-I 210 W/m -2,5 C -2,9 C 16,1 km/h (3 Bft) 100,00 %
08.02.2017 14:36 1,2 C 76 % 1022,8 hPa 0,0 l/m 8,6 km/h (2 Bft) NO 51 2 min 0,000 mm 0,5 UV-I 200 W/m -2,5 C -0,9 C 12,9 km/h (3 Bft) 97,56 %
08.02.2017 14:38 1,2 C 76 % 1022,8 hPa 0,0 l/m 10,3 km/h (2 Bft) O-NO 57 2 min 0,000 mm 0,5 UV-I 194 W/m -2,5 C -2,4 C 14,5 km/h (3 Bft) 100,00 %
08.02.2017 14:40 1,2 C 76 % 1022,8 hPa 0,0 l/m 11,2 km/h (2 Bft) NO 36 2 min 0,000 mm 0,5 UV-I 190 W/m -2,5 C -3,0 C 16,1 km/h (3 Bft) 100,00 %
08.02.2017 14:42 1,2 C 76 % 1022,9 hPa 0,0 l/m 13,4 km/h (3 Bft) O-NO 58 2 min 0,000 mm 0,5 UV-I 187 W/m -2,5 C -4,6 C 17,7 km/h (3 Bft) 98,11 %
08.02.2017 14:44 1,2 C 76 % 1022,9 hPa 0,0 l/m 10,6 km/h (2 Bft) O-NO 61 0 min 0,000 mm 0,5 UV-I 181 W/m -2,5 C -2,6 C 16,1 km/h (3 Bft) 97,37 %
08.02.2017 14:46 1,2 C 76 % 1022,9 hPa 0,0 l/m 10,7 km/h (2 Bft) NO 48 0 min 0,000 mm 0,0 UV-I 176 W/m -2,5 C -2,7 C 16,1 km/h (3 Bft) 100,00 %
08.02.2017 14:48 1,2 C 76 % 1023,0 hPa 0,0 l/m 9,9 km/h (2 Bft) O-NO 72 0 min 0,000 mm 0,0 UV-I 174 W/m -2,5 C -2,0 C 14,5 km/h (3 Bft) 100,00 %
08.02.2017 14:50 1,2 C 76 % 1023,0 hPa 0,0 l/m 13,7 km/h (3 Bft) NO 53 0 min 0,000 mm 0,0 UV-I 171 W/m -2,5 C -4,7 C 17,7 km/h (3 Bft) 100,00 %
08.02.2017 14:52 1,2 C 75 % 1023,0 hPa 0,0 l/m 11,8 km/h (2 Bft) O-NO 68 0 min 0,000 mm 0,0 UV-I 168 W/m -2,7 C -3,5 C 16,1 km/h (3 Bft) 100,00 %
08.02.2017 14:54 1,2 C 76 % 1023,0 hPa 0,0 l/m 12,5 km/h (3 Bft) NO 46 0 min 0,000 mm 0,0 UV-I 163 W/m -2,5 C -4,0 C 16,1 km/h (3 Bft) 98,21 %
08.02.2017 14:56 1,1 C 76 % 1023,0 hPa 0,0 l/m 11,8 km/h (2 Bft) O 81 0 min 0,000 mm 0,0 UV-I 160 W/m -2,6 C -3,6 C 17,7 km/h (3 Bft) 100,00 %
08.02.2017 14:58 1,1 C 76 % 1023,1 hPa 0,0 l/m 11,5 km/h (2 Bft) O-NO 62 0 min 0,000 mm 0,0 UV-I 160 W/m -2,6 C -3,4 C 16,1 km/h (3 Bft) 100,00 %
08.02.2017 15:00 1,1 C 76 % 1023,1 hPa 0,0 l/m 13,0 km/h (3 Bft) NO 50 0 min 0,101 mm 0,0 UV-I 158 W/m -2,6 C -4,4 C 17,7 km/h (3 Bft) 100,00 %
08.02.2017 15:02 1,1 C 76 % 1023,1 hPa 0,0 l/m 13,5 km/h (3 Bft) NO 50 0 min 0,000 mm 0,0 UV-I 155 W/m -2,6 C -4,7 C 17,7 km/h (3 Bft) 100,00 %
08.02.2017 15:04 1,0 C 76 % 1023,1 hPa 0,0 l/m 11,7 km/h (2 Bft) O-NO 67 0 min 0,000 mm 0,0 UV-I 153 W/m -2,7 C -3,6 C 17,7 km/h (3 Bft) 100,00 %
08.02.2017 15:06 1,1 C 77 % 1023,1 hPa 0,0 l/m 11,1 km/h (2 Bft) N-NO 28 0 min 0,000 mm 0,0 UV-I 153 W/m -2,5 C -3,1 C 17,7 km/h (3 Bft) 100,00 %
08.02.2017 15:08 1,1 C 77 % 1023,0 hPa 0,0 l/m 10,9 km/h (2 Bft) NO 47 0 min 0,000 mm 0,0 UV-I 151 W/m -2,5 C -2,9 C 16,1 km/h (3 Bft) 100,00 %
08.02.2017 15:10 1,1 C 77 % 1023,0 hPa 0,0 l/m 11,4 km/h (2 Bft) NO 55 0 min 0,000 mm 0,0 UV-I 148 W/m -2,5 C -3,3 C 16,1 km/h (3 Bft) 100,00 %
08.02.2017 15:12 1,1 C 77 % 1023,0 hPa 0,0 l/m 9,0 km/h (2 Bft) O-NO 57 0 min 0,000 mm 0,0 UV-I 147 W/m -2,5 C -1,4 C 14,5 km/h (3 Bft) 100,00 %
08.02.2017 15:14 1,1 C 77 % 1023,0 hPa 0,0 l/m 10,4 km/h (2 Bft) O 97 0 min 0,000 mm 0,0 UV-I 146 W/m -2,5 C -2,6 C 16,1 km/h (3 Bft) 100,00 %
08.02.2017 15:16 1,1 C 77 % 1023,0 hPa 0,0 l/m 9,1 km/h (2 Bft) O-NO 61 0 min 0,000 mm 0,0 UV-I 143 W/m -2,5 C -1,5 C 16,1 km/h (3 Bft) 97,56 %
08.02.2017 15:18 1,1 C 77 % 1023,0 hPa 0,0 l/m 10,3 km/h (2 Bft) NO 53 0 min 0,000 mm 0,0 UV-I 142 W/m -2,5 C -2,5 C 14,5 km/h (3 Bft) 98,11 %
08.02.2017 15:20 1,1 C 77 % 1023,0 hPa 0,0 l/m 12,4 km/h (3 Bft) O-NO 57 0 min 0,000 mm 0,0 UV-I 140 W/m -2,5 C -4,0 C 16,1 km/h (3 Bft) 98,00 %
08.02.2017 15:22 1,1 C 77 % 1023,0 hPa 0,0 l/m 9,8 km/h (2 Bft) NO 55 0 min 0,000 mm 0,0 UV-I 136 W/m -2,5 C -2,1 C 16,1 km/h (3 Bft) 97,37 %
08.02.2017 15:24 1,1 C 77 % 1023,0 hPa 0,0 l/m 10,1 km/h (2 Bft) O-NO 67 0 min 0,000 mm 0,0 UV-I 132 W/m -2,5 C -2,3 C 14,5 km/h (3 Bft) 100,00 %
08.02.2017 15:26 1,0 C 77 % 1023,0 hPa 0,0 l/m 11,0 km/h (2 Bft) O-NO 70 0 min 0,000 mm 0,0 UV-I 127 W/m -2,6 C -3,1 C 16,1 km/h (3 Bft) 98,21 %
08.02.2017 15:28 1,0 C 77 % 1023,0 hPa 0,0 l/m 10,4 km/h (2 Bft) NO 54 0 min 0,000 mm 0,0 UV-I 124 W/m -2,6 C -2,7 C 16,1 km/h (3 Bft) 100,00 %
08.02.2017 15:30 1,0 C 77 % 1023,0 hPa 0,0 l/m 9,7 km/h (2 Bft) O-NO 71 0 min 0,000 mm 0,0 UV-I 121 W/m -2,6 C -2,1 C 14,5 km/h (3 Bft) 94,29 %
08.02.2017 15:32 1,0 C 77 % 1023,0 hPa 0,0 l/m 9,0 km/h (2 Bft) N-NO 15 0 min 0,000 mm 0,0 UV-I 118 W/m -2,6 C -1,5 C 12,9 km/h (3 Bft) 97,87 %
08.02.2017 15:34 1,1 C 78 % 1023,0 hPa 0,0 l/m 9,2 km/h (2 Bft) NO 53 0 min 0,000 mm 0,0 UV-I 114 W/m -2,3 C -1,6 C 16,1 km/h (3 Bft) 98,00 %
08.02.2017 15:36 1,1 C 77 % 1023,1 hPa 0,0 l/m 9,1 km/h (2 Bft) NO 44 0 min 0,000 mm 0,0 UV-I 111 W/m -2,5 C -1,5 C 14,5 km/h (3 Bft) 96,30 %
08.02.2017 15:38 1,0 C 78 % 1023,1 hPa 0,0 l/m 11,1 km/h (2 Bft) O-NO 61 0 min 0,000 mm 0,0 UV-I 106 W/m -2,4 C -3,2 C 16,1 km/h (3 Bft) 97,14 %
08.02.2017 15:40 1,0 C 78 % 1023,1 hPa 0,0 l/m 9,5 km/h (2 Bft) NO 55 0 min 0,000 mm 0,0 UV-I 104 W/m -2,4 C -1,9 C 16,1 km/h (3 Bft) 97,56 %
08.02.2017 15:42 1,0 C 79 % 1023,0 hPa 0,0 l/m 12,6 km/h (3 Bft) O-NO 60 0 min 0,000 mm 0,0 UV-I 101 W/m -2,2 C -4,3 C 16,1 km/h (3 Bft) 98,00 %
08.02.2017 15:44 0,9 C 79 % 1023,1 hPa 0,0 l/m 10,9 km/h (2 Bft) O-NO 78 0 min 0,000 mm 0,0 UV-I 98 W/m -2,3 C -3,2 C 16,1 km/h (3 Bft) 98,11 %
08.02.2017 15:46 0,9 C 79 % 1023,1 hPa 0,0 l/m 9,9 km/h (2 Bft) NO 44 0 min 0,000 mm 0,0 UV-I 95 W/m -2,3 C -2,4 C 16,1 km/h (3 Bft) 95,74 %
08.02.2017 15:48 0,9 C 79 % 1023,2 hPa 0,0 l/m 7,2 km/h (2 Bft) NO 51 0 min 0,000 mm 0,0 UV-I 91 W/m -2,3 C 0,1 C 11,3 km/h (2 Bft) 95,74 %
08.02.2017 15:50 0,9 C 79 % 1023,1 hPa 0,0 l/m 9,1 km/h (2 Bft) O-NO 61 0 min 0,000 mm 0,0 UV-I 89 W/m -2,3 C -1,7 C 16,1 km/h (3 Bft) 97,62 %
08.02.2017 15:52 0,9 C 79 % 1023,1 hPa 0,0 l/m 8,6 km/h (2 Bft) NO 51 0 min 0,000 mm 0,0 UV-I 86 W/m -2,3 C -1,3 C 14,5 km/h (3 Bft) 97,37 %
08.02.2017 15:54 0,9 C 80 % 1023,1 hPa 0,0 l/m 7,3 km/h (2 Bft) O-NO 58 0 min 0,000 mm 0,0 UV-I 84 W/m -2,2 C -0,0 C 12,9 km/h (3 Bft) 96,43 %
08.02.2017 15:56 0,9 C 80 % 1023,1 hPa 0,0 l/m 7,6 km/h (2 Bft) NO 48 0 min 0,000 mm 0,0 UV-I 82 W/m -2,2 C -0,3 C 9,7 km/h (2 Bft) 97,56 %
08.02.2017 15:58 0,8 C 80 % 1023,1 hPa 0,0 l/m 12,2 km/h (2 Bft) NO 39 0 min 0,000 mm 0,0 UV-I 77 W/m -2,2 C -4,2 C 17,7 km/h (3 Bft) 98,00 %
08.02.2017 16:00 0,8 C 79 % 1023,2 hPa 0,0 l/m 10,9 km/h (2 Bft) O-NO 67 0 min 0,000 mm 0,0 UV-I 74 W/m -2,4 C -3,3 C 16,1 km/h (3 Bft) 97,87 %
08.02.2017 16:02 0,8 C 79 % 1023,1 hPa 0,0 l/m 10,3 km/h (2 Bft) O-NO 60 0 min 0,051 mm 0,0 UV-I 72 W/m -2,4 C -2,8 C 16,1 km/h (3 Bft) 96,23 %
08.02.2017 16:04 0,8 C 79 % 1023,2 hPa 0,0 l/m 10,4 km/h (2 Bft) NO 47 0 min 0,000 mm 0,0 UV-I 70 W/m -2,4 C -2,9 C 16,1 km/h (3 Bft) 97,14 %
08.02.2017 16:06 0,8 C 79 % 1023,2 hPa 0,0 l/m 10,9 km/h (2 Bft) NO 49 0 min 0,000 mm 0,0 UV-I 68 W/m -2,4 C -3,3 C 16,1 km/h (3 Bft) 100,00 %
08.02.2017 16:08 0,8 C 79 % 1023,2 hPa 0,0 l/m 12,1 km/h (2 Bft) NO 44 0 min 0,000 mm 0,0 UV-I 65 W/m -2,4 C -4,2 C 16,1 km/h (3 Bft) 100,00 %
08.02.2017 16:10 0,8 C 80 % 1023,2 hPa 0,0 l/m 9,4 km/h (2 Bft) NO 38 0 min 0,000 mm 0,0 UV-I 63 W/m -2,2 C -2,1 C 12,9 km/h (3 Bft) 100,00 %
08.02.2017 16:12 0,8 C 80 % 1023,2 hPa 0,0 l/m 9,1 km/h (2 Bft) O-NO 60 0 min 0,000 mm 0,0 UV-I 61 W/m -2,2 C -1,8 C 14,5 km/h (3 Bft) 98,00 %
08.02.2017 16:14 0,8 C 79 % 1023,2 hPa 0,0 l/m 9,7 km/h (2 Bft) O-NO 65 0 min 0,000 mm 0,0 UV-I 59 W/m -2,4 C -2,3 C 16,1 km/h (3 Bft) 100,00 %
08.02.2017 16:16 0,7 C 80 % 1023,2 hPa 0,0 l/m 9,5 km/h (2 Bft) NO 38 0 min 0,000 mm 0,0 UV-I 57 W/m -2,3 C -2,3 C 14,5 km/h (3 Bft) 97,37 %
08.02.2017 16:18 0,7 C 80 % 1023,3 hPa 0,0 l/m 12,5 km/h (3 Bft) O-NO 68 0 min 0,000 mm 0,0 UV-I 55 W/m -2,3 C -4,5 C 17,7 km/h (3 Bft) 100,00 %
08.02.2017 16:20 0,7 C 80 % 1023,3 hPa 0,0 l/m 14,6 km/h (3 Bft) NO 55 0 min 0,000 mm 0,0 UV-I 52 W/m -2,3 C -5,9 C 17,7 km/h (3 Bft) 97,87 %
08.02.2017 16:22 0,7 C 80 % 1023,2 hPa 0,0 l/m 15,1 km/h (3 Bft) NO 53 0 min 0,000 mm 0,0 UV-I 49 W/m -2,3 C -6,2 C 20,9 km/h (4 Bft) 100,00 %
08.02.2017 16:24 0,7 C 80 % 1023,3 hPa 0,0 l/m 15,2 km/h (3 Bft) NO 34 0 min 0,000 mm 0,0 UV-I 47 W/m -2,3 C -6,3 C 20,9 km/h (4 Bft) 97,78 %
08.02.2017 16:26 0,7 C 80 % 1023,3 hPa 0,0 l/m 11,6 km/h (2 Bft) NO 38 0 min 0,000 mm 0,0 UV-I 46 W/m -2,3 C -3,9 C 16,1 km/h (3 Bft) 100,00 %
08.02.2017 16:28 0,6 C 80 % 1023,3 hPa 0,0 l/m 10,8 km/h (2 Bft) NO 47 0 min 0,000 mm 0,0 UV-I 44 W/m -2,4 C -3,4 C 16,1 km/h (3 Bft) 100,00 %
08.02.2017 16:30 0,6 C 80 % 1023,3 hPa 0,0 l/m 12,1 km/h (2 Bft) O-NO 57 0 min 0,000 mm 0,0 UV-I 42 W/m -2,4 C -4,4 C 16,1 km/h (3 Bft) 100,00 %
08.02.2017 16:32 0,6 C 80 % 1023,4 hPa 0,0 l/m 11,3 km/h (2 Bft) NO 47 0 min 0,000 mm 0,0 UV-I 41 W/m -2,4 C -3,8 C 17,7 km/h (3 Bft) 100,00 %
08.02.2017 16:34 0,6 C 80 % 1023,4 hPa 0,0 l/m 10,1 km/h (2 Bft) O-NO 62 0 min 0,000 mm 0,0 UV-I 39 W/m -2,4 C -2,9 C 14,5 km/h (3 Bft) 97,37 %
08.02.2017 16:36 0,6 C 81 % 1023,4 hPa 0,0 l/m 11,6 km/h (2 Bft) O-NO 72 0 min 0,000 mm 0,0 UV-I 36 W/m -2,3 C -4,0 C 16,1 km/h (3 Bft) 100,00 %
08.02.2017 16:38 0,6 C 81 % 1023,4 hPa 0,0 l/m 10,2 km/h (2 Bft) NO 44 0 min 0,000 mm 0,0 UV-I 34 W/m -2,3 C -2,9 C 16,1 km/h (3 Bft) 97,56 %
08.02.2017 16:40 0,5 C 80 % 1023,4 hPa 0,0 l/m 12,8 km/h (3 Bft) O-NO 76 0 min 0,000 mm 0,0 UV-I 32 W/m -2,5 C -5,0 C 17,7 km/h (3 Bft) 100,00 %
08.02.2017 16:42 0,5 C 81 % 1023,4 hPa 0,0 l/m 9,1 km/h (2 Bft) NO 51 0 min 0,000 mm 0,0 UV-I 30 W/m -2,4 C -2,1 C 14,5 km/h (3 Bft) 100,00 %
08.02.2017 16:44 0,5 C 81 % 1023,4 hPa 0,0 l/m 11,7 km/h (2 Bft) O-NO 73 0 min 0,000 mm 0,0 UV-I 29 W/m -2,4 C -4,2 C 17,7 km/h (3 Bft) 97,87 %
08.02.2017 16:46 0,5 C 81 % 1023,4 hPa 0,0 l/m 15,8 km/h (3 Bft) O-NO 65 0 min 0,000 mm 0,0 UV-I 27 W/m -2,4 C -6,8 C 20,9 km/h (4 Bft) 100,00 %
08.02.2017 16:48 0,4 C 81 % 1023,4 hPa 0,0 l/m 14,8 km/h (3 Bft) O-NO 64 0 min 0,000 mm 0,0 UV-I 25 W/m -2,5 C -6,4 C 19,3 km/h (3 Bft) 100,00 %
08.02.2017 16:50 0,4 C 81 % 1023,5 hPa 0,0 l/m 11,3 km/h (2 Bft) O-NO 71 0 min 0,000 mm 0,0 UV-I 22 W/m -2,5 C -4,0 C 14,5 km/h (3 Bft) 95,74 %
08.02.2017 16:52 0,4 C 81 % 1023,5 hPa 0,0 l/m 12,0 km/h (2 Bft) O-NO 65 0 min 0,000 mm 0,0 UV-I 21 W/m -2,5 C -4,5 C 17,7 km/h (3 Bft) 97,37 %
08.02.2017 16:54 0,4 C 81 % 1023,5 hPa 0,0 l/m 11,5 km/h (2 Bft) O-NO 63 0 min 0,000 mm 0,0 UV-I 19 W/m -2,5 C -4,2 C 14,5 km/h (3 Bft) 100,00 %
08.02.2017 16:56 0,3 C 82 % 1023,5 hPa 0,0 l/m 9,8 km/h (2 Bft) O-NO 61 0 min 0,000 mm 0,0 UV-I 17 W/m -2,4 C -3,0 C 14,5 km/h (3 Bft) 100,00 %
08.02.2017 16:58 0,3 C 82 % 1023,6 hPa 0,0 l/m 12,8 km/h (3 Bft) O 80 0 min 0,000 mm 0,0 UV-I 14 W/m -2,4 C -5,2 C 20,9 km/h (4 Bft) 100,00 %
08.02.2017 17:00 0,3 C 81 % 1023,6 hPa 0,0 l/m 12,8 km/h (3 Bft) NO 44 2 min 0,025 mm 0,0 UV-I 14 W/m -2,6 C -5,2 C 17,7 km/h (3 Bft) 100,00 %
08.02.2017 17:02 0,3 C 81 % 1023,6 hPa 0,0 l/m 10,9 km/h (2 Bft) O-NO 66 2 min 0,000 mm 0,0 UV-I 12 W/m -2,6 C -3,8 C 16,1 km/h (3 Bft) 100,00 %
08.02.2017 17:04 0,3 C 81 % 1023,7 hPa 0,0 l/m 11,6 km/h (2 Bft) O-NO 75 0 min 0,000 mm 0,0 UV-I 11 W/m -2,6 C -4,4 C 16,1 km/h (3 Bft) 100,00 %
08.02.2017 17:06 0,2 C 81 % 1023,7 hPa 0,0 l/m 10,2 km/h (2 Bft) O-NO 78 0 min 0,000 mm 0,0 UV-I 9 W/m -2,7 C -3,4 C 14,5 km/h (3 Bft) 100,00 %
08.02.2017 17:08 0,2 C 81 % 1023,8 hPa 0,0 l/m 12,6 km/h (3 Bft) O-NO 58 0 min 0,000 mm 0,0 UV-I 8 W/m -2,7 C -5,2 C 16,1 km/h (3 Bft) 100,00 %
08.02.2017 17:10 0,2 C 81 % 1023,8 hPa 0,0 l/m 13,4 km/h (3 Bft) O-NO 71 0 min 0,000 mm 0,0 UV-I 7 W/m -2,7 C -5,7 C 17,7 km/h (3 Bft) 100,00 %
08.02.2017 17:12 0,2 C 82 % 1023,8 hPa 0,0 l/m 12,5 km/h (3 Bft) O-NO 69 0 min 0,000 mm 0,0 UV-I 7 W/m -2,5 C -5,1 C 17,7 km/h (3 Bft) 100,00 %
08.02.2017 17:14 0,2 C 82 % 1023,9 hPa 0,0 l/m 12,6 km/h (3 Bft) NO 50 0 min 0,000 mm 0,0 UV-I 7 W/m -2,5 C -5,2 C 16,1 km/h (3 Bft) 100,00 %
08.02.2017 17:16 0,2 C 82 % 1023,9 hPa 0,0 l/m 13,3 km/h (3 Bft) NO 50 0 min 0,000 mm 0,0 UV-I 6 W/m -2,5 C -5,7 C 19,3 km/h (3 Bft) 100,00 %
08.02.2017 17:18 0,2 C 82 % 1023,8 hPa 0,0 l/m 12,4 km/h (3 Bft) O-NO 69 0 min 0,000 mm 0,0 UV-I 5 W/m -2,5 C -5,1 C 17,7 km/h (3 Bft) 98,18 %
08.02.2017 17:20 0,1 C 82 % 1023,9 hPa 0,0 l/m 10,1 km/h (2 Bft) O-NO 61 0 min 0,000 mm 0,0 UV-I 5 W/m -2,6 C -3,4 C 14,5 km/h (3 Bft) 97,56 %
08.02.2017 17:22 0,1 C 82 % 1023,9 hPa 0,0 l/m 15,7 km/h (3 Bft) O-NO 61 0 min 0,000 mm 0,0 UV-I 5 W/m -2,6 C -7,3 C 20,9 km/h (4 Bft) 100,00 %
08.02.2017 17:24 0,1 C 82 % 1023,9 hPa 0,0 l/m 13,5 km/h (3 Bft) O-NO 69 0 min 0,000 mm 0,0 UV-I 5 W/m -2,6 C -5,9 C 17,7 km/h (3 Bft) 100,00 %
08.02.2017 17:26 0,1 C 82 % 1024,0 hPa 0,0 l/m 12,4 km/h (3 Bft) O-NO 69 0 min 0,000 mm 0,0 UV-I 1 W/m -2,6 C -5,2 C 16,1 km/h (3 Bft) 100,00 %
08.02.2017 17:28 0,1 C 82 % 1023,9 hPa 0,0 l/m 11,5 km/h (2 Bft) O 79 0 min 0,000 mm 0,0 UV-I 0 W/m -2,6 C -4,5 C 16,1 km/h (3 Bft) 100,00 %
08.02.2017 17:30 0,0 C 82 % 1024,0 hPa 0,0 l/m 12,4 km/h (3 Bft) O-NO 65 0 min 0,000 mm 0,0 UV-I 0 W/m -2,7 C -5,3 C 17,7 km/h (3 Bft) 100,00 %
08.02.2017 17:32 -0,1 C 82 % 1024,0 hPa 0,0 l/m 13,2 km/h (3 Bft) O-NO 64 0 min 0,000 mm 0,0 UV-I 0 W/m -2,8 C -6,0 C 17,7 km/h (3 Bft) 100,00 %
08.02.2017 17:34 -0,1 C 83 % 1024,0 hPa 0,0 l/m 9,7 km/h (2 Bft) NO 49 0 min 0,000 mm 0,0 UV-I 0 W/m -2,6 C -3,3 C 16,1 km/h (3 Bft) 100,00 %
08.02.2017 17:36 -0,1 C 83 % 1024,0 hPa 0,0 l/m 13,1 km/h (3 Bft) O 86 0 min 0,000 mm 0,0 UV-I 0 W/m -2,6 C -5,9 C 17,7 km/h (3 Bft) 94,74 %
08.02.2017 17:38 -0,1 C 83 % 1024,0 hPa 0,0 l/m 11,3 km/h (2 Bft) O-NO 73 0 min 0,000 mm 0,0 UV-I 0 W/m -2,6 C -4,6 C 16,1 km/h (3 Bft) 94,92 %
08.02.2017 17:40 -0,2 C 83 % 1024,0 hPa 0,0 l/m 13,2 km/h (3 Bft) O-NO 77 0 min 0,000 mm 0,0 UV-I 0 W/m -2,7 C -6,1 C 17,7 km/h (3 Bft) 97,37 %
08.02.2017 17:42 -0,2 C 84 % 1024,1 hPa 0,0 l/m 14,2 km/h (3 Bft) O-NO 74 0 min 0,000 mm 0,0 UV-I 0 W/m -2,6 C -6,7 C 20,9 km/h (4 Bft) 98,11 %
08.02.2017 17:44 -0,2 C 84 % 1024,1 hPa 0,0 l/m 15,7 km/h (3 Bft) O-NO 73 0 min 0,000 mm 0,0 UV-I 0 W/m -2,6 C -7,6 C 20,9 km/h (4 Bft) 97,62 %
08.02.2017 17:46 -0,2 C 84 % 1024,1 hPa 0,0 l/m 15,0 km/h (3 Bft) O-NO 70 0 min 0,000 mm 0,0 UV-I 0 W/m -2,6 C -7,2 C 19,3 km/h (3 Bft) 94,55 %
08.02.2017 17:48 -0,2 C 84 % 1024,1 hPa 0,0 l/m 13,8 km/h (3 Bft) O-NO 76 0 min 0,000 mm 0,0 UV-I 0 W/m -2,6 C -6,5 C 17,7 km/h (3 Bft) 97,62 %
08.02.2017 17:50 -0,2 C 84 % 1024,2 hPa 0,0 l/m 13,1 km/h (3 Bft) O-NO 74 0 min 0,000 mm 0,0 UV-I 0 W/m -2,6 C -6,0 C 16,1 km/h (3 Bft) 96,00 %
08.02.2017 17:52 -0,2 C 84 % 1024,2 hPa 0,0 l/m 13,5 km/h (3 Bft) O-NO 67 0 min 0,000 mm 0,0 UV-I 0 W/m -2,6 C -6,3 C 19,3 km/h (3 Bft) 97,37 %
08.02.2017 17:54 -0,3 C 84 % 1024,2 hPa 0,0 l/m 13,2 km/h (3 Bft) O-NO 65 0 min 0,000 mm 0,0 UV-I 0 W/m -2,7 C -6,2 C 17,7 km/h (3 Bft) 98,00 %
08.02.2017 17:56 -0,3 C 84 % 1024,2 hPa 0,0 l/m 13,3 km/h (3 Bft) O-NO 71 0 min 0,000 mm 0,0 UV-I 0 W/m -2,7 C -6,3 C 19,3 km/h (3 Bft) 96,00 %
08.02.2017 17:58 -0,3 C 84 % 1024,2 hPa 0,0 l/m 12,8 km/h (3 Bft) O 80 0 min 0,000 mm 0,0 UV-I 0 W/m -2,7 C -5,9 C 19,3 km/h (3 Bft) 97,37 %
08.02.2017 18:00 -0,3 C 84 % 1024,2 hPa 0,0 l/m 15,3 km/h (3 Bft) O 84 0 min 0,026 mm 0,0 UV-I 0 W/m -2,7 C -7,5 C 19,3 km/h (3 Bft) 96,61 %
08.02.2017 18:02 -0,3 C 84 % 1024,3 hPa 0,0 l/m 12,9 km/h (3 Bft) NO 41 0 min 0,000 mm 0,0 UV-I 0 W/m -2,7 C -6,0 C 20,9 km/h (4 Bft) 97,37 %
08.02.2017 18:04 -0,3 C 84 % 1024,3 hPa 0,0 l/m 13,7 km/h (3 Bft) NO 45 0 min 0,000 mm 0,0 UV-I 0 W/m -2,7 C -6,5 C 17,7 km/h (3 Bft) 98,11 %
08.02.2017 18:06 -0,3 C 85 % 1024,3 hPa 0,0 l/m 13,4 km/h (3 Bft) O-NO 65 0 min 0,000 mm 0,0 UV-I 0 W/m -2,5 C -6,3 C 19,3 km/h (3 Bft) 100,00 %
08.02.2017 18:08 -0,4 C 85 % 1024,3 hPa 0,0 l/m 13,9 km/h (3 Bft) O 80 0 min 0,000 mm 0,0 UV-I 0 W/m -2,6 C -6,8 C 17,7 km/h (3 Bft) 98,21 %
08.02.2017 18:10 -0,4 C 85 % 1024,3 hPa 0,0 l/m 10,9 km/h (2 Bft) NO 49 0 min 0,000 mm 0,0 UV-I 0 W/m -2,6 C -4,6 C 16,1 km/h (3 Bft) 95,12 %
08.02.2017 18:12 -0,4 C 85 % 1024,3 hPa 0,0 l/m 12,0 km/h (2 Bft) O-NO 69 0 min 0,000 mm 0,0 UV-I 0 W/m -2,6 C -5,5 C 16,1 km/h (3 Bft) 100,00 %
08.02.2017 18:14 -0,4 C 85 % 1024,4 hPa 0,0 l/m 10,5 km/h (2 Bft) O-NO 78 0 min 0,000 mm 0,0 UV-I 0 W/m -2,6 C -4,3 C 16,1 km/h (3 Bft) 97,56 %
08.02.2017 18:16 -0,5 C 85 % 1024,4 hPa 0,0 l/m 7,8 km/h (2 Bft) O-NO 61 0 min 0,000 mm 0,0 UV-I 0 W/m -2,7 C -2,0 C 12,9 km/h (3 Bft) 100,00 %
08.02.2017 18:18 -0,5 C 86 % 1024,4 hPa 0,0 l/m 7,5 km/h (2 Bft) O-NO 60 0 min 0,000 mm 0,0 UV-I 0 W/m -2,5 C -1,7 C 9,7 km/h (2 Bft) 97,56 %
08.02.2017 18:20 -0,6 C 86 % 1024,4 hPa 0,0 l/m 11,2 km/h (2 Bft) O-NO 63 0 min 0,000 mm 0,0 UV-I 0 W/m -2,6 C -5,1 C 14,5 km/h (3 Bft) 98,11 %
08.02.2017 18:22 -0,6 C 86 % 1024,4 hPa 0,0 l/m 13,7 km/h (3 Bft) O-NO 70 0 min 0,000 mm 0,0 UV-I 0 W/m -2,6 C -6,9 C 19,3 km/h (3 Bft) 100,00 %
08.02.2017 18:24 -0,6 C 86 % 1024,5 hPa 0,0 l/m 12,3 km/h (3 Bft) NO 44 0 min 0,000 mm 0,0 UV-I 0 W/m -2,6 C -5,9 C 17,7 km/h (3 Bft) 100,00 %
08.02.2017 18:26 -0,6 C 86 % 1024,6 hPa 0,0 l/m 13,1 km/h (3 Bft) O-NO 57 0 min 0,000 mm 0,0 UV-I 0 W/m -2,6 C -6,5 C 17,7 km/h (3 Bft) 100,00 %
08.02.2017 18:28 -0,7 C 87 % 1024,5 hPa 0,0 l/m 13,0 km/h (3 Bft) O-NO 75 0 min 0,000 mm 0,0 UV-I 0 W/m -2,6 C -6,5 C 16,1 km/h (3 Bft) 100,00 %
08.02.2017 18:30 -0,7 C 87 % 1024,5 hPa 0,0 l/m 10,1 km/h (2 Bft) NO 55 0 min 0,000 mm 0,0 UV-I 0 W/m -2,6 C -4,3 C 16,1 km/h (3 Bft) 100,00 %
08.02.2017 18:32 -0,7 C 87 % 1024,5 hPa 0,0 l/m 12,5 km/h (3 Bft) NO 52 0 min 0,000 mm 0,0 UV-I 0 W/m -2,6 C -6,2 C 17,7 km/h (3 Bft) 100,00 %
08.02.2017 18:34 -0,7 C 87 % 1024,5 hPa 0,0 l/m 12,9 km/h (3 Bft) NO 47 0 min 0,000 mm 0,0 UV-I 0 W/m -2,6 C -6,5 C 17,7 km/h (3 Bft) 100,00 %
08.02.2017 18:36 -0,7 C 87 % 1024,6 hPa 0,0 l/m 10,1 km/h (2 Bft) NO 46 0 min 0,000 mm 0,0 UV-I 0 W/m -2,6 C -4,3 C 16,1 km/h (3 Bft) 97,56 %
08.02.2017 18:38 -0,8 C 87 % 1024,6 hPa 0,0 l/m 10,7 km/h (2 Bft) O-NO 67 0 min 0,000 mm 0,0 UV-I 0 W/m -2,7 C -4,9 C 16,1 km/h (3 Bft) 100,00 %
08.02.2017 18:40 -0,8 C 87 % 1024,6 hPa 0,0 l/m 12,7 km/h (3 Bft) O-NO 77 0 min 0,000 mm 0,0 UV-I 0 W/m -2,7 C -6,4 C 17,7 km/h (3 Bft) 100,00 %
08.02.2017 18:42 -0,8 C 87 % 1024,7 hPa 0,0 l/m 12,2 km/h (2 Bft) O-NO 63 0 min 0,000 mm 0,0 UV-I 0 W/m -2,7 C -6,1 C 16,1 km/h (3 Bft) 97,56 %
08.02.2017 18:44 -0,8 C 87 % 1024,7 hPa 0,0 l/m 12,5 km/h (3 Bft) NO 48 0 min 0,000 mm 0,0 UV-I 0 W/m -2,7 C -6,3 C 17,7 km/h (3 Bft) 98,11 %
08.02.2017 18:46 -0,8 C 87 % 1024,8 hPa 0,0 l/m 12,4 km/h (3 Bft) O-NO 59 0 min 0,000 mm 0,0 UV-I 0 W/m -2,7 C -6,2 C 19,3 km/h (3 Bft) 97,56 %
08.02.2017 18:48 -0,8 C 87 % 1024,8 hPa 0,0 l/m 13,2 km/h (3 Bft) O-NO 60 0 min 0,000 mm 0,0 UV-I 0 W/m -2,7 C -6,8 C 19,3 km/h (3 Bft) 100,00 %
08.02.2017 18:50 -0,8 C 87 % 1024,8 hPa 0,0 l/m 17,9 km/h (3 Bft) O-NO 65 0 min 0,000 mm 0,0 UV-I 0 W/m -2,7 C -9,6 C 24,1 km/h (4 Bft) 100,00 %
08.02.2017 18:52 -0,8 C 87 % 1024,8 hPa 0,0 l/m 16,8 km/h (3 Bft) O-NO 63 0 min 0,000 mm 0,0 UV-I 0 W/m -2,7 C -9,0 C 24,1 km/h (4 Bft) 100,00 %
08.02.2017 18:54 -0,8 C 87 % 1024,9 hPa 0,0 l/m 19,9 km/h (4 Bft) NO 56 0 min 0,000 mm 0,0 UV-I 0 W/m -2,7 C -10,6 C 24,1 km/h (4 Bft) 100,00 %
08.02.2017 18:56 -0,9 C 86 % 1024,9 hPa 0,0 l/m 17,4 km/h (3 Bft) O 81 0 min 0,000 mm 0,0 UV-I 0 W/m -2,9 C -9,5 C 22,5 km/h (4 Bft) 95,74 %
08.02.2017 18:58 -0,9 C 86 % 1024,9 hPa 0,0 l/m 15,1 km/h (3 Bft) NO 45 0 min 0,000 mm 0,0 UV-I 0 W/m -2,9 C -8,1 C 19,3 km/h (3 Bft) 100,00 %
08.02.2017 19:00 -0,9 C 86 % 1024,9 hPa 0,0 l/m 18,4 km/h (3 Bft) O-NO 77 0 min 0,025 mm 0,0 UV-I 0 W/m -2,9 C -10,0 C 22,5 km/h (4 Bft) 100,00 %
08.02.2017 19:02 -0,9 C 86 % 1025,0 hPa 0,0 l/m 13,6 km/h (3 Bft) O-NO 57 0 min 0,000 mm 0,0 UV-I 0 W/m -2,9 C -7,2 C 20,9 km/h (4 Bft) 100,00 %
08.02.2017 19:04 -0,9 C 86 % 1025,0 hPa 0,0 l/m 15,8 km/h (3 Bft) NO 50 0 min 0,000 mm 0,0 UV-I 0 W/m -2,9 C -8,6 C 22,5 km/h (4 Bft) 100,00 %
08.02.2017 19:06 -0,9 C 86 % 1025,0 hPa 0,0 l/m 17,1 km/h (3 Bft) O-NO 61 0 min 0,000 mm 0,0 UV-I 0 W/m -2,9 C -9,3 C 24,1 km/h (4 Bft) 100,00 %
08.02.2017 19:08 -0,9 C 86 % 1025,0 hPa 0,0 l/m 15,7 km/h (3 Bft) O-NO 57 0 min 0,000 mm 0,0 UV-I 0 W/m -2,9 C -8,5 C 22,5 km/h (4 Bft) 100,00 %
08.02.2017 19:10 -0,9 C 86 % 1025,0 hPa 0,0 l/m 18,8 km/h (3 Bft) O-NO 61 0 min 0,000 mm 0,0 UV-I 0 W/m -2,9 C -10,2 C 25,7 km/h (4 Bft) 100,00 %
08.02.2017 19:12 -0,9 C 86 % 1025,1 hPa 0,0 l/m 18,5 km/h (3 Bft) O-NO 69 0 min 0,000 mm 0,0 UV-I 0 W/m -2,9 C -10,0 C 25,7 km/h (4 Bft) 100,00 %
08.02.2017 19:14 -1,0 C 86 % 1025,1 hPa 0,0 l/m 22,5 km/h (4 Bft) O-NO 69 0 min 0,000 mm 0,0 UV-I 0 W/m -3,0 C -12,1 C 32,2 km/h (5 Bft) 100,00 %
08.02.2017 19:16 -1,0 C 86 % 1025,1 hPa 0,0 l/m 20,0 km/h (4 Bft) O 83 0 min 0,000 mm 0,0 UV-I 0 W/m -3,0 C -10,9 C 27,4 km/h (4 Bft) 100,00 %
08.02.2017 19:18 -1,0 C 86 % 1025,1 hPa 0,0 l/m 19,4 km/h (3 Bft) O-NO 65 0 min 0,000 mm 0,0 UV-I 0 W/m -3,0 C -10,6 C 25,7 km/h (4 Bft) 100,00 %
08.02.2017 19:20 -1,0 C 86 % 1025,1 hPa 0,0 l/m 15,6 km/h (3 Bft) NO 54 0 min 0,000 mm 0,0 UV-I 0 W/m -3,0 C -8,6 C 25,7 km/h (4 Bft) 100,00 %
08.02.2017 19:22 -1,1 C 86 % 1025,1 hPa 0,0 l/m 20,2 km/h (4 Bft) O-NO 61 0 min 0,000 mm 0,0 UV-I 0 W/m -3,1 C -11,1 C 25,7 km/h (4 Bft) 100,00 %
08.02.2017 19:24 -1,1 C 86 % 1025,2 hPa 0,0 l/m 18,7 km/h (3 Bft) O-NO 76 0 min 0,000 mm 0,0 UV-I 0 W/m -3,1 C -10,4 C 24,1 km/h (4 Bft) 100,00 %
08.02.2017 19:26 -1,0 C 86 % 1025,1 hPa 0,0 l/m 19,7 km/h (3 Bft) O-NO 71 0 min 0,000 mm 0,0 UV-I 0 W/m -3,0 C -10,8 C 24,1 km/h (4 Bft) 100,00 %
08.02.2017 19:28 -1,1 C 86 % 1025,2 hPa 0,0 l/m 17,0 km/h (3 Bft) NO 54 0 min 0,000 mm 0,0 UV-I 0 W/m -3,1 C -9,5 C 20,9 km/h (4 Bft) 100,00 %
08.02.2017 19:30 -1,1 C 86 % 1025,2 hPa 0,0 l/m 15,6 km/h (3 Bft) O-NO 65 0 min 0,000 mm 0,0 UV-I 0 W/m -3,1 C -8,7 C 27,4 km/h (4 Bft) 97,87 %
08.02.2017 19:32 -1,1 C 87 % 1025,2 hPa 0,0 l/m 14,6 km/h (3 Bft) NO 49 0 min 0,000 mm 0,0 UV-I 0 W/m -3,0 C -8,1 C 22,5 km/h (4 Bft) 100,00 %
08.02.2017 19:34 -1,1 C 87 % 1025,2 hPa 0,0 l/m 17,6 km/h (3 Bft) O-NO 71 0 min 0,000 mm 0,0 UV-I 0 W/m -3,0 C -9,8 C 24,1 km/h (4 Bft) 100,00 %
08.02.2017 19:36 -1,1 C 87 % 1025,2 hPa 0,0 l/m 15,8 km/h (3 Bft) O-NO 61 0 min 0,000 mm 0,0 UV-I 0 W/m -3,0 C -8,8 C 25,7 km/h (4 Bft) 100,00 %
08.02.2017 19:38 -1,1 C 87 % 1025,3 hPa 0,0 l/m 17,7 km/h (3 Bft) O-NO 57 0 min 0,000 mm 0,0 UV-I 0 W/m -3,0 C -9,9 C 24,1 km/h (4 Bft) 96,23 %
08.02.2017 19:40 -1,1 C 87 % 1025,3 hPa 0,0 l/m 17,6 km/h (3 Bft) O-NO 60 0 min 0,000 mm 0,0 UV-I 0 W/m -3,0 C -9,8 C 24,1 km/h (4 Bft) 100,00 %
08.02.2017 19:42 -1,2 C 87 % 1025,2 hPa 0,0 l/m 17,0 km/h (3 Bft) O 91 0 min 0,000 mm 0,0 UV-I 0 W/m -3,1 C -9,6 C 22,5 km/h (4 Bft) 96,00 %
08.02.2017 19:44 -1,2 C 86 % 1025,3 hPa 0,0 l/m 14,9 km/h (3 Bft) NO 41 0 min 0,000 mm 0,0 UV-I 0 W/m -3,2 C -8,4 C 22,5 km/h (4 Bft) 96,00 %
08.02.2017 19:46 -1,2 C 87 % 1025,3 hPa 0,0 l/m 16,5 km/h (3 Bft) O-NO 57 0 min 0,000 mm 0,0 UV-I 0 W/m -3,1 C -9,3 C 22,5 km/h (4 Bft) 97,62 %
08.02.2017 19:48 -1,2 C 87 % 1025,3 hPa 0,0 l/m 16,0 km/h (3 Bft) O-NO 60 0 min 0,000 mm 0,0 UV-I 0 W/m -3,1 C -9,0 C 19,3 km/h (3 Bft) 98,11 %
08.02.2017 19:50 -1,2 C 87 % 1025,3 hPa 0,0 l/m 14,4 km/h (3 Bft) O-NO 78 0 min 0,000 mm 0,0 UV-I 0 W/m -3,1 C -8,1 C 20,9 km/h (4 Bft) 97,56 %
08.02.2017 19:52 -1,2 C 87 % 1025,3 hPa 0,0 l/m 20,4 km/h (4 Bft) O-NO 74 0 min 0,000 mm 0,0 UV-I 0 W/m -3,1 C -11,4 C 27,4 km/h (4 Bft) 96,00 %
08.02.2017 19:54 -1,2 C 87 % 1025,3 hPa 0,0 l/m 17,7 km/h (3 Bft) O-NO 76 0 min 0,000 mm 0,0 UV-I 0 W/m -3,1 C -10,0 C 22,5 km/h (4 Bft) 98,00 %
08.02.2017 19:56 -1,2 C 86 % 1025,3 hPa 0,0 l/m 16,3 km/h (3 Bft) NO 38 0 min 0,000 mm 0,0 UV-I 0 W/m -3,2 C -9,2 C 24,1 km/h (4 Bft) 93,02 %
08.02.2017 19:58 -1,2 C 86 % 1025,3 hPa 0,0 l/m 18,6 km/h (3 Bft) O-NO 69 0 min 0,000 mm 0,0 UV-I 0 W/m -3,2 C -10,5 C 27,4 km/h (4 Bft) 98,11 %
08.02.2017 20:00 -1,2 C 86 % 1025,3 hPa 0,0 l/m 13,5 km/h (3 Bft) NO 52 0 min 0,026 mm 0,0 UV-I 0 W/m -3,2 C -7,5 C 19,3 km/h (3 Bft) 97,56 %
08.02.2017 20:02 -1,2 C 86 % 1025,3 hPa 0,0 l/m 15,9 km/h (3 Bft) O-NO 60 0 min 0,000 mm 0,0 UV-I 0 W/m -3,2 C -9,0 C 19,3 km/h (3 Bft) 97,56 %
08.02.2017 20:04 -1,2 C 86 % 1025,3 hPa 0,0 l/m 16,5 km/h (3 Bft) O-NO 65 0 min 0,000 mm 0,0 UV-I 0 W/m -3,2 C -9,3 C 24,1 km/h (4 Bft) 98,21 %
08.02.2017 20:06 -1,2 C 86 % 1025,4 hPa 0,0 l/m 15,5 km/h (3 Bft) NO 46 0 min 0,000 mm 0,0 UV-I 0 W/m -3,2 C -8,7 C 20,9 km/h (4 Bft) 96,00 %
08.02.2017 20:08 -1,2 C 86 % 1025,3 hPa 0,0 l/m 19,0 km/h (3 Bft) O-NO 75 0 min 0,000 mm 0,0 UV-I 0 W/m -3,2 C -10,7 C 29,0 km/h (5 Bft) 97,37 %
08.02.2017 20:10 -1,2 C 86 % 1025,3 hPa 0,0 l/m 19,5 km/h (3 Bft) O-NO 61 0 min 0,000 mm 0,0 UV-I 0 W/m -3,2 C -10,9 C 29,0 km/h (5 Bft) 97,87 %
08.02.2017 20:12 -1,2 C 86 % 1025,4 hPa 0,0 l/m 20,0 km/h (4 Bft) O-NO 74 0 min 0,000 mm 0,0 UV-I 0 W/m -3,2 C -11,2 C 24,1 km/h (4 Bft) 98,00 %
08.02.2017 20:14 -1,2 C 86 % 1025,4 hPa 0,0 l/m 14,6 km/h (3 Bft) NO 53 0 min 0,000 mm 0,0 UV-I 0 W/m -3,2 C -8,2 C 20,9 km/h (4 Bft) 94,00 %
08.02.2017 20:16 -1,2 C 86 % 1025,4 hPa 0,0 l/m 19,0 km/h (3 Bft) NO 53 0 min 0,000 mm 0,0 UV-I 0 W/m -3,2 C -10,7 C 29,0 km/h (5 Bft) 100,00 %
08.02.2017 20:18 -1,2 C 86 % 1025,5 hPa 0,0 l/m 19,1 km/h (3 Bft) O-NO 69 0 min 0,000 mm 0,0 UV-I 0 W/m -3,2 C -10,7 C 25,7 km/h (4 Bft) 100,00 %
08.02.2017 20:20 -1,2 C 86 % 1025,5 hPa 0,0 l/m 17,6 km/h (3 Bft) O-NO 61 0 min 0,000 mm 0,0 UV-I 0 W/m -3,2 C -10,0 C 24,1 km/h (4 Bft) 97,56 %
08.02.2017 20:22 -1,2 C 86 % 1025,5 hPa 0,0 l/m 17,8 km/h (3 Bft) O-NO 66 0 min 0,000 mm 0,0 UV-I 0 W/m -3,2 C -10,1 C 24,1 km/h (4 Bft) 100,00 %
08.02.2017 20:24 -1,2 C 86 % 1025,6 hPa 0,0 l/m 16,4 km/h (3 Bft) O-NO 59 0 min 0,000 mm 0,0 UV-I 0 W/m -3,2 C -9,3 C 22,5 km/h (4 Bft) 97,87 %
08.02.2017 20:26 -1,2 C 86 % 1025,6 hPa 0,0 l/m 16,5 km/h (3 Bft) O-NO 74 0 min 0,000 mm 0,0 UV-I 0 W/m -3,2 C -9,3 C 24,1 km/h (4 Bft) 100,00 %
08.02.2017 20:28 -1,2 C 86 % 1025,6 hPa 0,0 l/m 15,6 km/h (3 Bft) O-NO 71 0 min 0,000 mm 0,0 UV-I 0 W/m -3,2 C -8,8 C 25,7 km/h (4 Bft) 100,00 %
08.02.2017 20:30 -1,2 C 86 % 1025,6 hPa 0,0 l/m 16,0 km/h (3 Bft) NO 49 0 min 0,000 mm 0,0 UV-I 0 W/m -3,2 C -9,0 C 22,5 km/h (4 Bft) 100,00 %
08.02.2017 20:32 -1,3 C 86 % 1025,7 hPa 0,0 l/m 14,9 km/h (3 Bft) O-NO 78 0 min 0,000 mm 0,0 UV-I 0 W/m -3,3 C -8,5 C 22,5 km/h (4 Bft) 100,00 %
08.02.2017 20:34 -1,3 C 87 % 1025,7 hPa 0,0 l/m 16,7 km/h (3 Bft) O-NO 69 0 min 0,000 mm 0,0 UV-I 0 W/m -3,2 C -9,6 C 22,5 km/h (4 Bft) 100,00 %
08.02.2017 20:36 -1,3 C 87 % 1025,7 hPa 0,0 l/m 16,1 km/h (3 Bft) O-NO 66 0 min 0,000 mm 0,0 UV-I 0 W/m -3,2 C -9,2 C 22,5 km/h (4 Bft) 97,37 %
08.02.2017 20:38 -1,3 C 87 % 1025,7 hPa 0,0 l/m 15,5 km/h (3 Bft) O-NO 57 0 min 0,000 mm 0,0 UV-I 0 W/m -3,2 C -8,9 C 20,9 km/h (4 Bft) 100,00 %
08.02.2017 20:40 -1,3 C 87 % 1025,7 hPa 0,0 l/m 17,2 km/h (3 Bft) NO 34 0 min 0,000 mm 0,0 UV-I 0 W/m -3,2 C -9,9 C 22,5 km/h (4 Bft) 100,00 %
08.02.2017 20:42 -1,3 C 87 % 1025,7 hPa 0,0 l/m 16,0 km/h (3 Bft) O 88 0 min 0,000 mm 0,0 UV-I 0 W/m -3,2 C -9,2 C 20,9 km/h (4 Bft) 98,00 %
08.02.2017 20:44 -1,3 C 87 % 1025,7 hPa 0,0 l/m 14,3 km/h (3 Bft) O-NO 63 0 min 0,000 mm 0,0 UV-I 0 W/m -3,2 C -8,1 C 22,5 km/h (4 Bft) 100,00 %
08.02.2017 20:46 -1,3 C 87 % 1025,7 hPa 0,0 l/m 15,9 km/h (3 Bft) O-NO 74 0 min 0,000 mm 0,0 UV-I 0 W/m -3,2 C -9,1 C 20,9 km/h (4 Bft) 100,00 %
08.02.2017 20:48 -1,3 C 87 % 1025,7 hPa 0,0 l/m 19,2 km/h (3 Bft) O-NO 67 0 min 0,000 mm 0,0 UV-I 0 W/m -3,2 C -10,9 C 24,1 km/h (4 Bft) 97,56 %
08.02.2017 20:50 -1,3 C 87 % 1025,7 hPa 0,0 l/m 16,7 km/h (3 Bft) O-NO 67 0 min 0,000 mm 0,0 UV-I 0 W/m -3,2 C -9,6 C 20,9 km/h (4 Bft) 100,00 %
08.02.2017 20:52 -1,3 C 87 % 1025,7 hPa 0,0 l/m 20,9 km/h (4 Bft) O-NO 57 0 min 0,000 mm 0,0 UV-I 0 W/m -3,2 C -11,7 C 27,4 km/h (4 Bft) 100,00 %
08.02.2017 20:54 -1,3 C 87 % 1025,7 hPa 0,0 l/m 18,4 km/h (3 Bft) O 79 0 min 0,000 mm 0,0 UV-I 0 W/m -3,2 C -10,5 C 25,7 km/h (4 Bft) 100,00 %
08.02.2017 20:56 -1,3 C 87 % 1025,7 hPa 0,0 l/m 16,8 km/h (3 Bft) O-NO 70 0 min 0,000 mm 0,0 UV-I 0 W/m -3,2 C -9,6 C 20,9 km/h (4 Bft) 100,00 %
08.02.2017 20:58 -1,4 C 87 % 1025,7 hPa 0,0 l/m 14,5 km/h (3 Bft) NO 46 0 min 0,000 mm 0,0 UV-I 0 W/m -3,3 C -8,4 C 20,9 km/h (4 Bft) 100,00 %
08.02.2017 21:00 -1,4 C 87 % 1025,7 hPa 0,0 l/m 15,6 km/h (3 Bft) O-NO 65 0 min 0,000 mm 0,0 UV-I 0 W/m -3,3 C -9,0 C 22,5 km/h (4 Bft) 100,00 %
08.02.2017 21:02 -1,4 C 87 % 1025,7 hPa 0,0 l/m 18,5 km/h (3 Bft) O-NO 74 0 min 0,025 mm 0,0 UV-I 0 W/m -3,3 C -10,7 C 27,4 km/h (4 Bft) 100,00 %
08.02.2017 21:04 -1,4 C 87 % 1025,8 hPa 0,0 l/m 18,4 km/h (3 Bft) O-NO 65 0 min 0,000 mm 0,0 UV-I 0 W/m -3,3 C -10,6 C 24,1 km/h (4 Bft) 100,00 %
08.02.2017 21:06 -1,4 C 87 % 1025,8 hPa 0,0 l/m 17,9 km/h (3 Bft) O-NO 70 0 min 0,000 mm 0,0 UV-I 0 W/m -3,3 C -10,4 C 20,9 km/h (4 Bft) 97,44 %
08.02.2017 21:08 -1,4 C 88 % 1025,8 hPa 0,0 l/m 13,7 km/h (3 Bft) O-NO 63 0 min 0,000 mm 0,0 UV-I 0 W/m -3,1 C -7,8 C 20,9 km/h (4 Bft) 100,00 %
08.02.2017 21:10 -1,4 C 87 % 1025,8 hPa 0,0 l/m 13,1 km/h (3 Bft) O-NO 65 0 min 0,000 mm 0,0 UV-I 0 W/m -3,3 C -7,4 C 17,7 km/h (3 Bft) 97,87 %
08.02.2017 21:12 -1,4 C 88 % 1025,9 hPa 0,0 l/m 10,7 km/h (2 Bft) O-NO 59 0 min 0,000 mm 0,0 UV-I 0 W/m -3,1 C -5,6 C 16,1 km/h (3 Bft) 100,00 %
08.02.2017 21:14 -1,4 C 88 % 1025,8 hPa 0,0 l/m 10,2 km/h (2 Bft) O-NO 72 0 min 0,000 mm 0,0 UV-I 0 W/m -3,1 C -5,2 C 14,5 km/h (3 Bft) 100,00 %
08.02.2017 21:16 -1,5 C 88 % 1025,9 hPa 0,0 l/m 13,8 km/h (3 Bft) O-NO 63 0 min 0,000 mm 0,0 UV-I 0 W/m -3,2 C -8,0 C 20,9 km/h (4 Bft) 98,11 %
08.02.2017 21:18 -1,5 C 89 % 1025,9 hPa 0,0 l/m 15,7 km/h (3 Bft) O-NO 57 0 min 0,000 mm 0,0 UV-I 0 W/m -3,1 C -9,2 C 20,9 km/h (4 Bft) 100,00 %
08.02.2017 21:20 -1,5 C 88 % 1025,9 hPa 0,0 l/m 16,4 km/h (3 Bft) O 79 0 min 0,000 mm 0,0 UV-I 0 W/m -3,2 C -9,6 C 19,3 km/h (3 Bft) 100,00 %
08.02.2017 21:22 -1,6 C 88 % 1025,9 hPa 0,0 l/m 16,9 km/h (3 Bft) O-NO 60 0 min 0,000 mm 0,0 UV-I 0 W/m -3,3 C -10,1 C 22,5 km/h (4 Bft) 100,00 %
08.02.2017 21:24 -1,6 C 88 % 1025,9 hPa 0,0 l/m 18,2 km/h (3 Bft) O-NO 57 0 min 0,000 mm 0,0 UV-I 0 W/m -3,3 C -10,8 C 24,1 km/h (4 Bft) 100,00 %
08.02.2017 21:26 -1,6 C 88 % 1025,9 hPa 0,0 l/m 19,6 km/h (3 Bft) NO 56 0 min 0,000 mm 0,0 UV-I 0 W/m -3,3 C -11,5 C 25,7 km/h (4 Bft) 100,00 %
08.02.2017 21:28 -1,6 C 88 % 1025,9 hPa 0,0 l/m 17,7 km/h (3 Bft) O-NO 58 0 min 0,000 mm 0,0 UV-I 0 W/m -3,3 C -10,5 C 22,5 km/h (4 Bft) 100,00 %
08.02.2017 21:30 -1,6 C 88 % 1025,9 hPa 0,0 l/m 18,4 km/h (3 Bft) O-NO 57 0 min 0,000 mm 0,0 UV-I 0 W/m -3,3 C -10,9 C 25,7 km/h (4 Bft) 100,00 %
08.02.2017 21:32 -1,6 C 88 % 1025,9 hPa 0,0 l/m 15,5 km/h (3 Bft) NO 44 0 min 0,000 mm 0,0 UV-I 0 W/m -3,3 C -9,2 C 20,9 km/h (4 Bft) 100,00 %
08.02.2017 21:34 -1,6 C 88 % 1025,9 hPa 0,0 l/m 16,7 km/h (3 Bft) NO 47 0 min 0,000 mm 0,0 UV-I 0 W/m -3,3 C -9,9 C 20,9 km/h (4 Bft) 98,11 %
08.02.2017 21:36 -1,6 C 88 % 1025,9 hPa 0,0 l/m 17,0 km/h (3 Bft) O-NO 59 0 min 0,000 mm 0,0 UV-I 0 W/m -3,3 C -10,1 C 22,5 km/h (4 Bft) 98,21 %
08.02.2017 21:38 -1,6 C 89 % 1025,9 hPa 0,0 l/m 17,2 km/h (3 Bft) O-NO 57 0 min 0,000 mm 0,0 UV-I 0 W/m -3,2 C -10,2 C 24,1 km/h (4 Bft) 100,00 %
08.02.2017 21:40 -1,7 C 89 % 1025,9 hPa 0,0 l/m 16,6 km/h (3 Bft) O-NO 71 0 min 0,000 mm 0,0 UV-I 0 W/m -3,3 C -10,0 C 22,5 km/h (4 Bft) 100,00 %
08.02.2017 21:42 -1,7 C 89 % 1025,9 hPa 0,0 l/m 18,3 km/h (3 Bft) O-NO 57 0 min 0,000 mm 0,0 UV-I 0 W/m -3,3 C -11,0 C 22,5 km/h (4 Bft) 98,11 %
08.02.2017 21:44 -1,7 C 89 % 1026,0 hPa 0,0 l/m 15,4 km/h (3 Bft) NO 53 0 min 0,000 mm 0,0 UV-I 0 W/m -3,3 C -9,3 C 20,9 km/h (4 Bft) 95,12 %
08.02.2017 21:46 -1,7 C 89 % 1026,0 hPa 0,0 l/m 13,8 km/h (3 Bft) O-NO 59 0 min 0,000 mm 0,0 UV-I 0 W/m -3,3 C -8,3 C 20,9 km/h (4 Bft) 98,11 %
08.02.2017 21:48 -1,7 C 89 % 1026,0 hPa 0,0 l/m 13,6 km/h (3 Bft) O-NO 60 0 min 0,000 mm 0,0 UV-I 0 W/m -3,3 C -8,1 C 19,3 km/h (3 Bft) 97,62 %
08.02.2017 21:50 -1,7 C 89 % 1026,0 hPa 0,0 l/m 14,1 km/h (3 Bft) NO 46 0 min 0,000 mm 0,0 UV-I 0 W/m -3,3 C -8,5 C 19,3 km/h (3 Bft) 98,08 %
08.02.2017 21:52 -1,8 C 89 % 1026,0 hPa 0,0 l/m 13,9 km/h (3 Bft) O-NO 65 0 min 0,000 mm 0,0 UV-I 0 W/m -3,4 C -8,4 C 20,9 km/h (4 Bft) 95,83 %
08.02.2017 21:54 -1,8 C 89 % 1026,0 hPa 0,0 l/m 14,0 km/h (3 Bft) NO 55 0 min 0,000 mm 0,0 UV-I 0 W/m -3,4 C -8,5 C 22,5 km/h (4 Bft) 97,14 %
08.02.2017 21:56 -1,8 C 89 % 1026,0 hPa 0,0 l/m 13,5 km/h (3 Bft) O-NO 57 0 min 0,000 mm 0,0 UV-I 0 W/m -3,4 C -8,2 C 19,3 km/h (3 Bft) 96,00 %
08.02.2017 21:58 -1,8 C 89 % 1026,0 hPa 0,0 l/m 15,1 km/h (3 Bft) O-NO 67 0 min 0,000 mm 0,0 UV-I 0 W/m -3,4 C -9,2 C 20,9 km/h (4 Bft) 96,23 %
08.02.2017 22:00 -1,8 C 89 % 1026,0 hPa 0,0 l/m 16,9 km/h (3 Bft) O-NO 58 0 min 0,000 mm 0,0 UV-I 0 W/m -3,4 C -10,3 C 20,9 km/h (4 Bft) 97,37 %
08.02.2017 22:02 -1,8 C 89 % 1026,1 hPa 0,0 l/m 13,9 km/h (3 Bft) O-NO 67 0 min 0,025 mm 0,0 UV-I 0 W/m -3,4 C -8,4 C 19,3 km/h (3 Bft) 98,11 %
08.02.2017 22:04 -1,8 C 89 % 1026,1 hPa 0,0 l/m 15,3 km/h (3 Bft) O-NO 64 0 min 0,000 mm 0,0 UV-I 0 W/m -3,4 C -9,4 C 20,9 km/h (4 Bft) 97,73 %
08.02.2017 22:06 -1,9 C 89 % 1026,0 hPa 0,0 l/m 14,5 km/h (3 Bft) O-NO 61 0 min 0,000 mm 0,0 UV-I 0 W/m -3,5 C -9,0 C 20,9 km/h (4 Bft) 98,11 %
08.02.2017 22:08 -1,9 C 89 % 1026,1 hPa 0,0 l/m 14,2 km/h (3 Bft) O-NO 67 0 min 0,000 mm 0,0 UV-I 0 W/m -3,5 C -8,8 C 20,9 km/h (4 Bft) 97,87 %
08.02.2017 22:10 -1,9 C 89 % 1026,1 hPa 0,0 l/m 17,1 km/h (3 Bft) O-NO 65 0 min 0,000 mm 0,0 UV-I 0 W/m -3,5 C -10,5 C 22,5 km/h (4 Bft) 97,73 %
08.02.2017 22:12 -1,9 C 89 % 1026,1 hPa 0,0 l/m 15,9 km/h (3 Bft) O-NO 73 0 min 0,000 mm 0,0 UV-I 0 W/m -3,5 C -9,8 C 20,9 km/h (4 Bft) 97,37 %
08.02.2017 22:14 -1,9 C 89 % 1026,0 hPa 0,0 l/m 14,8 km/h (3 Bft) O-NO 64 0 min 0,000 mm 0,0 UV-I 0 W/m -3,5 C -9,2 C 17,7 km/h (3 Bft) 96,43 %
08.02.2017 22:16 -1,9 C 89 % 1026,0 hPa 0,0 l/m 14,5 km/h (3 Bft) NO 53 0 min 0,000 mm 0,0 UV-I 0 W/m -3,5 C -9,0 C 27,4 km/h (4 Bft) 98,00 %
08.02.2017 22:18 -1,9 C 89 % 1026,1 hPa 0,0 l/m 17,3 km/h (3 Bft) NO 55 0 min 0,000 mm 0,0 UV-I 0 W/m -3,5 C -10,7 C 22,5 km/h (4 Bft) 100,00 %
08.02.2017 22:20 -1,9 C 89 % 1026,1 hPa 0,0 l/m 16,3 km/h (3 Bft) O-NO 78 0 min 0,000 mm 0,0 UV-I 0 W/m -3,5 C -10,1 C 22,5 km/h (4 Bft) 97,56 %
08.02.2017 22:22 -1,9 C 89 % 1026,1 hPa 0,0 l/m 17,2 km/h (3 Bft) NO 38 0 min 0,000 mm 0,0 UV-I 0 W/m -3,5 C -10,6 C 22,5 km/h (4 Bft) 98,00 %
08.02.2017 22:24 -1,9 C 89 % 1026,1 hPa 0,0 l/m 14,6 km/h (3 Bft) NO 51 0 min 0,000 mm 0,0 UV-I 0 W/m -3,5 C -9,0 C 20,9 km/h (4 Bft) 100,00 %
08.02.2017 22:26 -1,9 C 89 % 1026,1 hPa 0,0 l/m 18,5 km/h (3 Bft) NO 54 0 min 0,000 mm 0,0 UV-I 0 W/m -3,5 C -11,3 C 24,1 km/h (4 Bft) 100,00 %
08.02.2017 22:28 -1,9 C 89 % 1026,1 hPa 0,0 l/m 18,6 km/h (3 Bft) O-NO 69 0 min 0,000 mm 0,0 UV-I 0 W/m -3,5 C -11,4 C 24,1 km/h (4 Bft) 97,62 %
08.02.2017 22:30 -1,9 C 89 % 1026,1 hPa 0,0 l/m 16,7 km/h (3 Bft) O-NO 57 0 min 0,000 mm 0,0 UV-I 0 W/m -3,5 C -10,3 C 22,5 km/h (4 Bft) 98,00 %
08.02.2017 22:32 -1,9 C 89 % 1026,2 hPa 0,0 l/m 18,5 km/h (3 Bft) O-NO 61 0 min 0,000 mm 0,0 UV-I 0 W/m -3,5 C -11,3 C 24,1 km/h (4 Bft) 100,00 %
08.02.2017 22:34 -1,9 C 89 % 1026,1 hPa 0,0 l/m 16,8 km/h (3 Bft) O-NO 71 0 min 0,000 mm 0,0 UV-I 0 W/m -3,5 C -10,4 C 24,1 km/h (4 Bft) 100,00 %
08.02.2017 22:36 -1,9 C 89 % 1026,1 hPa 0,0 l/m 18,0 km/h (3 Bft) O-NO 64 0 min 0,000 mm 0,0 UV-I 0 W/m -3,5 C -11,0 C 25,7 km/h (4 Bft) 98,11 %
08.02.2017 22:38 -1,9 C 89 % 1026,1 hPa 0,0 l/m 16,3 km/h (3 Bft) O-NO 74 0 min 0,000 mm 0,0 UV-I 0 W/m -3,5 C -10,1 C 20,9 km/h (4 Bft) 100,00 %
08.02.2017 22:40 -1,9 C 89 % 1026,1 hPa 0,0 l/m 18,6 km/h (3 Bft) NO 55 0 min 0,000 mm 0,0 UV-I 0 W/m -3,5 C -11,4 C 24,1 km/h (4 Bft) 100,00 %
08.02.2017 22:42 -1,9 C 89 % 1026,1 hPa 0,0 l/m 20,5 km/h (4 Bft) O-NO 61 0 min 0,000 mm 0,0 UV-I 0 W/m -3,5 C -12,3 C 27,4 km/h (4 Bft) 100,00 %
08.02.2017 22:44 -1,9 C 89 % 1026,1 hPa 0,0 l/m 20,2 km/h (4 Bft) O-NO 71 0 min 0,000 mm 0,0 UV-I 0 W/m -3,5 C -12,2 C 27,4 km/h (4 Bft) 98,11 %
08.02.2017 22:46 -1,9 C 89 % 1026,1 hPa 0,0 l/m 19,6 km/h (3 Bft) O-NO 69 0 min 0,000 mm 0,0 UV-I 0 W/m -3,5 C -11,9 C 25,7 km/h (4 Bft) 97,73 %
08.02.2017 22:48 -1,9 C 89 % 1026,2 hPa 0,0 l/m 16,2 km/h (3 Bft) O-NO 77 0 min 0,000 mm 0,0 UV-I 0 W/m -3,5 C -10,0 C 22,5 km/h (4 Bft) 100,00 %
08.02.2017 22:50 -1,9 C 89 % 1026,2 hPa 0,0 l/m 16,9 km/h (3 Bft) O 81 0 min 0,000 mm 0,0 UV-I 0 W/m -3,5 C -10,4 C 24,1 km/h (4 Bft) 100,00 %
08.02.2017 22:52 -1,9 C 89 % 1026,2 hPa 0,0 l/m 14,1 km/h (3 Bft) O-NO 57 0 min 0,000 mm 0,0 UV-I 0 W/m -3,5 C -8,7 C 20,9 km/h (4 Bft) 100,00 %
08.02.2017 22:54 -1,9 C 89 % 1026,2 hPa 0,0 l/m 17,6 km/h (3 Bft) O-NO 76 0 min 0,000 mm 0,0 UV-I 0 W/m -3,5 C -10,8 C 20,9 km/h (4 Bft) 100,00 %
08.02.2017 22:56 -1,9 C 89 % 1026,2 hPa 0,0 l/m 17,6 km/h (3 Bft) O-NO 64 0 min 0,000 mm 0,0 UV-I 0 W/m -3,5 C -10,8 C 20,9 km/h (4 Bft) 95,12 %
08.02.2017 22:58 -1,9 C 88 % 1026,2 hPa 0,0 l/m 16,1 km/h (3 Bft) NO 51 0 min 0,000 mm 0,0 UV-I 0 W/m -3,6 C -10,0 C 19,3 km/h (3 Bft) 100,00 %
08.02.2017 23:00 -1,9 C 88 % 1026,2 hPa 0,0 l/m 15,9 km/h (3 Bft) NO 55 0 min 0,000 mm 0,0 UV-I 0 W/m -3,6 C -9,8 C 20,9 km/h (4 Bft) 97,56 %
08.02.2017 23:02 -1,9 C 88 % 1026,2 hPa 0,0 l/m 16,6 km/h (3 Bft) NO 45 0 min 0,026 mm 0,0 UV-I 0 W/m -3,6 C -10,3 C 20,9 km/h (4 Bft) 98,11 %
08.02.2017 23:04 -1,9 C 88 % 1026,1 hPa 0,0 l/m 17,0 km/h (3 Bft) O-NO 63 0 min 0,000 mm 0,0 UV-I 0 W/m -3,6 C -10,5 C 22,5 km/h (4 Bft) 100,00 %
08.02.2017 23:06 -1,9 C 88 % 1026,2 hPa 0,0 l/m 17,4 km/h (3 Bft) NO 34 0 min 0,000 mm 0,0 UV-I 0 W/m -3,6 C -10,7 C 22,5 km/h (4 Bft) 100,00 %
08.02.2017 23:08 -1,9 C 88 % 1026,2 hPa 0,0 l/m 15,8 km/h (3 Bft) O-NO 65 0 min 0,000 mm 0,0 UV-I 0 W/m -3,6 C -9,8 C 20,9 km/h (4 Bft) 100,00 %
08.02.2017 23:10 -1,9 C 88 % 1026,2 hPa 0,0 l/m 15,4 km/h (3 Bft) O-NO 70 0 min 0,000 mm 0,0 UV-I 0 W/m -3,6 C -9,5 C 19,3 km/h (3 Bft) 100,00 %
08.02.2017 23:12 -1,9 C 88 % 1026,3 hPa 0,0 l/m 16,1 km/h (3 Bft) O-NO 59 0 min 0,000 mm 0,0 UV-I 0 W/m -3,6 C -10,0 C 25,7 km/h (4 Bft) 100,00 %
08.02.2017 23:14 -1,9 C 88 % 1026,3 hPa 0,0 l/m 14,2 km/h (3 Bft) NO 55 0 min 0,000 mm 0,0 UV-I 0 W/m -3,6 C -8,8 C 19,3 km/h (3 Bft) 98,53 %
08.02.2017 23:16 -1,9 C 88 % 1026,3 hPa 0,0 l/m 17,0 km/h (3 Bft) O-NO 69 0 min 0,000 mm 0,0 UV-I 0 W/m -3,6 C -10,5 C 22,5 km/h (4 Bft) 97,73 %
08.02.2017 23:18 -1,9 C 88 % 1026,3 hPa 0,0 l/m 17,8 km/h (3 Bft) NO 55 0 min 0,000 mm 0,0 UV-I 0 W/m -3,6 C -10,9 C 22,5 km/h (4 Bft) 100,00 %
08.02.2017 23:20 -1,9 C 88 % 1026,3 hPa 0,0 l/m 18,5 km/h (3 Bft) O-NO 57 0 min 0,000 mm 0,0 UV-I 0 W/m -3,6 C -11,3 C 25,7 km/h (4 Bft) 100,00 %
08.02.2017 23:22 -1,9 C 88 % 1026,3 hPa 0,0 l/m 18,1 km/h (3 Bft) O-NO 60 0 min 0,000 mm 0,0 UV-I 0 W/m -3,6 C -11,1 C 25,7 km/h (4 Bft) 100,00 %
08.02.2017 23:24 -1,9 C 88 % 1026,3 hPa 0,0 l/m 16,2 km/h (3 Bft) O-NO 61 0 min 0,000 mm 0,0 UV-I 0 W/m -3,6 C -10,0 C 22,5 km/h (4 Bft) 100,00 %
08.02.2017 23:26 -1,9 C 88 % 1026,3 hPa 0,0 l/m 16,0 km/h (3 Bft) O-NO 61 0 min 0,000 mm 0,0 UV-I 0 W/m -3,6 C -9,9 C 22,5 km/h (4 Bft) 100,00 %
08.02.2017 23:28 -2,0 C 88 % 1026,3 hPa 0,0 l/m 19,4 km/h (3 Bft) O 81 0 min 0,000 mm 0,0 UV-I 0 W/m -3,7 C -11,9 C 27,4 km/h (4 Bft) 100,00 %
08.02.2017 23:30 -2,0 C 88 % 1026,3 hPa 0,0 l/m 17,0 km/h (3 Bft) O 80 0 min 0,000 mm 0,0 UV-I 0 W/m -3,7 C -10,6 C 22,5 km/h (4 Bft) 100,00 %
08.02.2017 23:32 -2,0 C 88 % 1026,3 hPa 0,0 l/m 18,7 km/h (3 Bft) O-NO 68 0 min 0,000 mm 0,0 UV-I 0 W/m -3,7 C -11,6 C 25,7 km/h (4 Bft) 100,00 %
08.02.2017 23:34 -2,1 C 88 % 1026,4 hPa 0,0 l/m 18,8 km/h (3 Bft) O 79 0 min 0,000 mm 0,0 UV-I 0 W/m -3,8 C -11,7 C 27,4 km/h (4 Bft) 96,30 %
08.02.2017 23:36 -2,1 C 88 % 1026,4 hPa 0,0 l/m 17,4 km/h (3 Bft) NO 47 0 min 0,000 mm 0,0 UV-I 0 W/m -3,8 C -11,0 C 22,5 km/h (4 Bft) 100,00 %
08.02.2017 23:38 -2,1 C 88 % 1026,4 hPa 0,0 l/m 19,8 km/h (3 Bft) O-NO 67 0 min 0,000 mm 0,0 UV-I 0 W/m -3,8 C -12,2 C 25,7 km/h (4 Bft) 100,00 %
08.02.2017 23:40 -2,1 C 88 % 1026,4 hPa 0,0 l/m 18,3 km/h (3 Bft) O-NO 67 0 min 0,000 mm 0,0 UV-I 0 W/m -3,8 C -11,5 C 22,5 km/h (4 Bft) 97,73 %
08.02.2017 23:42 -2,1 C 88 % 1026,5 hPa 0,0 l/m 18,9 km/h (3 Bft) O-NO 60 0 min 0,000 mm 0,0 UV-I 0 W/m -3,8 C -11,8 C 25,7 km/h (4 Bft) 96,00 %
08.02.2017 23:44 -2,1 C 88 % 1026,4 hPa 0,0 l/m 21,4 km/h (4 Bft) O-NO 71 0 min 0,000 mm 0,0 UV-I 0 W/m -3,8 C -13,0 C 29,0 km/h (5 Bft) 100,00 %
08.02.2017 23:46 -2,1 C 87 % 1026,4 hPa 0,0 l/m 19,2 km/h (3 Bft) O-NO 66 0 min 0,000 mm 0,0 UV-I 0 W/m -4,0 C -11,9 C 25,7 km/h (4 Bft) 97,62 %
08.02.2017 23:48 -2,2 C 87 % 1026,4 hPa 0,0 l/m 20,4 km/h (4 Bft) O-NO 59 0 min 0,000 mm 0,0 UV-I 0 W/m -4,1 C -12,7 C 27,4 km/h (4 Bft) 98,08 %
08.02.2017 23:50 -2,2 C 87 % 1026,4 hPa 0,0 l/m 20,1 km/h (4 Bft) O-NO 74 0 min 0,000 mm 0,0 UV-I 0 W/m -4,1 C -12,5 C 27,4 km/h (4 Bft) 97,92 %
08.02.2017 23:52 -2,2 C 87 % 1026,4 hPa 0,0 l/m 19,9 km/h (4 Bft) O-NO 62 0 min 0,000 mm 0,0 UV-I 0 W/m -4,1 C -12,4 C 25,7 km/h (4 Bft) 95,12 %
08.02.2017 23:54 -2,2 C 87 % 1026,4 hPa 0,0 l/m 20,7 km/h (4 Bft) NO 55 0 min 0,000 mm 0,0 UV-I 0 W/m -4,1 C -12,8 C 25,7 km/h (4 Bft) 98,00 %
08.02.2017 23:56 -2,2 C 87 % 1026,4 hPa 0,0 l/m 19,4 km/h (3 Bft) NO 44 0 min 0,000 mm 0,0 UV-I 0 W/m -4,1 C -12,2 C 24,1 km/h (4 Bft) 97,87 %
08.02.2017 23:58 -2,3 C 87 % 1026,4 hPa 0,0 l/m 20,6 km/h (4 Bft) NO 53 0 min 0,000 mm 0,0 UV-I 0 W/m -4,2 C -12,9 C 25,7 km/h (4 Bft) 97,56 %
_ Min-Zeit 23:58 13:32 00:06 - 02:52 - - - - - - 23:58 23:44 04:36 09:08
Minimum _ -2,3 C 74 % 1018,7 hPa - 6,2 km/h (2 Bft) - - - - - - -4,2 C -13,0 C 8,0 km/h (2 Bft) 70,73 %
_ Max-Zeit 14:04 00:00 23:42 00:00 19:14 - - 13:23 14:00 12:50 12:58 00:14 14:00 19:14 00:10
Maximum _ 1,4 C 97 % 1026,5 hPa 0,0 l/m 22,5 km/h
O-NO (4 Bft)
- - 3 min 0,153 mm 1,1 UV-I 429 W/m -0,8 C 0,1 C 32,2 km/h
O-NO (5 Bft)
100,00 %
Durchschnitt _ -0,6 C 86 % 1022,4 hPa #0,0 l/m 12,2 km/h (2 Bft) O-NO - #2:50 h #0,813 mm 0,8 UV-I 153 W/m -2,7 C -5,6 C 17,6 km/h (3 Bft) 97,21 %